<?xml version="1.0" encoding="UTF-8" standalone="no" ?>
<gpx xmlns="http://www.topografix.com/GPX/1/1" xmlns:xsi="http://www.w3.org/2001/XMLSchema-instance" xsi:schemaLocation="http://www.topografix.com/GPX/1/1 http://www.topografix.com/GPX/1/1/gpx.xsd" version="1.1" creator="VisuGPX - https://www.visugpx.com">
  <metadata>
    <name>Doussard pointe de velan</name>
    <desc><![CDATA[Montée par le sentier des vignes (hyper gras...) puis sortie assez casse gueule ]]></desc>
  </metadata>
  <trk>
    <name><![CDATA[Doussard pointe de velan_1]]></name>
    <trkseg>
      <trkpt lat="45.76884" lon="6.22329">
        <ele>496</ele>
        <time>2011-11-01T08:28:43Z</time>
      </trkpt>
      <trkpt lat="45.76885" lon="6.22336">
        <ele>496</ele>
        <time>2011-11-01T08:28:48Z</time>
      </trkpt>
      <trkpt lat="45.76885" lon="6.22338">
        <ele>496</ele>
        <time>2011-11-01T08:28:55Z</time>
      </trkpt>
      <trkpt lat="45.76873" lon="6.22317">
        <ele>496</ele>
        <time>2011-11-01T08:29:00Z</time>
      </trkpt>
      <trkpt lat="45.76856" lon="6.22298">
        <ele>497</ele>
        <time>2011-11-01T08:29:06Z</time>
      </trkpt>
      <trkpt lat="45.76841" lon="6.22283">
        <ele>497</ele>
        <time>2011-11-01T08:29:10Z</time>
      </trkpt>
      <trkpt lat="45.76814" lon="6.22272">
        <ele>499</ele>
        <time>2011-11-01T08:29:16Z</time>
      </trkpt>
      <trkpt lat="45.76809" lon="6.22271">
        <ele>499</ele>
        <time>2011-11-01T08:29:17Z</time>
      </trkpt>
      <trkpt lat="45.76778" lon="6.22264">
        <ele>500</ele>
        <time>2011-11-01T08:29:24Z</time>
      </trkpt>
      <trkpt lat="45.76761" lon="6.22259">
        <ele>500</ele>
        <time>2011-11-01T08:29:28Z</time>
      </trkpt>
      <trkpt lat="45.76746" lon="6.22247">
        <ele>501</ele>
        <time>2011-11-01T08:29:33Z</time>
      </trkpt>
      <trkpt lat="45.76727" lon="6.22221">
        <ele>503</ele>
        <time>2011-11-01T08:29:40Z</time>
      </trkpt>
      <trkpt lat="45.76713" lon="6.22217">
        <ele>503</ele>
        <time>2011-11-01T08:29:44Z</time>
      </trkpt>
      <trkpt lat="45.76697" lon="6.22218">
        <ele>503</ele>
        <time>2011-11-01T08:29:49Z</time>
      </trkpt>
      <trkpt lat="45.76696" lon="6.2223">
        <ele>504</ele>
        <time>2011-11-01T08:29:53Z</time>
      </trkpt>
      <trkpt lat="45.76702" lon="6.22254">
        <ele>505</ele>
        <time>2011-11-01T08:29:58Z</time>
      </trkpt>
      <trkpt lat="45.76702" lon="6.22279">
        <ele>505</ele>
        <time>2011-11-01T08:30:03Z</time>
      </trkpt>
      <trkpt lat="45.76689" lon="6.2231">
        <ele>506</ele>
        <time>2011-11-01T08:30:10Z</time>
      </trkpt>
      <trkpt lat="45.76677" lon="6.22328">
        <ele>508</ele>
        <time>2011-11-01T08:30:15Z</time>
      </trkpt>
      <trkpt lat="45.76662" lon="6.22351">
        <ele>512</ele>
        <time>2011-11-01T08:30:22Z</time>
      </trkpt>
      <trkpt lat="45.76648" lon="6.22367">
        <ele>513</ele>
        <time>2011-11-01T08:30:28Z</time>
      </trkpt>
      <trkpt lat="45.76638" lon="6.22379">
        <ele>513</ele>
        <time>2011-11-01T08:30:33Z</time>
      </trkpt>
      <trkpt lat="45.76622" lon="6.22389">
        <ele>514</ele>
        <time>2011-11-01T08:30:39Z</time>
      </trkpt>
      <trkpt lat="45.76604" lon="6.22392">
        <ele>515</ele>
        <time>2011-11-01T08:30:44Z</time>
      </trkpt>
      <trkpt lat="45.76586" lon="6.22396">
        <ele>516</ele>
        <time>2011-11-01T08:30:51Z</time>
      </trkpt>
      <trkpt lat="45.76576" lon="6.22396">
        <ele>519</ele>
        <time>2011-11-01T08:30:55Z</time>
      </trkpt>
      <trkpt lat="45.76561" lon="6.22393">
        <ele>519</ele>
        <time>2011-11-01T08:31:01Z</time>
      </trkpt>
      <trkpt lat="45.76543" lon="6.22389">
        <ele>519</ele>
        <time>2011-11-01T08:31:07Z</time>
      </trkpt>
      <trkpt lat="45.76533" lon="6.22388">
        <ele>519</ele>
        <time>2011-11-01T08:31:12Z</time>
      </trkpt>
      <trkpt lat="45.76526" lon="6.22386">
        <ele>519</ele>
        <time>2011-11-01T08:31:15Z</time>
      </trkpt>
      <trkpt lat="45.76505" lon="6.22395">
        <ele>521</ele>
        <time>2011-11-01T08:31:23Z</time>
      </trkpt>
      <trkpt lat="45.76489" lon="6.22408">
        <ele>521</ele>
        <time>2011-11-01T08:31:30Z</time>
      </trkpt>
      <trkpt lat="45.76468" lon="6.22426">
        <ele>525</ele>
        <time>2011-11-01T08:31:39Z</time>
      </trkpt>
      <trkpt lat="45.76455" lon="6.2244">
        <ele>526</ele>
        <time>2011-11-01T08:31:45Z</time>
      </trkpt>
      <trkpt lat="45.76443" lon="6.22464">
        <ele>527</ele>
        <time>2011-11-01T08:31:52Z</time>
      </trkpt>
      <trkpt lat="45.76424" lon="6.22486">
        <ele>530</ele>
        <time>2011-11-01T08:32:00Z</time>
      </trkpt>
      <trkpt lat="45.76405" lon="6.22506">
        <ele>535</ele>
        <time>2011-11-01T08:32:08Z</time>
      </trkpt>
      <trkpt lat="45.76379" lon="6.22523">
        <ele>537</ele>
        <time>2011-11-01T08:32:18Z</time>
      </trkpt>
      <trkpt lat="45.76355" lon="6.22534">
        <ele>538</ele>
        <time>2011-11-01T08:32:27Z</time>
      </trkpt>
      <trkpt lat="45.76326" lon="6.22543">
        <ele>543</ele>
        <time>2011-11-01T08:32:37Z</time>
      </trkpt>
      <trkpt lat="45.76313" lon="6.22549">
        <ele>544</ele>
        <time>2011-11-01T08:32:42Z</time>
      </trkpt>
      <trkpt lat="45.76295" lon="6.22554">
        <ele>545</ele>
        <time>2011-11-01T08:32:49Z</time>
      </trkpt>
      <trkpt lat="45.76265" lon="6.22562">
        <ele>547</ele>
        <time>2011-11-01T08:33:00Z</time>
      </trkpt>
      <trkpt lat="45.76248" lon="6.22566">
        <ele>553</ele>
        <time>2011-11-01T08:33:07Z</time>
      </trkpt>
      <trkpt lat="45.76225" lon="6.22568">
        <ele>554</ele>
        <time>2011-11-01T08:33:15Z</time>
      </trkpt>
      <trkpt lat="45.76207" lon="6.22569">
        <ele>555</ele>
        <time>2011-11-01T08:33:22Z</time>
      </trkpt>
      <trkpt lat="45.76198" lon="6.22572">
        <ele>556</ele>
        <time>2011-11-01T08:33:27Z</time>
      </trkpt>
      <trkpt lat="45.76183" lon="6.22576">
        <ele>558</ele>
        <time>2011-11-01T08:33:35Z</time>
      </trkpt>
      <trkpt lat="45.76172" lon="6.22578">
        <ele>560</ele>
        <time>2011-11-01T08:33:40Z</time>
      </trkpt>
      <trkpt lat="45.76169" lon="6.22578">
        <ele>560</ele>
        <time>2011-11-01T08:34:37Z</time>
      </trkpt>
      <trkpt lat="45.76168" lon="6.22578">
        <ele>561</ele>
        <time>2011-11-01T08:34:38Z</time>
      </trkpt>
      <trkpt lat="45.76161" lon="6.2258">
        <ele>563</ele>
        <time>2011-11-01T08:34:41Z</time>
      </trkpt>
      <trkpt lat="45.76142" lon="6.22584">
        <ele>571</ele>
        <time>2011-11-01T08:34:50Z</time>
      </trkpt>
      <trkpt lat="45.7614" lon="6.22585">
        <ele>572</ele>
        <time>2011-11-01T08:34:55Z</time>
      </trkpt>
      <trkpt lat="45.76138" lon="6.22587">
        <ele>572</ele>
        <time>2011-11-01T08:35:05Z</time>
      </trkpt>
      <trkpt lat="45.76123" lon="6.22585">
        <ele>575</ele>
        <time>2011-11-01T08:35:13Z</time>
      </trkpt>
      <trkpt lat="45.76111" lon="6.22585">
        <ele>577</ele>
        <time>2011-11-01T08:35:19Z</time>
      </trkpt>
      <trkpt lat="45.76092" lon="6.22587">
        <ele>579</ele>
        <time>2011-11-01T08:35:28Z</time>
      </trkpt>
      <trkpt lat="45.76081" lon="6.22585">
        <ele>581</ele>
        <time>2011-11-01T08:35:33Z</time>
      </trkpt>
      <trkpt lat="45.76066" lon="6.22584">
        <ele>586</ele>
        <time>2011-11-01T08:35:40Z</time>
      </trkpt>
      <trkpt lat="45.76055" lon="6.22583">
        <ele>583</ele>
        <time>2011-11-01T08:35:46Z</time>
      </trkpt>
      <trkpt lat="45.76035" lon="6.22587">
        <ele>590</ele>
        <time>2011-11-01T08:35:54Z</time>
      </trkpt>
      <trkpt lat="45.76018" lon="6.22596">
        <ele>591</ele>
        <time>2011-11-01T08:36:02Z</time>
      </trkpt>
      <trkpt lat="45.75999" lon="6.226">
        <ele>596</ele>
        <time>2011-11-01T08:36:11Z</time>
      </trkpt>
      <trkpt lat="45.7599" lon="6.22601">
        <ele>596</ele>
        <time>2011-11-01T08:36:16Z</time>
      </trkpt>
      <trkpt lat="45.75988" lon="6.22602">
        <ele>596</ele>
        <time>2011-11-01T08:36:17Z</time>
      </trkpt>
      <trkpt lat="45.75977" lon="6.22604">
        <ele>598</ele>
        <time>2011-11-01T08:36:23Z</time>
      </trkpt>
      <trkpt lat="45.75972" lon="6.22609">
        <ele>598</ele>
        <time>2011-11-01T08:36:26Z</time>
      </trkpt>
      <trkpt lat="45.75957" lon="6.22626">
        <ele>600</ele>
        <time>2011-11-01T08:36:34Z</time>
      </trkpt>
      <trkpt lat="45.75945" lon="6.22642">
        <ele>601</ele>
        <time>2011-11-01T08:36:41Z</time>
      </trkpt>
      <trkpt lat="45.75932" lon="6.22654">
        <ele>602</ele>
        <time>2011-11-01T08:36:47Z</time>
      </trkpt>
      <trkpt lat="45.75919" lon="6.22663">
        <ele>603</ele>
        <time>2011-11-01T08:36:53Z</time>
      </trkpt>
      <trkpt lat="45.75904" lon="6.22676">
        <ele>608</ele>
        <time>2011-11-01T08:37:00Z</time>
      </trkpt>
      <trkpt lat="45.75893" lon="6.22685">
        <ele>610</ele>
        <time>2011-11-01T08:37:05Z</time>
      </trkpt>
      <trkpt lat="45.75875" lon="6.22691">
        <ele>611</ele>
        <time>2011-11-01T08:37:11Z</time>
      </trkpt>
      <trkpt lat="45.75864" lon="6.22695">
        <ele>612</ele>
        <time>2011-11-01T08:37:15Z</time>
      </trkpt>
      <trkpt lat="45.75854" lon="6.227">
        <ele>612</ele>
        <time>2011-11-01T08:37:20Z</time>
      </trkpt>
      <trkpt lat="45.75841" lon="6.22705">
        <ele>613</ele>
        <time>2011-11-01T08:37:25Z</time>
      </trkpt>
      <trkpt lat="45.75826" lon="6.22714">
        <ele>617</ele>
        <time>2011-11-01T08:37:31Z</time>
      </trkpt>
      <trkpt lat="45.75814" lon="6.2272">
        <ele>617</ele>
        <time>2011-11-01T08:37:35Z</time>
      </trkpt>
      <trkpt lat="45.758" lon="6.22726">
        <ele>618</ele>
        <time>2011-11-01T08:37:40Z</time>
      </trkpt>
      <trkpt lat="45.75785" lon="6.22729">
        <ele>618</ele>
        <time>2011-11-01T08:37:45Z</time>
      </trkpt>
      <trkpt lat="45.75785" lon="6.22736">
        <ele>618</ele>
        <time>2011-11-01T08:37:48Z</time>
      </trkpt>
      <trkpt lat="45.75789" lon="6.22747">
        <ele>619</ele>
        <time>2011-11-01T08:37:53Z</time>
      </trkpt>
      <trkpt lat="45.75766" lon="6.22737">
        <ele>619</ele>
        <time>2011-11-01T08:37:58Z</time>
      </trkpt>
      <trkpt lat="45.75763" lon="6.22736">
        <ele>619</ele>
        <time>2011-11-01T08:37:59Z</time>
      </trkpt>
      <trkpt lat="45.7574" lon="6.22734">
        <ele>622</ele>
        <time>2011-11-01T08:38:06Z</time>
      </trkpt>
      <trkpt lat="45.75722" lon="6.22737">
        <ele>622</ele>
        <time>2011-11-01T08:38:12Z</time>
      </trkpt>
      <trkpt lat="45.75708" lon="6.22736">
        <ele>623</ele>
        <time>2011-11-01T08:38:19Z</time>
      </trkpt>
      <trkpt lat="45.75695" lon="6.22738">
        <ele>624</ele>
        <time>2011-11-01T08:38:26Z</time>
      </trkpt>
      <trkpt lat="45.75683" lon="6.22741">
        <ele>626</ele>
        <time>2011-11-01T08:38:33Z</time>
      </trkpt>
      <trkpt lat="45.75672" lon="6.22744">
        <ele>628</ele>
        <time>2011-11-01T08:38:40Z</time>
      </trkpt>
      <trkpt lat="45.7566" lon="6.22742">
        <ele>631</ele>
        <time>2011-11-01T08:38:47Z</time>
      </trkpt>
      <trkpt lat="45.75653" lon="6.22741">
        <ele>631</ele>
        <time>2011-11-01T08:38:52Z</time>
      </trkpt>
      <trkpt lat="45.75646" lon="6.22742">
        <ele>631</ele>
        <time>2011-11-01T08:38:58Z</time>
      </trkpt>
      <trkpt lat="45.75636" lon="6.22744">
        <ele>632</ele>
        <time>2011-11-01T08:39:05Z</time>
      </trkpt>
      <trkpt lat="45.75625" lon="6.2275">
        <ele>633</ele>
        <time>2011-11-01T08:39:13Z</time>
      </trkpt>
      <trkpt lat="45.75613" lon="6.22752">
        <ele>643</ele>
        <time>2011-11-01T08:39:21Z</time>
      </trkpt>
      <trkpt lat="45.75598" lon="6.22751">
        <ele>642</ele>
        <time>2011-11-01T08:39:28Z</time>
      </trkpt>
      <trkpt lat="45.7558" lon="6.22747">
        <ele>641</ele>
        <time>2011-11-01T08:39:37Z</time>
      </trkpt>
      <trkpt lat="45.75576" lon="6.22747">
        <ele>641</ele>
        <time>2011-11-01T08:39:40Z</time>
      </trkpt>
      <trkpt lat="45.75562" lon="6.22745">
        <ele>643</ele>
        <time>2011-11-01T08:39:49Z</time>
      </trkpt>
      <trkpt lat="45.75546" lon="6.22744">
        <ele>644</ele>
        <time>2011-11-01T08:39:58Z</time>
      </trkpt>
      <trkpt lat="45.75535" lon="6.22745">
        <ele>646</ele>
        <time>2011-11-01T08:40:05Z</time>
      </trkpt>
      <trkpt lat="45.75528" lon="6.22746">
        <ele>647</ele>
        <time>2011-11-01T08:40:09Z</time>
      </trkpt>
      <trkpt lat="45.7552" lon="6.22745">
        <ele>648</ele>
        <time>2011-11-01T08:40:16Z</time>
      </trkpt>
      <trkpt lat="45.75513" lon="6.22743">
        <ele>649</ele>
        <time>2011-11-01T08:40:22Z</time>
      </trkpt>
      <trkpt lat="45.75505" lon="6.22741">
        <ele>651</ele>
        <time>2011-11-01T08:40:28Z</time>
      </trkpt>
      <trkpt lat="45.75495" lon="6.22736">
        <ele>655</ele>
        <time>2011-11-01T08:40:35Z</time>
      </trkpt>
      <trkpt lat="45.7548" lon="6.22732">
        <ele>656</ele>
        <time>2011-11-01T08:40:43Z</time>
      </trkpt>
      <trkpt lat="45.75476" lon="6.2273">
        <ele>656</ele>
        <time>2011-11-01T08:40:48Z</time>
      </trkpt>
      <trkpt lat="45.7547" lon="6.22727">
        <ele>657</ele>
        <time>2011-11-01T08:40:54Z</time>
      </trkpt>
      <trkpt lat="45.75462" lon="6.22722">
        <ele>657</ele>
        <time>2011-11-01T08:41:01Z</time>
      </trkpt>
      <trkpt lat="45.75454" lon="6.22714">
        <ele>658</ele>
        <time>2011-11-01T08:41:09Z</time>
      </trkpt>
      <trkpt lat="45.75447" lon="6.22708">
        <ele>658</ele>
        <time>2011-11-01T08:41:14Z</time>
      </trkpt>
      <trkpt lat="45.75439" lon="6.227">
        <ele>658</ele>
        <time>2011-11-01T08:41:20Z</time>
      </trkpt>
      <trkpt lat="45.7543" lon="6.22689">
        <ele>658</ele>
        <time>2011-11-01T08:41:27Z</time>
      </trkpt>
      <trkpt lat="45.75412" lon="6.22677">
        <ele>665</ele>
        <time>2011-11-01T08:41:35Z</time>
      </trkpt>
      <trkpt lat="45.75402" lon="6.22671">
        <ele>667</ele>
        <time>2011-11-01T08:41:43Z</time>
      </trkpt>
      <trkpt lat="45.75394" lon="6.22666">
        <ele>659</ele>
        <time>2011-11-01T08:41:50Z</time>
      </trkpt>
      <trkpt lat="45.75382" lon="6.22662">
        <ele>660</ele>
        <time>2011-11-01T08:41:57Z</time>
      </trkpt>
      <trkpt lat="45.75371" lon="6.22661">
        <ele>662</ele>
        <time>2011-11-01T08:42:05Z</time>
      </trkpt>
      <trkpt lat="45.75364" lon="6.22667">
        <ele>676</ele>
        <time>2011-11-01T08:42:11Z</time>
      </trkpt>
      <trkpt lat="45.75353" lon="6.22675">
        <ele>677</ele>
        <time>2011-11-01T08:42:18Z</time>
      </trkpt>
      <trkpt lat="45.75338" lon="6.22675">
        <ele>679</ele>
        <time>2011-11-01T08:42:27Z</time>
      </trkpt>
      <trkpt lat="45.75338" lon="6.22674">
        <ele>679</ele>
        <time>2011-11-01T08:42:28Z</time>
      </trkpt>
      <trkpt lat="45.75337" lon="6.22671">
        <ele>679</ele>
        <time>2011-11-01T08:42:32Z</time>
      </trkpt>
      <trkpt lat="45.75346" lon="6.22667">
        <ele>671</ele>
        <time>2011-11-01T08:42:38Z</time>
      </trkpt>
      <trkpt lat="45.75353" lon="6.22665">
        <ele>667</ele>
        <time>2011-11-01T08:42:42Z</time>
      </trkpt>
      <trkpt lat="45.7535" lon="6.22666">
        <ele>669</ele>
        <time>2011-11-01T08:42:48Z</time>
      </trkpt>
      <trkpt lat="45.75349" lon="6.22667">
        <ele>678</ele>
        <time>2011-11-01T08:42:49Z</time>
      </trkpt>
      <trkpt lat="45.75338" lon="6.22672">
        <ele>679</ele>
        <time>2011-11-01T08:42:57Z</time>
      </trkpt>
      <trkpt lat="45.75328" lon="6.22676">
        <ele>685</ele>
        <time>2011-11-01T08:43:04Z</time>
      </trkpt>
      <trkpt lat="45.75324" lon="6.22681">
        <ele>688</ele>
        <time>2011-11-01T08:43:08Z</time>
      </trkpt>
      <trkpt lat="45.75319" lon="6.2269">
        <ele>692</ele>
        <time>2011-11-01T08:43:15Z</time>
      </trkpt>
      <trkpt lat="45.75308" lon="6.22695">
        <ele>694</ele>
        <time>2011-11-01T08:43:21Z</time>
      </trkpt>
      <trkpt lat="45.7529" lon="6.22697">
        <ele>696</ele>
        <time>2011-11-01T08:43:29Z</time>
      </trkpt>
      <trkpt lat="45.75279" lon="6.22697">
        <ele>697</ele>
        <time>2011-11-01T08:43:35Z</time>
      </trkpt>
      <trkpt lat="45.75277" lon="6.22698">
        <ele>697</ele>
        <time>2011-11-01T08:43:37Z</time>
      </trkpt>
      <trkpt lat="45.75274" lon="6.22692">
        <ele>696</ele>
        <time>2011-11-01T08:43:42Z</time>
      </trkpt>
      <trkpt lat="45.75274" lon="6.22685">
        <ele>695</ele>
        <time>2011-11-01T08:43:49Z</time>
      </trkpt>
      <trkpt lat="45.75268" lon="6.22659">
        <ele>679</ele>
        <time>2011-11-01T08:43:57Z</time>
      </trkpt>
      <trkpt lat="45.75263" lon="6.22651">
        <ele>678</ele>
        <time>2011-11-01T08:43:59Z</time>
      </trkpt>
      <trkpt lat="45.75253" lon="6.22652">
        <ele>680</ele>
        <time>2011-11-01T08:44:05Z</time>
      </trkpt>
      <trkpt lat="45.75245" lon="6.22653">
        <ele>682</ele>
        <time>2011-11-01T08:44:07Z</time>
      </trkpt>
      <trkpt lat="45.75226" lon="6.22648">
        <ele>679</ele>
        <time>2011-11-01T08:44:13Z</time>
      </trkpt>
      <trkpt lat="45.75214" lon="6.22647">
        <ele>679</ele>
        <time>2011-11-01T08:44:17Z</time>
      </trkpt>
      <trkpt lat="45.75208" lon="6.22643">
        <ele>678</ele>
        <time>2011-11-01T08:44:20Z</time>
      </trkpt>
      <trkpt lat="45.75207" lon="6.2264">
        <ele>678</ele>
        <time>2011-11-01T08:44:24Z</time>
      </trkpt>
      <trkpt lat="45.75187" lon="6.2263">
        <ele>677</ele>
        <time>2011-11-01T08:44:30Z</time>
      </trkpt>
      <trkpt lat="45.75169" lon="6.22625">
        <ele>676</ele>
        <time>2011-11-01T08:44:35Z</time>
      </trkpt>
      <trkpt lat="45.75161" lon="6.2262">
        <ele>677</ele>
        <time>2011-11-01T08:44:39Z</time>
      </trkpt>
      <trkpt lat="45.75157" lon="6.22614">
        <ele>676</ele>
        <time>2011-11-01T08:44:42Z</time>
      </trkpt>
      <trkpt lat="45.7515" lon="6.22602">
        <ele>674</ele>
        <time>2011-11-01T08:44:47Z</time>
      </trkpt>
      <trkpt lat="45.75135" lon="6.22588">
        <ele>674</ele>
        <time>2011-11-01T08:44:52Z</time>
      </trkpt>
      <trkpt lat="45.75123" lon="6.22584">
        <ele>675</ele>
        <time>2011-11-01T08:44:56Z</time>
      </trkpt>
      <trkpt lat="45.75107" lon="6.22581">
        <ele>662</ele>
        <time>2011-11-01T08:45:01Z</time>
      </trkpt>
      <trkpt lat="45.7509" lon="6.22575">
        <ele>666</ele>
        <time>2011-11-01T08:45:06Z</time>
      </trkpt>
      <trkpt lat="45.75075" lon="6.22565">
        <ele>665</ele>
        <time>2011-11-01T08:45:12Z</time>
      </trkpt>
      <trkpt lat="45.75065" lon="6.22564">
        <ele>664</ele>
        <time>2011-11-01T08:45:17Z</time>
      </trkpt>
      <trkpt lat="45.75052" lon="6.22561">
        <ele>664</ele>
        <time>2011-11-01T08:45:22Z</time>
      </trkpt>
      <trkpt lat="45.75033" lon="6.22556">
        <ele>663</ele>
        <time>2011-11-01T08:45:29Z</time>
      </trkpt>
      <trkpt lat="45.75021" lon="6.22555">
        <ele>664</ele>
        <time>2011-11-01T08:45:34Z</time>
      </trkpt>
      <trkpt lat="45.75015" lon="6.22555">
        <ele>664</ele>
        <time>2011-11-01T08:45:39Z</time>
      </trkpt>
      <trkpt lat="45.75011" lon="6.22557">
        <ele>665</ele>
        <time>2011-11-01T08:45:45Z</time>
      </trkpt>
      <trkpt lat="45.74995" lon="6.22557">
        <ele>667</ele>
        <time>2011-11-01T08:45:53Z</time>
      </trkpt>
      <trkpt lat="45.74989" lon="6.22559">
        <ele>667</ele>
        <time>2011-11-01T08:45:59Z</time>
      </trkpt>
      <trkpt lat="45.74977" lon="6.22553">
        <ele>666</ele>
        <time>2011-11-01T08:46:06Z</time>
      </trkpt>
      <trkpt lat="45.74962" lon="6.2255">
        <ele>665</ele>
        <time>2011-11-01T08:46:12Z</time>
      </trkpt>
      <trkpt lat="45.74952" lon="6.22551">
        <ele>666</ele>
        <time>2011-11-01T08:46:16Z</time>
      </trkpt>
      <trkpt lat="45.74922" lon="6.22546">
        <ele>666</ele>
        <time>2011-11-01T08:46:24Z</time>
      </trkpt>
      <trkpt lat="45.74912" lon="6.22549">
        <ele>667</ele>
        <time>2011-11-01T08:46:28Z</time>
      </trkpt>
      <trkpt lat="45.74902" lon="6.22546">
        <ele>666</ele>
        <time>2011-11-01T08:46:33Z</time>
      </trkpt>
      <trkpt lat="45.74885" lon="6.22544">
        <ele>665</ele>
        <time>2011-11-01T08:46:40Z</time>
      </trkpt>
      <trkpt lat="45.74876" lon="6.22542">
        <ele>665</ele>
        <time>2011-11-01T08:46:43Z</time>
      </trkpt>
      <trkpt lat="45.74855" lon="6.22536">
        <ele>663</ele>
        <time>2011-11-01T08:46:51Z</time>
      </trkpt>
      <trkpt lat="45.74843" lon="6.22541">
        <ele>664</ele>
        <time>2011-11-01T08:46:58Z</time>
      </trkpt>
      <trkpt lat="45.74836" lon="6.22551">
        <ele>667</ele>
        <time>2011-11-01T08:47:04Z</time>
      </trkpt>
      <trkpt lat="45.74828" lon="6.22557">
        <ele>666</ele>
        <time>2011-11-01T08:47:10Z</time>
      </trkpt>
      <trkpt lat="45.74822" lon="6.22563">
        <ele>667</ele>
        <time>2011-11-01T08:47:14Z</time>
      </trkpt>
      <trkpt lat="45.7481" lon="6.22574">
        <ele>667</ele>
        <time>2011-11-01T08:47:21Z</time>
      </trkpt>
      <trkpt lat="45.74799" lon="6.22582">
        <ele>666</ele>
        <time>2011-11-01T08:47:27Z</time>
      </trkpt>
      <trkpt lat="45.74788" lon="6.22589">
        <ele>684</ele>
        <time>2011-11-01T08:47:34Z</time>
      </trkpt>
      <trkpt lat="45.74777" lon="6.226">
        <ele>684</ele>
        <time>2011-11-01T08:47:41Z</time>
      </trkpt>
      <trkpt lat="45.74766" lon="6.22604">
        <ele>684</ele>
        <time>2011-11-01T08:47:48Z</time>
      </trkpt>
      <trkpt lat="45.74747" lon="6.226">
        <ele>679</ele>
        <time>2011-11-01T08:47:56Z</time>
      </trkpt>
      <trkpt lat="45.74734" lon="6.226">
        <ele>681</ele>
        <time>2011-11-01T08:48:03Z</time>
      </trkpt>
      <trkpt lat="45.74718" lon="6.22603">
        <ele>683</ele>
        <time>2011-11-01T08:48:09Z</time>
      </trkpt>
      <trkpt lat="45.74704" lon="6.22607">
        <ele>685</ele>
        <time>2011-11-01T08:48:14Z</time>
      </trkpt>
      <trkpt lat="45.74699" lon="6.22607">
        <ele>685</ele>
        <time>2011-11-01T08:48:19Z</time>
      </trkpt>
      <trkpt lat="45.74694" lon="6.22608">
        <ele>685</ele>
        <time>2011-11-01T08:48:24Z</time>
      </trkpt>
      <trkpt lat="45.74688" lon="6.22611">
        <ele>685</ele>
        <time>2011-11-01T08:48:30Z</time>
      </trkpt>
      <trkpt lat="45.74671" lon="6.22614">
        <ele>685</ele>
        <time>2011-11-01T08:48:38Z</time>
      </trkpt>
      <trkpt lat="45.74665" lon="6.22616">
        <ele>689</ele>
        <time>2011-11-01T08:48:44Z</time>
      </trkpt>
      <trkpt lat="45.74659" lon="6.22619">
        <ele>690</ele>
        <time>2011-11-01T08:48:48Z</time>
      </trkpt>
      <trkpt lat="45.74656" lon="6.22625">
        <ele>692</ele>
        <time>2011-11-01T08:48:52Z</time>
      </trkpt>
      <trkpt lat="45.7464" lon="6.22624">
        <ele>693</ele>
        <time>2011-11-01T08:48:58Z</time>
      </trkpt>
      <trkpt lat="45.74617" lon="6.22624">
        <ele>694</ele>
        <time>2011-11-01T08:49:06Z</time>
      </trkpt>
      <trkpt lat="45.74606" lon="6.2263">
        <ele>696</ele>
        <time>2011-11-01T08:49:14Z</time>
      </trkpt>
      <trkpt lat="45.7459" lon="6.22624">
        <ele>695</ele>
        <time>2011-11-01T08:49:21Z</time>
      </trkpt>
      <trkpt lat="45.74577" lon="6.22626">
        <ele>702</ele>
        <time>2011-11-01T08:49:28Z</time>
      </trkpt>
      <trkpt lat="45.74567" lon="6.22629">
        <ele>702</ele>
        <time>2011-11-01T08:49:35Z</time>
      </trkpt>
      <trkpt lat="45.74556" lon="6.22628">
        <ele>703</ele>
        <time>2011-11-01T08:49:43Z</time>
      </trkpt>
      <trkpt lat="45.74551" lon="6.22629">
        <ele>703</ele>
        <time>2011-11-01T08:49:47Z</time>
      </trkpt>
      <trkpt lat="45.74543" lon="6.22633">
        <ele>704</ele>
        <time>2011-11-01T08:49:54Z</time>
      </trkpt>
      <trkpt lat="45.74529" lon="6.22634">
        <ele>705</ele>
        <time>2011-11-01T08:50:01Z</time>
      </trkpt>
      <trkpt lat="45.74519" lon="6.22633">
        <ele>706</ele>
        <time>2011-11-01T08:50:15Z</time>
      </trkpt>
      <trkpt lat="45.74509" lon="6.22638">
        <ele>708</ele>
        <time>2011-11-01T08:50:23Z</time>
      </trkpt>
      <trkpt lat="45.74505" lon="6.22637">
        <ele>708</ele>
        <time>2011-11-01T08:50:29Z</time>
      </trkpt>
      <trkpt lat="45.74499" lon="6.22636">
        <ele>713</ele>
        <time>2011-11-01T08:50:34Z</time>
      </trkpt>
      <trkpt lat="45.74485" lon="6.22629">
        <ele>711</ele>
        <time>2011-11-01T08:50:40Z</time>
      </trkpt>
      <trkpt lat="45.74478" lon="6.22627">
        <ele>711</ele>
        <time>2011-11-01T08:50:46Z</time>
      </trkpt>
      <trkpt lat="45.74472" lon="6.22624">
        <ele>710</ele>
        <time>2011-11-01T08:50:58Z</time>
      </trkpt>
      <trkpt lat="45.74468" lon="6.22622">
        <ele>710</ele>
        <time>2011-11-01T08:51:01Z</time>
      </trkpt>
      <trkpt lat="45.74461" lon="6.22621">
        <ele>710</ele>
        <time>2011-11-01T08:51:05Z</time>
      </trkpt>
      <trkpt lat="45.74443" lon="6.22617">
        <ele>710</ele>
        <time>2011-11-01T08:51:15Z</time>
      </trkpt>
      <trkpt lat="45.74424" lon="6.22617">
        <ele>710</ele>
        <time>2011-11-01T08:51:23Z</time>
      </trkpt>
      <trkpt lat="45.74403" lon="6.22615">
        <ele>714</ele>
        <time>2011-11-01T08:51:31Z</time>
      </trkpt>
      <trkpt lat="45.74397" lon="6.22613">
        <ele>714</ele>
        <time>2011-11-01T08:51:36Z</time>
      </trkpt>
      <trkpt lat="45.74392" lon="6.22613">
        <ele>715</ele>
        <time>2011-11-01T08:51:41Z</time>
      </trkpt>
      <trkpt lat="45.74387" lon="6.22618">
        <ele>716</ele>
        <time>2011-11-01T08:51:46Z</time>
      </trkpt>
      <trkpt lat="45.74379" lon="6.22619">
        <ele>717</ele>
        <time>2011-11-01T08:51:50Z</time>
      </trkpt>
      <trkpt lat="45.74358" lon="6.2262">
        <ele>717</ele>
        <time>2011-11-01T08:51:57Z</time>
      </trkpt>
      <trkpt lat="45.7434" lon="6.22622">
        <ele>718</ele>
        <time>2011-11-01T08:52:04Z</time>
      </trkpt>
      <trkpt lat="45.74327" lon="6.22623">
        <ele>728</ele>
        <time>2011-11-01T08:52:11Z</time>
      </trkpt>
      <trkpt lat="45.74319" lon="6.22619">
        <ele>727</ele>
        <time>2011-11-01T08:52:19Z</time>
      </trkpt>
      <trkpt lat="45.74316" lon="6.22616">
        <ele>727</ele>
        <time>2011-11-01T08:52:23Z</time>
      </trkpt>
      <trkpt lat="45.74303" lon="6.22608">
        <ele>727</ele>
        <time>2011-11-01T08:52:31Z</time>
      </trkpt>
      <trkpt lat="45.74279" lon="6.22594">
        <ele>730</ele>
        <time>2011-11-01T08:52:41Z</time>
      </trkpt>
      <trkpt lat="45.74263" lon="6.22585">
        <ele>731</ele>
        <time>2011-11-01T08:52:48Z</time>
      </trkpt>
      <trkpt lat="45.74245" lon="6.22575">
        <ele>730</ele>
        <time>2011-11-01T08:52:54Z</time>
      </trkpt>
      <trkpt lat="45.74232" lon="6.22565">
        <ele>730</ele>
        <time>2011-11-01T08:53:01Z</time>
      </trkpt>
      <trkpt lat="45.74224" lon="6.22559">
        <ele>730</ele>
        <time>2011-11-01T08:53:06Z</time>
      </trkpt>
      <trkpt lat="45.74214" lon="6.22555">
        <ele>730</ele>
        <time>2011-11-01T08:53:13Z</time>
      </trkpt>
      <trkpt lat="45.74203" lon="6.2255">
        <ele>731</ele>
        <time>2011-11-01T08:53:19Z</time>
      </trkpt>
      <trkpt lat="45.74199" lon="6.22547">
        <ele>731</ele>
        <time>2011-11-01T08:53:23Z</time>
      </trkpt>
      <trkpt lat="45.74183" lon="6.22543">
        <ele>732</ele>
        <time>2011-11-01T08:53:31Z</time>
      </trkpt>
      <trkpt lat="45.7418" lon="6.2254">
        <ele>732</ele>
        <time>2011-11-01T08:53:37Z</time>
      </trkpt>
      <trkpt lat="45.74173" lon="6.22539">
        <ele>732</ele>
        <time>2011-11-01T08:55:25Z</time>
      </trkpt>
      <trkpt lat="45.74166" lon="6.22534">
        <ele>736</ele>
        <time>2011-11-01T08:55:30Z</time>
      </trkpt>
      <trkpt lat="45.74156" lon="6.22528">
        <ele>734</ele>
        <time>2011-11-01T08:55:36Z</time>
      </trkpt>
      <trkpt lat="45.74148" lon="6.22525">
        <ele>734</ele>
        <time>2011-11-01T08:55:41Z</time>
      </trkpt>
      <trkpt lat="45.74134" lon="6.22523">
        <ele>734</ele>
        <time>2011-11-01T08:55:48Z</time>
      </trkpt>
      <trkpt lat="45.74126" lon="6.22523">
        <ele>734</ele>
        <time>2011-11-01T08:55:52Z</time>
      </trkpt>
      <trkpt lat="45.74109" lon="6.2253">
        <ele>735</ele>
        <time>2011-11-01T08:55:59Z</time>
      </trkpt>
      <trkpt lat="45.74089" lon="6.22537">
        <ele>735</ele>
        <time>2011-11-01T08:56:06Z</time>
      </trkpt>
      <trkpt lat="45.7407" lon="6.22553">
        <ele>738</ele>
        <time>2011-11-01T08:56:13Z</time>
      </trkpt>
      <trkpt lat="45.74057" lon="6.22562">
        <ele>739</ele>
        <time>2011-11-01T08:56:19Z</time>
      </trkpt>
      <trkpt lat="45.74044" lon="6.22568">
        <ele>739</ele>
        <time>2011-11-01T08:56:24Z</time>
      </trkpt>
      <trkpt lat="45.74031" lon="6.22573">
        <ele>740</ele>
        <time>2011-11-01T08:56:29Z</time>
      </trkpt>
      <trkpt lat="45.74019" lon="6.22577">
        <ele>742</ele>
        <time>2011-11-01T08:56:34Z</time>
      </trkpt>
      <trkpt lat="45.74007" lon="6.22581">
        <ele>745</ele>
        <time>2011-11-01T08:56:39Z</time>
      </trkpt>
      <trkpt lat="45.73996" lon="6.22582">
        <ele>747</ele>
        <time>2011-11-01T08:56:45Z</time>
      </trkpt>
      <trkpt lat="45.73984" lon="6.2258">
        <ele>746</ele>
        <time>2011-11-01T08:56:49Z</time>
      </trkpt>
      <trkpt lat="45.7397" lon="6.22575">
        <ele>746</ele>
        <time>2011-11-01T08:56:55Z</time>
      </trkpt>
      <trkpt lat="45.73961" lon="6.22571">
        <ele>746</ele>
        <time>2011-11-01T08:57:00Z</time>
      </trkpt>
      <trkpt lat="45.73946" lon="6.22565">
        <ele>747</ele>
        <time>2011-11-01T08:57:06Z</time>
      </trkpt>
      <trkpt lat="45.73932" lon="6.22561">
        <ele>749</ele>
        <time>2011-11-01T08:57:13Z</time>
      </trkpt>
      <trkpt lat="45.73918" lon="6.22555">
        <ele>749</ele>
        <time>2011-11-01T08:57:18Z</time>
      </trkpt>
      <trkpt lat="45.73908" lon="6.22551">
        <ele>752</ele>
        <time>2011-11-01T08:57:24Z</time>
      </trkpt>
      <trkpt lat="45.739" lon="6.22543">
        <ele>750</ele>
        <time>2011-11-01T08:57:30Z</time>
      </trkpt>
      <trkpt lat="45.73884" lon="6.22534">
        <ele>749</ele>
        <time>2011-11-01T08:57:36Z</time>
      </trkpt>
      <trkpt lat="45.73871" lon="6.22538">
        <ele>750</ele>
        <time>2011-11-01T08:57:43Z</time>
      </trkpt>
      <trkpt lat="45.73856" lon="6.22544">
        <ele>751</ele>
        <time>2011-11-01T08:57:52Z</time>
      </trkpt>
      <trkpt lat="45.7384" lon="6.22544">
        <ele>752</ele>
        <time>2011-11-01T08:57:59Z</time>
      </trkpt>
      <trkpt lat="45.7383" lon="6.22545">
        <ele>750</ele>
        <time>2011-11-01T08:58:05Z</time>
      </trkpt>
      <trkpt lat="45.73819" lon="6.22548">
        <ele>751</ele>
        <time>2011-11-01T08:58:11Z</time>
      </trkpt>
      <trkpt lat="45.73812" lon="6.22554">
        <ele>752</ele>
        <time>2011-11-01T08:58:16Z</time>
      </trkpt>
      <trkpt lat="45.73803" lon="6.22562">
        <ele>752</ele>
        <time>2011-11-01T08:58:23Z</time>
      </trkpt>
      <trkpt lat="45.7379" lon="6.22564">
        <ele>751</ele>
        <time>2011-11-01T08:58:29Z</time>
      </trkpt>
      <trkpt lat="45.73783" lon="6.22572">
        <ele>751</ele>
        <time>2011-11-01T08:58:33Z</time>
      </trkpt>
      <trkpt lat="45.73769" lon="6.22585">
        <ele>768</ele>
        <time>2011-11-01T08:58:40Z</time>
      </trkpt>
      <trkpt lat="45.73761" lon="6.22598">
        <ele>768</ele>
        <time>2011-11-01T08:58:46Z</time>
      </trkpt>
      <trkpt lat="45.73756" lon="6.22607">
        <ele>771</ele>
        <time>2011-11-01T08:58:51Z</time>
      </trkpt>
      <trkpt lat="45.73748" lon="6.2261">
        <ele>770</ele>
        <time>2011-11-01T08:58:56Z</time>
      </trkpt>
      <trkpt lat="45.73733" lon="6.22613">
        <ele>772</ele>
        <time>2011-11-01T08:59:04Z</time>
      </trkpt>
      <trkpt lat="45.73722" lon="6.22616">
        <ele>774</ele>
        <time>2011-11-01T08:59:10Z</time>
      </trkpt>
      <trkpt lat="45.73706" lon="6.2262">
        <ele>776</ele>
        <time>2011-11-01T08:59:18Z</time>
      </trkpt>
      <trkpt lat="45.73696" lon="6.22624">
        <ele>777</ele>
        <time>2011-11-01T08:59:25Z</time>
      </trkpt>
      <trkpt lat="45.73687" lon="6.22623">
        <ele>777</ele>
        <time>2011-11-01T08:59:30Z</time>
      </trkpt>
      <trkpt lat="45.73676" lon="6.22624">
        <ele>777</ele>
        <time>2011-11-01T08:59:37Z</time>
      </trkpt>
      <trkpt lat="45.73662" lon="6.22622">
        <ele>782</ele>
        <time>2011-11-01T08:59:45Z</time>
      </trkpt>
      <trkpt lat="45.73655" lon="6.22624">
        <ele>783</ele>
        <time>2011-11-01T08:59:53Z</time>
      </trkpt>
      <trkpt lat="45.7365" lon="6.22622">
        <ele>783</ele>
        <time>2011-11-01T08:59:59Z</time>
      </trkpt>
      <trkpt lat="45.73647" lon="6.22617">
        <ele>781</ele>
        <time>2011-11-01T09:00:11Z</time>
      </trkpt>
      <trkpt lat="45.73644" lon="6.22617">
        <ele>782</ele>
        <time>2011-11-01T09:00:15Z</time>
      </trkpt>
      <trkpt lat="45.7364" lon="6.22621">
        <ele>783</ele>
        <time>2011-11-01T09:00:20Z</time>
      </trkpt>
      <trkpt lat="45.73632" lon="6.22622">
        <ele>784</ele>
        <time>2011-11-01T09:00:29Z</time>
      </trkpt>
      <trkpt lat="45.73624" lon="6.22622">
        <ele>785</ele>
        <time>2011-11-01T09:00:34Z</time>
      </trkpt>
      <trkpt lat="45.7362" lon="6.22621">
        <ele>785</ele>
        <time>2011-11-01T09:00:40Z</time>
      </trkpt>
      <trkpt lat="45.73619" lon="6.22621">
        <ele>785</ele>
        <time>2011-11-01T09:00:48Z</time>
      </trkpt>
      <trkpt lat="45.73617" lon="6.22623">
        <ele>785</ele>
        <time>2011-11-01T09:00:52Z</time>
      </trkpt>
      <trkpt lat="45.7361" lon="6.22626">
        <ele>787</ele>
        <time>2011-11-01T09:00:57Z</time>
      </trkpt>
      <trkpt lat="45.736" lon="6.22623">
        <ele>787</ele>
        <time>2011-11-01T09:01:02Z</time>
      </trkpt>
      <trkpt lat="45.73587" lon="6.22618">
        <ele>785</ele>
        <time>2011-11-01T09:01:07Z</time>
      </trkpt>
      <trkpt lat="45.73569" lon="6.22617">
        <ele>791</ele>
        <time>2011-11-01T09:01:13Z</time>
      </trkpt>
      <trkpt lat="45.73566" lon="6.22617">
        <ele>791</ele>
        <time>2011-11-01T09:01:14Z</time>
      </trkpt>
      <trkpt lat="45.7355" lon="6.22608">
        <ele>790</ele>
        <time>2011-11-01T09:01:21Z</time>
      </trkpt>
      <trkpt lat="45.73542" lon="6.2261">
        <ele>791</ele>
        <time>2011-11-01T09:01:27Z</time>
      </trkpt>
      <trkpt lat="45.73537" lon="6.2261">
        <ele>791</ele>
        <time>2011-11-01T09:01:30Z</time>
      </trkpt>
      <trkpt lat="45.73536" lon="6.22611">
        <ele>791</ele>
        <time>2011-11-01T09:01:32Z</time>
      </trkpt>
      <trkpt lat="45.73522" lon="6.22612">
        <ele>791</ele>
        <time>2011-11-01T09:01:39Z</time>
      </trkpt>
      <trkpt lat="45.7351" lon="6.22617">
        <ele>792</ele>
        <time>2011-11-01T09:01:45Z</time>
      </trkpt>
      <trkpt lat="45.73499" lon="6.2262">
        <ele>793</ele>
        <time>2011-11-01T09:01:51Z</time>
      </trkpt>
      <trkpt lat="45.73489" lon="6.22619">
        <ele>793</ele>
        <time>2011-11-01T09:01:56Z</time>
      </trkpt>
      <trkpt lat="45.73472" lon="6.22611">
        <ele>792</ele>
        <time>2011-11-01T09:02:02Z</time>
      </trkpt>
      <trkpt lat="45.73467" lon="6.22611">
        <ele>792</ele>
        <time>2011-11-01T09:02:04Z</time>
      </trkpt>
      <trkpt lat="45.73451" lon="6.22604">
        <ele>791</ele>
        <time>2011-11-01T09:02:09Z</time>
      </trkpt>
      <trkpt lat="45.73433" lon="6.22599">
        <ele>788</ele>
        <time>2011-11-01T09:02:14Z</time>
      </trkpt>
      <trkpt lat="45.7342" lon="6.22593">
        <ele>785</ele>
        <time>2011-11-01T09:02:19Z</time>
      </trkpt>
      <trkpt lat="45.73418" lon="6.22592">
        <ele>784</ele>
        <time>2011-11-01T09:02:20Z</time>
      </trkpt>
      <trkpt lat="45.73399" lon="6.22604">
        <ele>788</ele>
        <time>2011-11-01T09:02:25Z</time>
      </trkpt>
      <trkpt lat="45.73382" lon="6.22606">
        <ele>789</ele>
        <time>2011-11-01T09:02:29Z</time>
      </trkpt>
      <trkpt lat="45.7337" lon="6.22612">
        <ele>789</ele>
        <time>2011-11-01T09:02:34Z</time>
      </trkpt>
      <trkpt lat="45.73358" lon="6.22619">
        <ele>790</ele>
        <time>2011-11-01T09:02:40Z</time>
      </trkpt>
      <trkpt lat="45.73348" lon="6.22619">
        <ele>790</ele>
        <time>2011-11-01T09:02:45Z</time>
      </trkpt>
      <trkpt lat="45.73348" lon="6.22619">
        <ele>790</ele>
        <time>2011-11-01T09:02:46Z</time>
      </trkpt>
      <trkpt lat="45.73335" lon="6.22617">
        <ele>789</ele>
        <time>2011-11-01T09:02:53Z</time>
      </trkpt>
      <trkpt lat="45.73325" lon="6.22619">
        <ele>792</ele>
        <time>2011-11-01T09:02:58Z</time>
      </trkpt>
      <trkpt lat="45.7331" lon="6.22616">
        <ele>792</ele>
        <time>2011-11-01T09:03:04Z</time>
      </trkpt>
      <trkpt lat="45.73291" lon="6.22611">
        <ele>793</ele>
        <time>2011-11-01T09:03:11Z</time>
      </trkpt>
      <trkpt lat="45.73278" lon="6.22606">
        <ele>793</ele>
        <time>2011-11-01T09:03:17Z</time>
      </trkpt>
      <trkpt lat="45.73269" lon="6.22605">
        <ele>793</ele>
        <time>2011-11-01T09:03:24Z</time>
      </trkpt>
      <trkpt lat="45.73262" lon="6.22604">
        <ele>792</ele>
        <time>2011-11-01T09:03:30Z</time>
      </trkpt>
      <trkpt lat="45.73261" lon="6.22603">
        <ele>792</ele>
        <time>2011-11-01T09:03:32Z</time>
      </trkpt>
      <trkpt lat="45.73251" lon="6.22601">
        <ele>791</ele>
        <time>2011-11-01T09:03:40Z</time>
      </trkpt>
      <trkpt lat="45.73238" lon="6.22598">
        <ele>798</ele>
        <time>2011-11-01T09:03:47Z</time>
      </trkpt>
      <trkpt lat="45.73229" lon="6.22595">
        <ele>800</ele>
        <time>2011-11-01T09:03:53Z</time>
      </trkpt>
      <trkpt lat="45.7322" lon="6.2259">
        <ele>802</ele>
        <time>2011-11-01T09:04:02Z</time>
      </trkpt>
      <trkpt lat="45.73212" lon="6.22588">
        <ele>803</ele>
        <time>2011-11-01T09:04:22Z</time>
      </trkpt>
      <trkpt lat="45.73207" lon="6.22588">
        <ele>804</ele>
        <time>2011-11-01T09:04:26Z</time>
      </trkpt>
      <trkpt lat="45.73198" lon="6.22588">
        <ele>805</ele>
        <time>2011-11-01T09:04:32Z</time>
      </trkpt>
      <trkpt lat="45.73184" lon="6.22588">
        <ele>805</ele>
        <time>2011-11-01T09:04:40Z</time>
      </trkpt>
      <trkpt lat="45.73174" lon="6.2259">
        <ele>805</ele>
        <time>2011-11-01T09:04:46Z</time>
      </trkpt>
      <trkpt lat="45.73162" lon="6.22593">
        <ele>809</ele>
        <time>2011-11-01T09:04:53Z</time>
      </trkpt>
      <trkpt lat="45.73153" lon="6.22593">
        <ele>811</ele>
        <time>2011-11-01T09:04:59Z</time>
      </trkpt>
      <trkpt lat="45.73147" lon="6.22592">
        <ele>813</ele>
        <time>2011-11-01T09:05:04Z</time>
      </trkpt>
      <trkpt lat="45.73147" lon="6.22594">
        <ele>813</ele>
        <time>2011-11-01T09:05:09Z</time>
      </trkpt>
      <trkpt lat="45.73144" lon="6.22596">
        <ele>814</ele>
        <time>2011-11-01T09:05:17Z</time>
      </trkpt>
      <trkpt lat="45.73139" lon="6.22595">
        <ele>814</ele>
        <time>2011-11-01T09:05:23Z</time>
      </trkpt>
      <trkpt lat="45.73135" lon="6.22592">
        <ele>814</ele>
        <time>2011-11-01T09:05:27Z</time>
      </trkpt>
      <trkpt lat="45.73129" lon="6.22587">
        <ele>815</ele>
        <time>2011-11-01T09:05:33Z</time>
      </trkpt>
      <trkpt lat="45.73122" lon="6.22585">
        <ele>815</ele>
        <time>2011-11-01T09:05:46Z</time>
      </trkpt>
      <trkpt lat="45.73115" lon="6.22587">
        <ele>815</ele>
        <time>2011-11-01T09:05:50Z</time>
      </trkpt>
      <trkpt lat="45.73102" lon="6.22584">
        <ele>814</ele>
        <time>2011-11-01T09:05:58Z</time>
      </trkpt>
      <trkpt lat="45.73094" lon="6.22587">
        <ele>812</ele>
        <time>2011-11-01T09:06:04Z</time>
      </trkpt>
      <trkpt lat="45.73086" lon="6.22602">
        <ele>815</ele>
        <time>2011-11-01T09:06:11Z</time>
      </trkpt>
      <trkpt lat="45.73086" lon="6.22604">
        <ele>816</ele>
        <time>2011-11-01T09:06:15Z</time>
      </trkpt>
      <trkpt lat="45.73082" lon="6.22609">
        <ele>823</ele>
        <time>2011-11-01T09:06:31Z</time>
      </trkpt>
      <trkpt lat="45.73066" lon="6.22613">
        <ele>826</ele>
        <time>2011-11-01T09:06:38Z</time>
      </trkpt>
      <trkpt lat="45.7305" lon="6.2261">
        <ele>827</ele>
        <time>2011-11-01T09:06:45Z</time>
      </trkpt>
      <trkpt lat="45.73038" lon="6.22606">
        <ele>828</ele>
        <time>2011-11-01T09:06:51Z</time>
      </trkpt>
      <trkpt lat="45.73017" lon="6.22602">
        <ele>829</ele>
        <time>2011-11-01T09:06:59Z</time>
      </trkpt>
      <trkpt lat="45.72992" lon="6.226">
        <ele>834</ele>
        <time>2011-11-01T09:07:09Z</time>
      </trkpt>
      <trkpt lat="45.72971" lon="6.226">
        <ele>838</ele>
        <time>2011-11-01T09:07:18Z</time>
      </trkpt>
      <trkpt lat="45.72961" lon="6.2259">
        <ele>838</ele>
        <time>2011-11-01T09:07:25Z</time>
      </trkpt>
      <trkpt lat="45.72952" lon="6.22582">
        <ele>820</ele>
        <time>2011-11-01T09:07:31Z</time>
      </trkpt>
      <trkpt lat="45.72942" lon="6.22574">
        <ele>821</ele>
        <time>2011-11-01T09:07:36Z</time>
      </trkpt>
      <trkpt lat="45.72927" lon="6.22573">
        <ele>824</ele>
        <time>2011-11-01T09:07:43Z</time>
      </trkpt>
      <trkpt lat="45.7291" lon="6.22582">
        <ele>831</ele>
        <time>2011-11-01T09:07:52Z</time>
      </trkpt>
      <trkpt lat="45.72896" lon="6.2259">
        <ele>843</ele>
        <time>2011-11-01T09:08:00Z</time>
      </trkpt>
      <trkpt lat="45.72887" lon="6.226">
        <ele>846</ele>
        <time>2011-11-01T09:08:07Z</time>
      </trkpt>
      <trkpt lat="45.72882" lon="6.226">
        <ele>846</ele>
        <time>2011-11-01T09:08:12Z</time>
      </trkpt>
      <trkpt lat="45.72875" lon="6.22596">
        <ele>846</ele>
        <time>2011-11-01T09:08:17Z</time>
      </trkpt>
      <trkpt lat="45.72874" lon="6.22597">
        <ele>846</ele>
        <time>2011-11-01T09:08:24Z</time>
      </trkpt>
      <trkpt lat="45.72874" lon="6.22599">
        <ele>847</ele>
        <time>2011-11-01T09:08:33Z</time>
      </trkpt>
      <trkpt lat="45.72879" lon="6.22601">
        <ele>847</ele>
        <time>2011-11-01T09:11:16Z</time>
      </trkpt>
      <trkpt lat="45.72876" lon="6.22598">
        <ele>846</ele>
        <time>2011-11-01T09:11:29Z</time>
      </trkpt>
      <trkpt lat="45.72863" lon="6.22592">
        <ele>846</ele>
        <time>2011-11-01T09:11:36Z</time>
      </trkpt>
      <trkpt lat="45.72852" lon="6.22594">
        <ele>846</ele>
        <time>2011-11-01T09:11:42Z</time>
      </trkpt>
      <trkpt lat="45.72836" lon="6.22598">
        <ele>845</ele>
        <time>2011-11-01T09:11:50Z</time>
      </trkpt>
      <trkpt lat="45.72822" lon="6.22596">
        <ele>850</ele>
        <time>2011-11-01T09:11:58Z</time>
      </trkpt>
      <trkpt lat="45.72816" lon="6.22596">
        <ele>851</ele>
        <time>2011-11-01T09:12:01Z</time>
      </trkpt>
      <trkpt lat="45.728" lon="6.22603">
        <ele>854</ele>
        <time>2011-11-01T09:12:10Z</time>
      </trkpt>
      <trkpt lat="45.72784" lon="6.22608">
        <ele>856</ele>
        <time>2011-11-01T09:12:18Z</time>
      </trkpt>
      <trkpt lat="45.72764" lon="6.22608">
        <ele>856</ele>
        <time>2011-11-01T09:12:28Z</time>
      </trkpt>
      <trkpt lat="45.72752" lon="6.22617">
        <ele>858</ele>
        <time>2011-11-01T09:12:35Z</time>
      </trkpt>
      <trkpt lat="45.72742" lon="6.2263">
        <ele>874</ele>
        <time>2011-11-01T09:12:42Z</time>
      </trkpt>
      <trkpt lat="45.72737" lon="6.22632">
        <ele>875</ele>
        <time>2011-11-01T09:12:47Z</time>
      </trkpt>
      <trkpt lat="45.72732" lon="6.22632">
        <ele>875</ele>
        <time>2011-11-01T09:12:53Z</time>
      </trkpt>
      <trkpt lat="45.72725" lon="6.22618">
        <ele>874</ele>
        <time>2011-11-01T09:13:01Z</time>
      </trkpt>
      <trkpt lat="45.72715" lon="6.22604">
        <ele>873</ele>
        <time>2011-11-01T09:13:07Z</time>
      </trkpt>
      <trkpt lat="45.72704" lon="6.2259">
        <ele>874</ele>
        <time>2011-11-01T09:13:14Z</time>
      </trkpt>
      <trkpt lat="45.72683" lon="6.22584">
        <ele>877</ele>
        <time>2011-11-01T09:13:23Z</time>
      </trkpt>
      <trkpt lat="45.72671" lon="6.22583">
        <ele>874</ele>
        <time>2011-11-01T09:13:30Z</time>
      </trkpt>
      <trkpt lat="45.72664" lon="6.22582">
        <ele>879</ele>
        <time>2011-11-01T09:13:36Z</time>
      </trkpt>
      <trkpt lat="45.7265" lon="6.2258">
        <ele>882</ele>
        <time>2011-11-01T09:13:43Z</time>
      </trkpt>
      <trkpt lat="45.72641" lon="6.22567">
        <ele>883</ele>
        <time>2011-11-01T09:13:51Z</time>
      </trkpt>
      <trkpt lat="45.72635" lon="6.22546">
        <ele>882</ele>
        <time>2011-11-01T09:14:00Z</time>
      </trkpt>
      <trkpt lat="45.72628" lon="6.22532">
        <ele>881</ele>
        <time>2011-11-01T09:14:07Z</time>
      </trkpt>
      <trkpt lat="45.72623" lon="6.22519">
        <ele>880</ele>
        <time>2011-11-01T09:14:13Z</time>
      </trkpt>
      <trkpt lat="45.72615" lon="6.22507">
        <ele>882</ele>
        <time>2011-11-01T09:14:20Z</time>
      </trkpt>
      <trkpt lat="45.7261" lon="6.22502">
        <ele>883</ele>
        <time>2011-11-01T09:14:26Z</time>
      </trkpt>
      <trkpt lat="45.72626" lon="6.22495">
        <ele>857</ele>
        <time>2011-11-01T09:15:02Z</time>
      </trkpt>
      <trkpt lat="45.72614" lon="6.22495">
        <ele>863</ele>
        <time>2011-11-01T09:15:23Z</time>
      </trkpt>
      <trkpt lat="45.72596" lon="6.22503">
        <ele>888</ele>
        <time>2011-11-01T09:19:58Z</time>
      </trkpt>
      <trkpt lat="45.72586" lon="6.22502">
        <ele>891</ele>
        <time>2011-11-01T09:20:05Z</time>
      </trkpt>
      <trkpt lat="45.72577" lon="6.22503">
        <ele>899</ele>
        <time>2011-11-01T09:20:12Z</time>
      </trkpt>
      <trkpt lat="45.72564" lon="6.22506">
        <ele>909</ele>
        <time>2011-11-01T09:20:19Z</time>
      </trkpt>
      <trkpt lat="45.72551" lon="6.22502">
        <ele>914</ele>
        <time>2011-11-01T09:20:26Z</time>
      </trkpt>
      <trkpt lat="45.72542" lon="6.22493">
        <ele>899</ele>
        <time>2011-11-01T09:20:33Z</time>
      </trkpt>
      <trkpt lat="45.72538" lon="6.22485">
        <ele>899</ele>
        <time>2011-11-01T09:20:39Z</time>
      </trkpt>
      <trkpt lat="45.72534" lon="6.22469">
        <ele>897</ele>
        <time>2011-11-01T09:20:46Z</time>
      </trkpt>
      <trkpt lat="45.72525" lon="6.22452">
        <ele>895</ele>
        <time>2011-11-01T09:20:54Z</time>
      </trkpt>
      <trkpt lat="45.72512" lon="6.2244">
        <ele>894</ele>
        <time>2011-11-01T09:21:03Z</time>
      </trkpt>
      <trkpt lat="45.72499" lon="6.22435">
        <ele>906</ele>
        <time>2011-11-01T09:21:12Z</time>
      </trkpt>
      <trkpt lat="45.72485" lon="6.22431">
        <ele>907</ele>
        <time>2011-11-01T09:21:20Z</time>
      </trkpt>
      <trkpt lat="45.72474" lon="6.22423">
        <ele>909</ele>
        <time>2011-11-01T09:21:28Z</time>
      </trkpt>
      <trkpt lat="45.72467" lon="6.22413">
        <ele>887</ele>
        <time>2011-11-01T09:21:35Z</time>
      </trkpt>
      <trkpt lat="45.72449" lon="6.22407">
        <ele>890</ele>
        <time>2011-11-01T09:21:43Z</time>
      </trkpt>
      <trkpt lat="45.7243" lon="6.22404">
        <ele>897</ele>
        <time>2011-11-01T09:21:52Z</time>
      </trkpt>
      <trkpt lat="45.72417" lon="6.22407">
        <ele>903</ele>
        <time>2011-11-01T09:21:59Z</time>
      </trkpt>
      <trkpt lat="45.72405" lon="6.22412">
        <ele>909</ele>
        <time>2011-11-01T09:22:06Z</time>
      </trkpt>
      <trkpt lat="45.72394" lon="6.22426">
        <ele>925</ele>
        <time>2011-11-01T09:22:14Z</time>
      </trkpt>
      <trkpt lat="45.72384" lon="6.22438">
        <ele>929</ele>
        <time>2011-11-01T09:22:22Z</time>
      </trkpt>
      <trkpt lat="45.72374" lon="6.22448">
        <ele>931</ele>
        <time>2011-11-01T09:22:29Z</time>
      </trkpt>
      <trkpt lat="45.72364" lon="6.2245">
        <ele>932</ele>
        <time>2011-11-01T09:22:36Z</time>
      </trkpt>
      <trkpt lat="45.72357" lon="6.22442">
        <ele>931</ele>
        <time>2011-11-01T09:22:42Z</time>
      </trkpt>
      <trkpt lat="45.72348" lon="6.22427">
        <ele>929</ele>
        <time>2011-11-01T09:22:50Z</time>
      </trkpt>
      <trkpt lat="45.72336" lon="6.22416">
        <ele>924</ele>
        <time>2011-11-01T09:22:57Z</time>
      </trkpt>
      <trkpt lat="45.72319" lon="6.22406">
        <ele>925</ele>
        <time>2011-11-01T09:23:06Z</time>
      </trkpt>
      <trkpt lat="45.72303" lon="6.22402">
        <ele>925</ele>
        <time>2011-11-01T09:23:12Z</time>
      </trkpt>
      <trkpt lat="45.72282" lon="6.224">
        <ele>929</ele>
        <time>2011-11-01T09:23:19Z</time>
      </trkpt>
      <trkpt lat="45.72272" lon="6.22394">
        <ele>930</ele>
        <time>2011-11-01T09:23:24Z</time>
      </trkpt>
      <trkpt lat="45.72267" lon="6.22377">
        <ele>927</ele>
        <time>2011-11-01T09:23:30Z</time>
      </trkpt>
      <trkpt lat="45.7225" lon="6.22365">
        <ele>942</ele>
        <time>2011-11-01T09:23:37Z</time>
      </trkpt>
      <trkpt lat="45.7223" lon="6.22365">
        <ele>944</ele>
        <time>2011-11-01T09:23:44Z</time>
      </trkpt>
      <trkpt lat="45.72219" lon="6.22355">
        <ele>945</ele>
        <time>2011-11-01T09:23:50Z</time>
      </trkpt>
      <trkpt lat="45.72198" lon="6.22332">
        <ele>931</ele>
        <time>2011-11-01T09:23:59Z</time>
      </trkpt>
      <trkpt lat="45.72187" lon="6.22314">
        <ele>931</ele>
        <time>2011-11-01T09:24:06Z</time>
      </trkpt>
      <trkpt lat="45.72181" lon="6.22298">
        <ele>928</ele>
        <time>2011-11-01T09:24:12Z</time>
      </trkpt>
      <trkpt lat="45.72166" lon="6.22292">
        <ele>943</ele>
        <time>2011-11-01T09:24:19Z</time>
      </trkpt>
      <trkpt lat="45.72149" lon="6.22291">
        <ele>944</ele>
        <time>2011-11-01T09:24:26Z</time>
      </trkpt>
      <trkpt lat="45.7213" lon="6.22289">
        <ele>946</ele>
        <time>2011-11-01T09:24:33Z</time>
      </trkpt>
      <trkpt lat="45.72114" lon="6.22278">
        <ele>945</ele>
        <time>2011-11-01T09:24:40Z</time>
      </trkpt>
      <trkpt lat="45.72099" lon="6.2226">
        <ele>943</ele>
        <time>2011-11-01T09:24:48Z</time>
      </trkpt>
      <trkpt lat="45.72082" lon="6.22249">
        <ele>940</ele>
        <time>2011-11-01T09:24:56Z</time>
      </trkpt>
      <trkpt lat="45.72069" lon="6.22253">
        <ele>953</ele>
        <time>2011-11-01T09:25:02Z</time>
      </trkpt>
      <trkpt lat="45.72056" lon="6.22268">
        <ele>961</ele>
        <time>2011-11-01T09:25:09Z</time>
      </trkpt>
      <trkpt lat="45.72035" lon="6.22283">
        <ele>968</ele>
        <time>2011-11-01T09:25:18Z</time>
      </trkpt>
      <trkpt lat="45.72025" lon="6.22276">
        <ele>968</ele>
        <time>2011-11-01T09:25:23Z</time>
      </trkpt>
      <trkpt lat="45.72021" lon="6.2227">
        <ele>968</ele>
        <time>2011-11-01T09:25:25Z</time>
      </trkpt>
      <trkpt lat="45.72023" lon="6.22242">
        <ele>949</ele>
        <time>2011-11-01T09:25:32Z</time>
      </trkpt>
      <trkpt lat="45.72019" lon="6.22223">
        <ele>946</ele>
        <time>2011-11-01T09:25:37Z</time>
      </trkpt>
      <trkpt lat="45.72002" lon="6.22206">
        <ele>944</ele>
        <time>2011-11-01T09:25:43Z</time>
      </trkpt>
      <trkpt lat="45.71984" lon="6.22183">
        <ele>960</ele>
        <time>2011-11-01T09:25:50Z</time>
      </trkpt>
      <trkpt lat="45.71971" lon="6.22165">
        <ele>945</ele>
        <time>2011-11-01T09:25:56Z</time>
      </trkpt>
      <trkpt lat="45.71945" lon="6.22148">
        <ele>949</ele>
        <time>2011-11-01T09:26:05Z</time>
      </trkpt>
      <trkpt lat="45.71916" lon="6.22132">
        <ele>969</ele>
        <time>2011-11-01T09:26:15Z</time>
      </trkpt>
      <trkpt lat="45.71891" lon="6.22118">
        <ele>969</ele>
        <time>2011-11-01T09:26:24Z</time>
      </trkpt>
      <trkpt lat="45.71864" lon="6.2211">
        <ele>973</ele>
        <time>2011-11-01T09:26:33Z</time>
      </trkpt>
      <trkpt lat="45.71834" lon="6.22096">
        <ele>974</ele>
        <time>2011-11-01T09:26:43Z</time>
      </trkpt>
      <trkpt lat="45.71823" lon="6.22078">
        <ele>978</ele>
        <time>2011-11-01T09:26:49Z</time>
      </trkpt>
      <trkpt lat="45.71821" lon="6.22056">
        <ele>979</ele>
        <time>2011-11-01T09:26:54Z</time>
      </trkpt>
      <trkpt lat="45.71812" lon="6.22036">
        <ele>978</ele>
        <time>2011-11-01T09:27:00Z</time>
      </trkpt>
      <trkpt lat="45.71796" lon="6.22008">
        <ele>978</ele>
        <time>2011-11-01T09:27:08Z</time>
      </trkpt>
      <trkpt lat="45.71788" lon="6.21988">
        <ele>965</ele>
        <time>2011-11-01T09:27:14Z</time>
      </trkpt>
      <trkpt lat="45.71781" lon="6.21976">
        <ele>966</ele>
        <time>2011-11-01T09:27:18Z</time>
      </trkpt>
      <trkpt lat="45.71758" lon="6.21974">
        <ele>972</ele>
        <time>2011-11-01T09:27:23Z</time>
      </trkpt>
      <trkpt lat="45.71737" lon="6.21953">
        <ele>986</ele>
        <time>2011-11-01T09:27:30Z</time>
      </trkpt>
      <trkpt lat="45.71724" lon="6.21937">
        <ele>984</ele>
        <time>2011-11-01T09:27:36Z</time>
      </trkpt>
      <trkpt lat="45.71705" lon="6.21929">
        <ele>987</ele>
        <time>2011-11-01T09:27:43Z</time>
      </trkpt>
      <trkpt lat="45.71689" lon="6.21926">
        <ele>989</ele>
        <time>2011-11-01T09:27:48Z</time>
      </trkpt>
      <trkpt lat="45.71673" lon="6.21914">
        <ele>985</ele>
        <time>2011-11-01T09:27:54Z</time>
      </trkpt>
      <trkpt lat="45.71664" lon="6.21891">
        <ele>989</ele>
        <time>2011-11-01T09:28:01Z</time>
      </trkpt>
      <trkpt lat="45.71657" lon="6.21871">
        <ele>987</ele>
        <time>2011-11-01T09:28:08Z</time>
      </trkpt>
      <trkpt lat="45.7165" lon="6.21863">
        <ele>987</ele>
        <time>2011-11-01T09:28:13Z</time>
      </trkpt>
      <trkpt lat="45.71631" lon="6.21857">
        <ele>988</ele>
        <time>2011-11-01T09:28:22Z</time>
      </trkpt>
      <trkpt lat="45.71614" lon="6.2186">
        <ele>989</ele>
        <time>2011-11-01T09:28:30Z</time>
      </trkpt>
      <trkpt lat="45.716" lon="6.21861">
        <ele>990</ele>
        <time>2011-11-01T09:28:36Z</time>
      </trkpt>
      <trkpt lat="45.71582" lon="6.21862">
        <ele>999</ele>
        <time>2011-11-01T09:28:43Z</time>
      </trkpt>
      <trkpt lat="45.71564" lon="6.21861">
        <ele>1001</ele>
        <time>2011-11-01T09:28:50Z</time>
      </trkpt>
      <trkpt lat="45.71538" lon="6.21853">
        <ele>1003</ele>
        <time>2011-11-01T09:28:59Z</time>
      </trkpt>
      <trkpt lat="45.71521" lon="6.21838">
        <ele>1004</ele>
        <time>2011-11-01T09:29:05Z</time>
      </trkpt>
      <trkpt lat="45.71516" lon="6.21815">
        <ele>995</ele>
        <time>2011-11-01T09:29:11Z</time>
      </trkpt>
      <trkpt lat="45.71514" lon="6.21793">
        <ele>992</ele>
        <time>2011-11-01T09:29:17Z</time>
      </trkpt>
      <trkpt lat="45.71503" lon="6.2177">
        <ele>990</ele>
        <time>2011-11-01T09:29:24Z</time>
      </trkpt>
      <trkpt lat="45.7149" lon="6.21765">
        <ele>997</ele>
        <time>2011-11-01T09:29:29Z</time>
      </trkpt>
      <trkpt lat="45.71477" lon="6.21772">
        <ele>1000</ele>
        <time>2011-11-01T09:29:34Z</time>
      </trkpt>
      <trkpt lat="45.71455" lon="6.21783">
        <ele>1003</ele>
        <time>2011-11-01T09:29:41Z</time>
      </trkpt>
      <trkpt lat="45.71439" lon="6.21783">
        <ele>1004</ele>
        <time>2011-11-01T09:29:46Z</time>
      </trkpt>
      <trkpt lat="45.71428" lon="6.21776">
        <ele>1004</ele>
        <time>2011-11-01T09:29:51Z</time>
      </trkpt>
      <trkpt lat="45.71411" lon="6.21762">
        <ele>1007</ele>
        <time>2011-11-01T09:29:57Z</time>
      </trkpt>
      <trkpt lat="45.71384" lon="6.21746">
        <ele>1001</ele>
        <time>2011-11-01T09:30:06Z</time>
      </trkpt>
      <trkpt lat="45.71366" lon="6.21749">
        <ele>1003</ele>
        <time>2011-11-01T09:30:12Z</time>
      </trkpt>
      <trkpt lat="45.71339" lon="6.21759">
        <ele>1015</ele>
        <time>2011-11-01T09:30:21Z</time>
      </trkpt>
      <trkpt lat="45.71334" lon="6.2176">
        <ele>1015</ele>
        <time>2011-11-01T09:30:25Z</time>
      </trkpt>
      <trkpt lat="45.71326" lon="6.21765">
        <ele>1024</ele>
        <time>2011-11-01T09:30:33Z</time>
      </trkpt>
      <trkpt lat="45.71307" lon="6.21754">
        <ele>1027</ele>
        <time>2011-11-01T09:30:41Z</time>
      </trkpt>
      <trkpt lat="45.71297" lon="6.21739">
        <ele>1017</ele>
        <time>2011-11-01T09:30:46Z</time>
      </trkpt>
      <trkpt lat="45.71282" lon="6.21718">
        <ele>1018</ele>
        <time>2011-11-01T09:30:53Z</time>
      </trkpt>
      <trkpt lat="45.71268" lon="6.21693">
        <ele>1017</ele>
        <time>2011-11-01T09:31:01Z</time>
      </trkpt>
      <trkpt lat="45.71254" lon="6.2168">
        <ele>1017</ele>
        <time>2011-11-01T09:31:07Z</time>
      </trkpt>
      <trkpt lat="45.71241" lon="6.2167">
        <ele>1022</ele>
        <time>2011-11-01T09:31:13Z</time>
      </trkpt>
      <trkpt lat="45.71227" lon="6.21659">
        <ele>1016</ele>
        <time>2011-11-01T09:31:19Z</time>
      </trkpt>
      <trkpt lat="45.71213" lon="6.21654">
        <ele>1016</ele>
        <time>2011-11-01T09:31:24Z</time>
      </trkpt>
      <trkpt lat="45.71198" lon="6.21646">
        <ele>1017</ele>
        <time>2011-11-01T09:31:30Z</time>
      </trkpt>
      <trkpt lat="45.71179" lon="6.21635">
        <ele>1017</ele>
        <time>2011-11-01T09:31:37Z</time>
      </trkpt>
      <trkpt lat="45.71162" lon="6.2162">
        <ele>1023</ele>
        <time>2011-11-01T09:31:43Z</time>
      </trkpt>
      <trkpt lat="45.71138" lon="6.21616">
        <ele>1024</ele>
        <time>2011-11-01T09:31:49Z</time>
      </trkpt>
      <trkpt lat="45.71117" lon="6.21613">
        <ele>1025</ele>
        <time>2011-11-01T09:31:55Z</time>
      </trkpt>
      <trkpt lat="45.71099" lon="6.21607">
        <ele>1025</ele>
        <time>2011-11-01T09:32:01Z</time>
      </trkpt>
      <trkpt lat="45.71083" lon="6.21596">
        <ele>1023</ele>
        <time>2011-11-01T09:32:07Z</time>
      </trkpt>
      <trkpt lat="45.71065" lon="6.21581">
        <ele>1020</ele>
        <time>2011-11-01T09:32:15Z</time>
      </trkpt>
      <trkpt lat="45.71048" lon="6.21577">
        <ele>1022</ele>
        <time>2011-11-01T09:32:20Z</time>
      </trkpt>
      <trkpt lat="45.71023" lon="6.21572">
        <ele>1026</ele>
        <time>2011-11-01T09:32:28Z</time>
      </trkpt>
      <trkpt lat="45.71011" lon="6.2156">
        <ele>1026</ele>
        <time>2011-11-01T09:32:33Z</time>
      </trkpt>
      <trkpt lat="45.70998" lon="6.21536">
        <ele>1031</ele>
        <time>2011-11-01T09:32:40Z</time>
      </trkpt>
      <trkpt lat="45.70985" lon="6.21513">
        <ele>1026</ele>
        <time>2011-11-01T09:32:47Z</time>
      </trkpt>
      <trkpt lat="45.70974" lon="6.21495">
        <ele>1018</ele>
        <time>2011-11-01T09:32:53Z</time>
      </trkpt>
      <trkpt lat="45.70956" lon="6.2148">
        <ele>1020</ele>
        <time>2011-11-01T09:33:00Z</time>
      </trkpt>
      <trkpt lat="45.70939" lon="6.21478">
        <ele>1022</ele>
        <time>2011-11-01T09:33:06Z</time>
      </trkpt>
      <trkpt lat="45.70919" lon="6.21482">
        <ele>1025</ele>
        <time>2011-11-01T09:33:13Z</time>
      </trkpt>
      <trkpt lat="45.70902" lon="6.21483">
        <ele>1033</ele>
        <time>2011-11-01T09:33:19Z</time>
      </trkpt>
      <trkpt lat="45.70879" lon="6.2148">
        <ele>1036</ele>
        <time>2011-11-01T09:33:28Z</time>
      </trkpt>
      <trkpt lat="45.70865" lon="6.21481">
        <ele>1038</ele>
        <time>2011-11-01T09:33:34Z</time>
      </trkpt>
      <trkpt lat="45.70843" lon="6.21484">
        <ele>1042</ele>
        <time>2011-11-01T09:33:43Z</time>
      </trkpt>
      <trkpt lat="45.70826" lon="6.21488">
        <ele>1052</ele>
        <time>2011-11-01T09:33:50Z</time>
      </trkpt>
      <trkpt lat="45.70807" lon="6.21491">
        <ele>1055</ele>
        <time>2011-11-01T09:33:58Z</time>
      </trkpt>
      <trkpt lat="45.70791" lon="6.21488">
        <ele>1057</ele>
        <time>2011-11-01T09:34:06Z</time>
      </trkpt>
      <trkpt lat="45.70772" lon="6.21482">
        <ele>1060</ele>
        <time>2011-11-01T09:34:14Z</time>
      </trkpt>
      <trkpt lat="45.70757" lon="6.21481">
        <ele>1062</ele>
        <time>2011-11-01T09:34:21Z</time>
      </trkpt>
      <trkpt lat="45.70739" lon="6.21476">
        <ele>1071</ele>
        <time>2011-11-01T09:34:28Z</time>
      </trkpt>
      <trkpt lat="45.70719" lon="6.21467">
        <ele>1072</ele>
        <time>2011-11-01T09:34:37Z</time>
      </trkpt>
      <trkpt lat="45.70695" lon="6.2146">
        <ele>1073</ele>
        <time>2011-11-01T09:34:46Z</time>
      </trkpt>
      <trkpt lat="45.70676" lon="6.21456">
        <ele>1073</ele>
        <time>2011-11-01T09:34:54Z</time>
      </trkpt>
      <trkpt lat="45.70655" lon="6.21449">
        <ele>1078</ele>
        <time>2011-11-01T09:35:03Z</time>
      </trkpt>
      <trkpt lat="45.7064" lon="6.2144">
        <ele>1077</ele>
        <time>2011-11-01T09:35:10Z</time>
      </trkpt>
      <trkpt lat="45.70621" lon="6.2143">
        <ele>1077</ele>
        <time>2011-11-01T09:35:18Z</time>
      </trkpt>
      <trkpt lat="45.70609" lon="6.2142">
        <ele>1076</ele>
        <time>2011-11-01T09:35:25Z</time>
      </trkpt>
      <trkpt lat="45.70592" lon="6.21414">
        <ele>1073</ele>
        <time>2011-11-01T09:35:31Z</time>
      </trkpt>
      <trkpt lat="45.70576" lon="6.21408">
        <ele>1074</ele>
        <time>2011-11-01T09:35:37Z</time>
      </trkpt>
      <trkpt lat="45.70557" lon="6.21398">
        <ele>1077</ele>
        <time>2011-11-01T09:35:45Z</time>
      </trkpt>
      <trkpt lat="45.70539" lon="6.21387">
        <ele>1078</ele>
        <time>2011-11-01T09:35:53Z</time>
      </trkpt>
      <trkpt lat="45.70522" lon="6.21379">
        <ele>1079</ele>
        <time>2011-11-01T09:36:00Z</time>
      </trkpt>
      <trkpt lat="45.7051" lon="6.21369">
        <ele>1078</ele>
        <time>2011-11-01T09:36:06Z</time>
      </trkpt>
      <trkpt lat="45.70491" lon="6.21361">
        <ele>1080</ele>
        <time>2011-11-01T09:36:13Z</time>
      </trkpt>
      <trkpt lat="45.70472" lon="6.21352">
        <ele>1081</ele>
        <time>2011-11-01T09:36:20Z</time>
      </trkpt>
      <trkpt lat="45.70456" lon="6.21345">
        <ele>1081</ele>
        <time>2011-11-01T09:36:27Z</time>
      </trkpt>
      <trkpt lat="45.70435" lon="6.21342">
        <ele>1080</ele>
        <time>2011-11-01T09:36:34Z</time>
      </trkpt>
      <trkpt lat="45.70419" lon="6.21346">
        <ele>1080</ele>
        <time>2011-11-01T09:36:42Z</time>
      </trkpt>
      <trkpt lat="45.70406" lon="6.21339">
        <ele>1084</ele>
        <time>2011-11-01T09:36:49Z</time>
      </trkpt>
      <trkpt lat="45.70401" lon="6.21324">
        <ele>1085</ele>
        <time>2011-11-01T09:36:55Z</time>
      </trkpt>
      <trkpt lat="45.70385" lon="6.21315">
        <ele>1089</ele>
        <time>2011-11-01T09:37:03Z</time>
      </trkpt>
      <trkpt lat="45.70366" lon="6.2131">
        <ele>1091</ele>
        <time>2011-11-01T09:37:12Z</time>
      </trkpt>
      <trkpt lat="45.7035" lon="6.21305">
        <ele>1092</ele>
        <time>2011-11-01T09:37:20Z</time>
      </trkpt>
      <trkpt lat="45.70329" lon="6.21297">
        <ele>1098</ele>
        <time>2011-11-01T09:37:30Z</time>
      </trkpt>
      <trkpt lat="45.70313" lon="6.21293">
        <ele>1099</ele>
        <time>2011-11-01T09:37:38Z</time>
      </trkpt>
      <trkpt lat="45.70296" lon="6.21287">
        <ele>1101</ele>
        <time>2011-11-01T09:37:47Z</time>
      </trkpt>
      <trkpt lat="45.7028" lon="6.21279">
        <ele>1102</ele>
        <time>2011-11-01T09:37:55Z</time>
      </trkpt>
      <trkpt lat="45.70269" lon="6.21259">
        <ele>1103</ele>
        <time>2011-11-01T09:38:03Z</time>
      </trkpt>
      <trkpt lat="45.70256" lon="6.21243">
        <ele>1111</ele>
        <time>2011-11-01T09:38:11Z</time>
      </trkpt>
      <trkpt lat="45.70242" lon="6.21241">
        <ele>1112</ele>
        <time>2011-11-01T09:38:18Z</time>
      </trkpt>
      <trkpt lat="45.70226" lon="6.21247">
        <ele>1114</ele>
        <time>2011-11-01T09:38:24Z</time>
      </trkpt>
      <trkpt lat="45.7021" lon="6.21242">
        <ele>1116</ele>
        <time>2011-11-01T09:38:32Z</time>
      </trkpt>
      <trkpt lat="45.70196" lon="6.2124">
        <ele>1116</ele>
        <time>2011-11-01T09:38:39Z</time>
      </trkpt>
      <trkpt lat="45.70181" lon="6.21242">
        <ele>1114</ele>
        <time>2011-11-01T09:38:46Z</time>
      </trkpt>
      <trkpt lat="45.70162" lon="6.21241">
        <ele>1112</ele>
        <time>2011-11-01T09:38:54Z</time>
      </trkpt>
      <trkpt lat="45.70144" lon="6.21243">
        <ele>1115</ele>
        <time>2011-11-01T09:39:02Z</time>
      </trkpt>
      <trkpt lat="45.70132" lon="6.21253">
        <ele>1116</ele>
        <time>2011-11-01T09:39:09Z</time>
      </trkpt>
      <trkpt lat="45.70128" lon="6.21277">
        <ele>1118</ele>
        <time>2011-11-01T09:39:17Z</time>
      </trkpt>
      <trkpt lat="45.70136" lon="6.2129">
        <ele>1118</ele>
        <time>2011-11-01T09:39:23Z</time>
      </trkpt>
      <trkpt lat="45.70156" lon="6.21301">
        <ele>1118</ele>
        <time>2011-11-01T09:39:32Z</time>
      </trkpt>
      <trkpt lat="45.70173" lon="6.21312">
        <ele>1113</ele>
        <time>2011-11-01T09:39:40Z</time>
      </trkpt>
      <trkpt lat="45.70191" lon="6.21323">
        <ele>1112</ele>
        <time>2011-11-01T09:39:48Z</time>
      </trkpt>
      <trkpt lat="45.70205" lon="6.21332">
        <ele>1111</ele>
        <time>2011-11-01T09:39:55Z</time>
      </trkpt>
      <trkpt lat="45.70217" lon="6.21336">
        <ele>1119</ele>
        <time>2011-11-01T09:40:01Z</time>
      </trkpt>
      <trkpt lat="45.70232" lon="6.21343">
        <ele>1117</ele>
        <time>2011-11-01T09:40:08Z</time>
      </trkpt>
      <trkpt lat="45.70242" lon="6.2135">
        <ele>1116</ele>
        <time>2011-11-01T09:40:13Z</time>
      </trkpt>
      <trkpt lat="45.70254" lon="6.21361">
        <ele>1111</ele>
        <time>2011-11-01T09:40:19Z</time>
      </trkpt>
      <trkpt lat="45.70266" lon="6.21373">
        <ele>1113</ele>
        <time>2011-11-01T09:40:26Z</time>
      </trkpt>
      <trkpt lat="45.70279" lon="6.21389">
        <ele>1114</ele>
        <time>2011-11-01T09:40:34Z</time>
      </trkpt>
      <trkpt lat="45.7029" lon="6.21401">
        <ele>1114</ele>
        <time>2011-11-01T09:40:41Z</time>
      </trkpt>
      <trkpt lat="45.70303" lon="6.21409">
        <ele>1114</ele>
        <time>2011-11-01T09:40:47Z</time>
      </trkpt>
      <trkpt lat="45.70316" lon="6.21424">
        <ele>1124</ele>
        <time>2011-11-01T09:40:55Z</time>
      </trkpt>
      <trkpt lat="45.70322" lon="6.21439">
        <ele>1126</ele>
        <time>2011-11-01T09:41:01Z</time>
      </trkpt>
      <trkpt lat="45.70331" lon="6.21452">
        <ele>1129</ele>
        <time>2011-11-01T09:41:07Z</time>
      </trkpt>
      <trkpt lat="45.70344" lon="6.21475">
        <ele>1123</ele>
        <time>2011-11-01T09:41:17Z</time>
      </trkpt>
      <trkpt lat="45.70352" lon="6.21489">
        <ele>1125</ele>
        <time>2011-11-01T09:41:23Z</time>
      </trkpt>
      <trkpt lat="45.7036" lon="6.21509">
        <ele>1136</ele>
        <time>2011-11-01T09:41:31Z</time>
      </trkpt>
      <trkpt lat="45.70369" lon="6.21534">
        <ele>1137</ele>
        <time>2011-11-01T09:41:40Z</time>
      </trkpt>
      <trkpt lat="45.70375" lon="6.21553">
        <ele>1139</ele>
        <time>2011-11-01T09:41:47Z</time>
      </trkpt>
      <trkpt lat="45.70383" lon="6.21571">
        <ele>1140</ele>
        <time>2011-11-01T09:41:54Z</time>
      </trkpt>
      <trkpt lat="45.70397" lon="6.2158">
        <ele>1139</ele>
        <time>2011-11-01T09:42:00Z</time>
      </trkpt>
      <trkpt lat="45.70411" lon="6.21587">
        <ele>1145</ele>
        <time>2011-11-01T09:42:06Z</time>
      </trkpt>
      <trkpt lat="45.70417" lon="6.21598">
        <ele>1146</ele>
        <time>2011-11-01T09:42:12Z</time>
      </trkpt>
      <trkpt lat="45.70429" lon="6.21603">
        <ele>1148</ele>
        <time>2011-11-01T09:42:19Z</time>
      </trkpt>
      <trkpt lat="45.70442" lon="6.21602">
        <ele>1149</ele>
        <time>2011-11-01T09:42:24Z</time>
      </trkpt>
      <trkpt lat="45.70449" lon="6.2161">
        <ele>1151</ele>
        <time>2011-11-01T09:42:29Z</time>
      </trkpt>
      <trkpt lat="45.70458" lon="6.21615">
        <ele>1152</ele>
        <time>2011-11-01T09:42:35Z</time>
      </trkpt>
      <trkpt lat="45.70472" lon="6.21612">
        <ele>1151</ele>
        <time>2011-11-01T09:42:42Z</time>
      </trkpt>
      <trkpt lat="45.70488" lon="6.21607">
        <ele>1149</ele>
        <time>2011-11-01T09:42:50Z</time>
      </trkpt>
      <trkpt lat="45.70502" lon="6.21611">
        <ele>1149</ele>
        <time>2011-11-01T09:42:57Z</time>
      </trkpt>
      <trkpt lat="45.70518" lon="6.21623">
        <ele>1153</ele>
        <time>2011-11-01T09:43:05Z</time>
      </trkpt>
      <trkpt lat="45.70531" lon="6.2163">
        <ele>1154</ele>
        <time>2011-11-01T09:43:13Z</time>
      </trkpt>
      <trkpt lat="45.70547" lon="6.21628">
        <ele>1154</ele>
        <time>2011-11-01T09:43:20Z</time>
      </trkpt>
      <trkpt lat="45.70566" lon="6.21624">
        <ele>1153</ele>
        <time>2011-11-01T09:43:28Z</time>
      </trkpt>
      <trkpt lat="45.70587" lon="6.21624">
        <ele>1146</ele>
        <time>2011-11-01T09:43:37Z</time>
      </trkpt>
      <trkpt lat="45.70603" lon="6.21629">
        <ele>1146</ele>
        <time>2011-11-01T09:43:45Z</time>
      </trkpt>
      <trkpt lat="45.70617" lon="6.2163">
        <ele>1145</ele>
        <time>2011-11-01T09:43:51Z</time>
      </trkpt>
      <trkpt lat="45.70632" lon="6.21635">
        <ele>1143</ele>
        <time>2011-11-01T09:43:59Z</time>
      </trkpt>
      <trkpt lat="45.70637" lon="6.21647">
        <ele>1145</ele>
        <time>2011-11-01T09:44:04Z</time>
      </trkpt>
      <trkpt lat="45.70636" lon="6.21649">
        <ele>1145</ele>
        <time>2011-11-01T09:44:05Z</time>
      </trkpt>
      <trkpt lat="45.7063" lon="6.21653">
        <ele>1146</ele>
        <time>2011-11-01T09:44:09Z</time>
      </trkpt>
      <trkpt lat="45.70618" lon="6.21648">
        <ele>1148</ele>
        <time>2011-11-01T09:44:15Z</time>
      </trkpt>
      <trkpt lat="45.70603" lon="6.2164">
        <ele>1149</ele>
        <time>2011-11-01T09:44:22Z</time>
      </trkpt>
      <trkpt lat="45.70576" lon="6.21638">
        <ele>1157</ele>
        <time>2011-11-01T09:44:32Z</time>
      </trkpt>
      <trkpt lat="45.70556" lon="6.21641">
        <ele>1157</ele>
        <time>2011-11-01T09:44:39Z</time>
      </trkpt>
      <trkpt lat="45.70539" lon="6.21649">
        <ele>1158</ele>
        <time>2011-11-01T09:44:46Z</time>
      </trkpt>
      <trkpt lat="45.70529" lon="6.21657">
        <ele>1159</ele>
        <time>2011-11-01T09:44:51Z</time>
      </trkpt>
      <trkpt lat="45.70507" lon="6.21662">
        <ele>1165</ele>
        <time>2011-11-01T09:45:00Z</time>
      </trkpt>
      <trkpt lat="45.70492" lon="6.21664">
        <ele>1165</ele>
        <time>2011-11-01T09:45:07Z</time>
      </trkpt>
      <trkpt lat="45.7048" lon="6.21678">
        <ele>1178</ele>
        <time>2011-11-01T09:45:14Z</time>
      </trkpt>
      <trkpt lat="45.70471" lon="6.21688">
        <ele>1180</ele>
        <time>2011-11-01T09:45:20Z</time>
      </trkpt>
      <trkpt lat="45.70456" lon="6.21702">
        <ele>1183</ele>
        <time>2011-11-01T09:45:28Z</time>
      </trkpt>
      <trkpt lat="45.70438" lon="6.21706">
        <ele>1183</ele>
        <time>2011-11-01T09:45:36Z</time>
      </trkpt>
      <trkpt lat="45.70421" lon="6.21706">
        <ele>1183</ele>
        <time>2011-11-01T09:45:43Z</time>
      </trkpt>
      <trkpt lat="45.70403" lon="6.21703">
        <ele>1191</ele>
        <time>2011-11-01T09:45:51Z</time>
      </trkpt>
      <trkpt lat="45.70387" lon="6.21692">
        <ele>1191</ele>
        <time>2011-11-01T09:45:58Z</time>
      </trkpt>
      <trkpt lat="45.70373" lon="6.21676">
        <ele>1191</ele>
        <time>2011-11-01T09:46:05Z</time>
      </trkpt>
      <trkpt lat="45.70358" lon="6.21663">
        <ele>1174</ele>
        <time>2011-11-01T09:46:12Z</time>
      </trkpt>
      <trkpt lat="45.70338" lon="6.21647">
        <ele>1176</ele>
        <time>2011-11-01T09:46:21Z</time>
      </trkpt>
      <trkpt lat="45.70324" lon="6.21634">
        <ele>1180</ele>
        <time>2011-11-01T09:46:29Z</time>
      </trkpt>
      <trkpt lat="45.70308" lon="6.21631">
        <ele>1180</ele>
        <time>2011-11-01T09:46:36Z</time>
      </trkpt>
      <trkpt lat="45.70292" lon="6.21639">
        <ele>1182</ele>
        <time>2011-11-01T09:46:43Z</time>
      </trkpt>
      <trkpt lat="45.70281" lon="6.21645">
        <ele>1184</ele>
        <time>2011-11-01T09:46:48Z</time>
      </trkpt>
      <trkpt lat="45.70262" lon="6.21651">
        <ele>1189</ele>
        <time>2011-11-01T09:46:56Z</time>
      </trkpt>
      <trkpt lat="45.70247" lon="6.21654">
        <ele>1198</ele>
        <time>2011-11-01T09:47:02Z</time>
      </trkpt>
      <trkpt lat="45.70234" lon="6.21653">
        <ele>1197</ele>
        <time>2011-11-01T09:47:09Z</time>
      </trkpt>
      <trkpt lat="45.70226" lon="6.21648">
        <ele>1197</ele>
        <time>2011-11-01T09:47:13Z</time>
      </trkpt>
      <trkpt lat="45.70206" lon="6.21655">
        <ele>1200</ele>
        <time>2011-11-01T09:47:20Z</time>
      </trkpt>
      <trkpt lat="45.70199" lon="6.21649">
        <ele>1201</ele>
        <time>2011-11-01T09:47:25Z</time>
      </trkpt>
      <trkpt lat="45.70196" lon="6.21646">
        <ele>1201</ele>
        <time>2011-11-01T09:47:27Z</time>
      </trkpt>
      <trkpt lat="45.70185" lon="6.21641">
        <ele>1202</ele>
        <time>2011-11-01T09:47:33Z</time>
      </trkpt>
      <trkpt lat="45.7017" lon="6.21632">
        <ele>1200</ele>
        <time>2011-11-01T09:47:40Z</time>
      </trkpt>
      <trkpt lat="45.70159" lon="6.21625">
        <ele>1215</ele>
        <time>2011-11-01T09:47:46Z</time>
      </trkpt>
      <trkpt lat="45.70148" lon="6.21619">
        <ele>1215</ele>
        <time>2011-11-01T09:47:51Z</time>
      </trkpt>
      <trkpt lat="45.70138" lon="6.21608">
        <ele>1213</ele>
        <time>2011-11-01T09:47:57Z</time>
      </trkpt>
      <trkpt lat="45.70129" lon="6.21602">
        <ele>1214</ele>
        <time>2011-11-01T09:48:01Z</time>
      </trkpt>
      <trkpt lat="45.70119" lon="6.21597">
        <ele>1215</ele>
        <time>2011-11-01T09:48:06Z</time>
      </trkpt>
      <trkpt lat="45.70101" lon="6.21589">
        <ele>1214</ele>
        <time>2011-11-01T09:48:14Z</time>
      </trkpt>
      <trkpt lat="45.70079" lon="6.21577">
        <ele>1207</ele>
        <time>2011-11-01T09:48:25Z</time>
      </trkpt>
      <trkpt lat="45.7006" lon="6.21568">
        <ele>1207</ele>
        <time>2011-11-01T09:48:34Z</time>
      </trkpt>
      <trkpt lat="45.70045" lon="6.21559">
        <ele>1209</ele>
        <time>2011-11-01T09:48:41Z</time>
      </trkpt>
      <trkpt lat="45.70026" lon="6.21548">
        <ele>1210</ele>
        <time>2011-11-01T09:48:50Z</time>
      </trkpt>
      <trkpt lat="45.70015" lon="6.21545">
        <ele>1211</ele>
        <time>2011-11-01T09:48:55Z</time>
      </trkpt>
      <trkpt lat="45.70011" lon="6.21543">
        <ele>1210</ele>
        <time>2011-11-01T09:48:58Z</time>
      </trkpt>
      <trkpt lat="45.70009" lon="6.21531">
        <ele>1207</ele>
        <time>2011-11-01T09:49:04Z</time>
      </trkpt>
      <trkpt lat="45.69994" lon="6.2152">
        <ele>1218</ele>
        <time>2011-11-01T09:49:11Z</time>
      </trkpt>
      <trkpt lat="45.69993" lon="6.21517">
        <ele>1216</ele>
        <time>2011-11-01T09:49:12Z</time>
      </trkpt>
      <trkpt lat="45.6998" lon="6.21512">
        <ele>1218</ele>
        <time>2011-11-01T09:49:17Z</time>
      </trkpt>
      <trkpt lat="45.6997" lon="6.21499">
        <ele>1200</ele>
        <time>2011-11-01T09:49:23Z</time>
      </trkpt>
      <trkpt lat="45.69962" lon="6.21491">
        <ele>1201</ele>
        <time>2011-11-01T09:49:28Z</time>
      </trkpt>
      <trkpt lat="45.69947" lon="6.21485">
        <ele>1204</ele>
        <time>2011-11-01T09:49:34Z</time>
      </trkpt>
      <trkpt lat="45.69931" lon="6.21481">
        <ele>1207</ele>
        <time>2011-11-01T09:49:40Z</time>
      </trkpt>
      <trkpt lat="45.69914" lon="6.21482">
        <ele>1219</ele>
        <time>2011-11-01T09:49:47Z</time>
      </trkpt>
      <trkpt lat="45.69891" lon="6.21483">
        <ele>1219</ele>
        <time>2011-11-01T09:49:56Z</time>
      </trkpt>
      <trkpt lat="45.69876" lon="6.21484">
        <ele>1221</ele>
        <time>2011-11-01T09:50:03Z</time>
      </trkpt>
      <trkpt lat="45.6986" lon="6.21484">
        <ele>1224</ele>
        <time>2011-11-01T09:50:10Z</time>
      </trkpt>
      <trkpt lat="45.69847" lon="6.21486">
        <ele>1228</ele>
        <time>2011-11-01T09:50:16Z</time>
      </trkpt>
      <trkpt lat="45.69836" lon="6.21483">
        <ele>1229</ele>
        <time>2011-11-01T09:50:22Z</time>
      </trkpt>
      <trkpt lat="45.69823" lon="6.21475">
        <ele>1235</ele>
        <time>2011-11-01T09:50:29Z</time>
      </trkpt>
      <trkpt lat="45.69809" lon="6.21458">
        <ele>1233</ele>
        <time>2011-11-01T09:50:38Z</time>
      </trkpt>
      <trkpt lat="45.69804" lon="6.21439">
        <ele>1229</ele>
        <time>2011-11-01T09:50:45Z</time>
      </trkpt>
      <trkpt lat="45.69798" lon="6.21425">
        <ele>1228</ele>
        <time>2011-11-01T09:50:51Z</time>
      </trkpt>
      <trkpt lat="45.69786" lon="6.21419">
        <ele>1229</ele>
        <time>2011-11-01T09:50:57Z</time>
      </trkpt>
      <trkpt lat="45.69778" lon="6.21418">
        <ele>1230</ele>
        <time>2011-11-01T09:51:01Z</time>
      </trkpt>
      <trkpt lat="45.69762" lon="6.21431">
        <ele>1231</ele>
        <time>2011-11-01T09:51:10Z</time>
      </trkpt>
      <trkpt lat="45.69749" lon="6.21448">
        <ele>1246</ele>
        <time>2011-11-01T09:51:19Z</time>
      </trkpt>
      <trkpt lat="45.69739" lon="6.21458">
        <ele>1250</ele>
        <time>2011-11-01T09:51:26Z</time>
      </trkpt>
      <trkpt lat="45.69735" lon="6.2146">
        <ele>1251</ele>
        <time>2011-11-01T09:51:28Z</time>
      </trkpt>
      <trkpt lat="45.69726" lon="6.21455">
        <ele>1251</ele>
        <time>2011-11-01T09:51:34Z</time>
      </trkpt>
      <trkpt lat="45.69725" lon="6.21454">
        <ele>1250</ele>
        <time>2011-11-01T09:51:35Z</time>
      </trkpt>
      <trkpt lat="45.6972" lon="6.21439">
        <ele>1248</ele>
        <time>2011-11-01T09:51:42Z</time>
      </trkpt>
      <trkpt lat="45.6971" lon="6.21424">
        <ele>1248</ele>
        <time>2011-11-01T09:51:50Z</time>
      </trkpt>
      <trkpt lat="45.69698" lon="6.21426">
        <ele>1251</ele>
        <time>2011-11-01T09:51:56Z</time>
      </trkpt>
      <trkpt lat="45.69683" lon="6.2143">
        <ele>1252</ele>
        <time>2011-11-01T09:52:03Z</time>
      </trkpt>
      <trkpt lat="45.69674" lon="6.21421">
        <ele>1252</ele>
        <time>2011-11-01T09:52:10Z</time>
      </trkpt>
      <trkpt lat="45.69659" lon="6.21412">
        <ele>1254</ele>
        <time>2011-11-01T09:52:19Z</time>
      </trkpt>
      <trkpt lat="45.69649" lon="6.2141">
        <ele>1256</ele>
        <time>2011-11-01T09:52:24Z</time>
      </trkpt>
      <trkpt lat="45.69636" lon="6.214">
        <ele>1260</ele>
        <time>2011-11-01T09:52:31Z</time>
      </trkpt>
      <trkpt lat="45.69635" lon="6.21399">
        <ele>1260</ele>
        <time>2011-11-01T09:52:32Z</time>
      </trkpt>
      <trkpt lat="45.6963" lon="6.21382">
        <ele>1260</ele>
        <time>2011-11-01T09:52:39Z</time>
      </trkpt>
      <trkpt lat="45.69631" lon="6.2137">
        <ele>1258</ele>
        <time>2011-11-01T09:52:45Z</time>
      </trkpt>
      <trkpt lat="45.69635" lon="6.21352">
        <ele>1255</ele>
        <time>2011-11-01T09:52:52Z</time>
      </trkpt>
      <trkpt lat="45.69634" lon="6.21333">
        <ele>1243</ele>
        <time>2011-11-01T09:52:59Z</time>
      </trkpt>
      <trkpt lat="45.69625" lon="6.21319">
        <ele>1244</ele>
        <time>2011-11-01T09:53:06Z</time>
      </trkpt>
      <trkpt lat="45.69609" lon="6.2131">
        <ele>1247</ele>
        <time>2011-11-01T09:53:14Z</time>
      </trkpt>
      <trkpt lat="45.69594" lon="6.21301">
        <ele>1248</ele>
        <time>2011-11-01T09:53:23Z</time>
      </trkpt>
      <trkpt lat="45.69581" lon="6.21295">
        <ele>1263</ele>
        <time>2011-11-01T09:53:30Z</time>
      </trkpt>
      <trkpt lat="45.69571" lon="6.21289">
        <ele>1262</ele>
        <time>2011-11-01T09:53:36Z</time>
      </trkpt>
      <trkpt lat="45.69556" lon="6.21282">
        <ele>1263</ele>
        <time>2011-11-01T09:53:44Z</time>
      </trkpt>
      <trkpt lat="45.69546" lon="6.21275">
        <ele>1264</ele>
        <time>2011-11-01T09:53:50Z</time>
      </trkpt>
      <trkpt lat="45.6954" lon="6.2127">
        <ele>1264</ele>
        <time>2011-11-01T09:53:54Z</time>
      </trkpt>
      <trkpt lat="45.6953" lon="6.21264">
        <ele>1265</ele>
        <time>2011-11-01T09:54:00Z</time>
      </trkpt>
      <trkpt lat="45.69523" lon="6.21259">
        <ele>1266</ele>
        <time>2011-11-01T09:54:05Z</time>
      </trkpt>
      <trkpt lat="45.69516" lon="6.21254">
        <ele>1266</ele>
        <time>2011-11-01T09:54:09Z</time>
      </trkpt>
      <trkpt lat="45.69502" lon="6.21245">
        <ele>1263</ele>
        <time>2011-11-01T09:54:17Z</time>
      </trkpt>
      <trkpt lat="45.6949" lon="6.21235">
        <ele>1269</ele>
        <time>2011-11-01T09:54:24Z</time>
      </trkpt>
      <trkpt lat="45.69474" lon="6.21225">
        <ele>1270</ele>
        <time>2011-11-01T09:54:32Z</time>
      </trkpt>
      <trkpt lat="45.69462" lon="6.21222">
        <ele>1271</ele>
        <time>2011-11-01T09:54:38Z</time>
      </trkpt>
      <trkpt lat="45.69454" lon="6.2123">
        <ele>1274</ele>
        <time>2011-11-01T09:54:43Z</time>
      </trkpt>
      <trkpt lat="45.69456" lon="6.21242">
        <ele>1274</ele>
        <time>2011-11-01T09:54:48Z</time>
      </trkpt>
      <trkpt lat="45.69468" lon="6.2125">
        <ele>1272</ele>
        <time>2011-11-01T09:54:55Z</time>
      </trkpt>
      <trkpt lat="45.69481" lon="6.21255">
        <ele>1281</ele>
        <time>2011-11-01T09:55:02Z</time>
      </trkpt>
      <trkpt lat="45.69493" lon="6.21265">
        <ele>1280</ele>
        <time>2011-11-01T09:55:09Z</time>
      </trkpt>
      <trkpt lat="45.69506" lon="6.2128">
        <ele>1269</ele>
        <time>2011-11-01T09:55:18Z</time>
      </trkpt>
      <trkpt lat="45.69513" lon="6.21294">
        <ele>1271</ele>
        <time>2011-11-01T09:55:24Z</time>
      </trkpt>
      <trkpt lat="45.69524" lon="6.21314">
        <ele>1274</ele>
        <time>2011-11-01T09:55:33Z</time>
      </trkpt>
      <trkpt lat="45.69535" lon="6.21325">
        <ele>1273</ele>
        <time>2011-11-01T09:55:40Z</time>
      </trkpt>
      <trkpt lat="45.69547" lon="6.21334">
        <ele>1284</ele>
        <time>2011-11-01T09:55:47Z</time>
      </trkpt>
      <trkpt lat="45.69559" lon="6.21343">
        <ele>1281</ele>
        <time>2011-11-01T09:55:54Z</time>
      </trkpt>
      <trkpt lat="45.69571" lon="6.21362">
        <ele>1283</ele>
        <time>2011-11-01T09:56:03Z</time>
      </trkpt>
      <trkpt lat="45.69567" lon="6.21377">
        <ele>1286</ele>
        <time>2011-11-01T09:56:09Z</time>
      </trkpt>
      <trkpt lat="45.69556" lon="6.21379">
        <ele>1288</ele>
        <time>2011-11-01T09:56:15Z</time>
      </trkpt>
      <trkpt lat="45.69549" lon="6.21371">
        <ele>1288</ele>
        <time>2011-11-01T09:56:20Z</time>
      </trkpt>
      <trkpt lat="45.69538" lon="6.21358">
        <ele>1288</ele>
        <time>2011-11-01T09:56:27Z</time>
      </trkpt>
      <trkpt lat="45.69521" lon="6.21346">
        <ele>1290</ele>
        <time>2011-11-01T09:56:36Z</time>
      </trkpt>
      <trkpt lat="45.69504" lon="6.21337">
        <ele>1291</ele>
        <time>2011-11-01T09:56:45Z</time>
      </trkpt>
      <trkpt lat="45.69497" lon="6.21333">
        <ele>1291</ele>
        <time>2011-11-01T09:56:51Z</time>
      </trkpt>
      <trkpt lat="45.69494" lon="6.21332">
        <ele>1291</ele>
        <time>2011-11-01T09:57:16Z</time>
      </trkpt>
      <trkpt lat="45.69485" lon="6.21327">
        <ele>1292</ele>
        <time>2011-11-01T09:57:21Z</time>
      </trkpt>
      <trkpt lat="45.69474" lon="6.21321">
        <ele>1293</ele>
        <time>2011-11-01T09:57:27Z</time>
      </trkpt>
      <trkpt lat="45.69464" lon="6.21315">
        <ele>1295</ele>
        <time>2011-11-01T09:57:33Z</time>
      </trkpt>
      <trkpt lat="45.69448" lon="6.21304">
        <ele>1296</ele>
        <time>2011-11-01T09:57:41Z</time>
      </trkpt>
      <trkpt lat="45.69433" lon="6.21296">
        <ele>1297</ele>
        <time>2011-11-01T09:57:48Z</time>
      </trkpt>
      <trkpt lat="45.6942" lon="6.21288">
        <ele>1297</ele>
        <time>2011-11-01T09:57:55Z</time>
      </trkpt>
      <trkpt lat="45.69411" lon="6.21277">
        <ele>1312</ele>
        <time>2011-11-01T09:58:01Z</time>
      </trkpt>
      <trkpt lat="45.69404" lon="6.21257">
        <ele>1306</ele>
        <time>2011-11-01T09:58:09Z</time>
      </trkpt>
      <trkpt lat="45.694" lon="6.2124">
        <ele>1298</ele>
        <time>2011-11-01T09:58:15Z</time>
      </trkpt>
      <trkpt lat="45.69392" lon="6.21223">
        <ele>1298</ele>
        <time>2011-11-01T09:58:22Z</time>
      </trkpt>
      <trkpt lat="45.69382" lon="6.2122">
        <ele>1299</ele>
        <time>2011-11-01T09:58:27Z</time>
      </trkpt>
      <trkpt lat="45.69381" lon="6.2122">
        <ele>1300</ele>
        <time>2011-11-01T09:58:28Z</time>
      </trkpt>
      <trkpt lat="45.69376" lon="6.21232">
        <ele>1302</ele>
        <time>2011-11-01T09:58:33Z</time>
      </trkpt>
      <trkpt lat="45.69381" lon="6.21249">
        <ele>1302</ele>
        <time>2011-11-01T09:58:39Z</time>
      </trkpt>
      <trkpt lat="45.69389" lon="6.2127">
        <ele>1315</ele>
        <time>2011-11-01T09:58:47Z</time>
      </trkpt>
      <trkpt lat="45.69394" lon="6.21282">
        <ele>1316</ele>
        <time>2011-11-01T09:58:52Z</time>
      </trkpt>
      <trkpt lat="45.69402" lon="6.21301">
        <ele>1318</ele>
        <time>2011-11-01T09:59:00Z</time>
      </trkpt>
      <trkpt lat="45.69408" lon="6.21314">
        <ele>1319</ele>
        <time>2011-11-01T09:59:06Z</time>
      </trkpt>
      <trkpt lat="45.69416" lon="6.21333">
        <ele>1318</ele>
        <time>2011-11-01T09:59:14Z</time>
      </trkpt>
      <trkpt lat="45.69423" lon="6.21349">
        <ele>1318</ele>
        <time>2011-11-01T09:59:21Z</time>
      </trkpt>
      <trkpt lat="45.6943" lon="6.21364">
        <ele>1319</ele>
        <time>2011-11-01T09:59:28Z</time>
      </trkpt>
      <trkpt lat="45.69435" lon="6.21377">
        <ele>1320</ele>
        <time>2011-11-01T09:59:34Z</time>
      </trkpt>
      <trkpt lat="45.69439" lon="6.21387">
        <ele>1321</ele>
        <time>2011-11-01T09:59:38Z</time>
      </trkpt>
      <trkpt lat="45.69449" lon="6.21402">
        <ele>1322</ele>
        <time>2011-11-01T09:59:45Z</time>
      </trkpt>
      <trkpt lat="45.69456" lon="6.21416">
        <ele>1321</ele>
        <time>2011-11-01T09:59:51Z</time>
      </trkpt>
      <trkpt lat="45.69465" lon="6.21427">
        <ele>1333</ele>
        <time>2011-11-01T09:59:57Z</time>
      </trkpt>
      <trkpt lat="45.69473" lon="6.21437">
        <ele>1332</ele>
        <time>2011-11-01T10:00:03Z</time>
      </trkpt>
      <trkpt lat="45.69485" lon="6.21445">
        <ele>1331</ele>
        <time>2011-11-01T10:00:11Z</time>
      </trkpt>
      <trkpt lat="45.695" lon="6.21448">
        <ele>1330</ele>
        <time>2011-11-01T10:00:19Z</time>
      </trkpt>
      <trkpt lat="45.69514" lon="6.21461">
        <ele>1313</ele>
        <time>2011-11-01T10:00:27Z</time>
      </trkpt>
      <trkpt lat="45.69521" lon="6.21476">
        <ele>1315</ele>
        <time>2011-11-01T10:00:34Z</time>
      </trkpt>
      <trkpt lat="45.69521" lon="6.21491">
        <ele>1318</ele>
        <time>2011-11-01T10:00:40Z</time>
      </trkpt>
      <trkpt lat="45.69517" lon="6.21511">
        <ele>1328</ele>
        <time>2011-11-01T10:00:48Z</time>
      </trkpt>
      <trkpt lat="45.69519" lon="6.21529">
        <ele>1329</ele>
        <time>2011-11-01T10:00:54Z</time>
      </trkpt>
      <trkpt lat="45.69525" lon="6.21549">
        <ele>1330</ele>
        <time>2011-11-01T10:01:01Z</time>
      </trkpt>
      <trkpt lat="45.69534" lon="6.21567">
        <ele>1331</ele>
        <time>2011-11-01T10:01:08Z</time>
      </trkpt>
      <trkpt lat="45.6954" lon="6.21586">
        <ele>1340</ele>
        <time>2011-11-01T10:01:16Z</time>
      </trkpt>
      <trkpt lat="45.6955" lon="6.21596">
        <ele>1339</ele>
        <time>2011-11-01T10:01:23Z</time>
      </trkpt>
      <trkpt lat="45.69564" lon="6.216">
        <ele>1337</ele>
        <time>2011-11-01T10:01:31Z</time>
      </trkpt>
      <trkpt lat="45.69574" lon="6.21602">
        <ele>1336</ele>
        <time>2011-11-01T10:01:37Z</time>
      </trkpt>
      <trkpt lat="45.69585" lon="6.2161">
        <ele>1329</ele>
        <time>2011-11-01T10:01:45Z</time>
      </trkpt>
      <trkpt lat="45.69594" lon="6.2163">
        <ele>1331</ele>
        <time>2011-11-01T10:01:54Z</time>
      </trkpt>
      <trkpt lat="45.69602" lon="6.21647">
        <ele>1334</ele>
        <time>2011-11-01T10:02:02Z</time>
      </trkpt>
      <trkpt lat="45.69614" lon="6.21665">
        <ele>1334</ele>
        <time>2011-11-01T10:02:08Z</time>
      </trkpt>
      <trkpt lat="45.69631" lon="6.21673">
        <ele>1345</ele>
        <time>2011-11-01T10:02:13Z</time>
      </trkpt>
      <trkpt lat="45.69644" lon="6.21677">
        <ele>1345</ele>
        <time>2011-11-01T10:02:17Z</time>
      </trkpt>
      <trkpt lat="45.69662" lon="6.21686">
        <ele>1344</ele>
        <time>2011-11-01T10:02:21Z</time>
      </trkpt>
      <trkpt lat="45.69667" lon="6.21689">
        <ele>1343</ele>
        <time>2011-11-01T10:02:22Z</time>
      </trkpt>
      <trkpt lat="45.69685" lon="6.21685">
        <ele>1343</ele>
        <time>2011-11-01T10:02:27Z</time>
      </trkpt>
      <trkpt lat="45.69687" lon="6.21685">
        <ele>1343</ele>
        <time>2011-11-01T10:02:28Z</time>
      </trkpt>
      <trkpt lat="45.69704" lon="6.21688">
        <ele>1343</ele>
        <time>2011-11-01T10:02:36Z</time>
      </trkpt>
      <trkpt lat="45.69719" lon="6.21701">
        <ele>1345</ele>
        <time>2011-11-01T10:02:43Z</time>
      </trkpt>
      <trkpt lat="45.69731" lon="6.21722">
        <ele>1349</ele>
        <time>2011-11-01T10:02:51Z</time>
      </trkpt>
      <trkpt lat="45.69744" lon="6.21732">
        <ele>1352</ele>
        <time>2011-11-01T10:02:58Z</time>
      </trkpt>
      <trkpt lat="45.69756" lon="6.2174">
        <ele>1353</ele>
        <time>2011-11-01T10:03:04Z</time>
      </trkpt>
      <trkpt lat="45.69769" lon="6.21744">
        <ele>1351</ele>
        <time>2011-11-01T10:03:10Z</time>
      </trkpt>
      <trkpt lat="45.69781" lon="6.21742">
        <ele>1348</ele>
        <time>2011-11-01T10:03:16Z</time>
      </trkpt>
      <trkpt lat="45.69795" lon="6.21741">
        <ele>1348</ele>
        <time>2011-11-01T10:03:23Z</time>
      </trkpt>
      <trkpt lat="45.6981" lon="6.2174">
        <ele>1349</ele>
        <time>2011-11-01T10:03:30Z</time>
      </trkpt>
      <trkpt lat="45.69827" lon="6.21749">
        <ele>1355</ele>
        <time>2011-11-01T10:03:38Z</time>
      </trkpt>
      <trkpt lat="45.6984" lon="6.21754">
        <ele>1366</ele>
        <time>2011-11-01T10:03:44Z</time>
      </trkpt>
      <trkpt lat="45.69855" lon="6.21755">
        <ele>1373</ele>
        <time>2011-11-01T10:03:51Z</time>
      </trkpt>
      <trkpt lat="45.69869" lon="6.21752">
        <ele>1375</ele>
        <time>2011-11-01T10:03:58Z</time>
      </trkpt>
      <trkpt lat="45.69889" lon="6.21753">
        <ele>1375</ele>
        <time>2011-11-01T10:04:08Z</time>
      </trkpt>
      <trkpt lat="45.69901" lon="6.21753">
        <ele>1372</ele>
        <time>2011-11-01T10:04:14Z</time>
      </trkpt>
      <trkpt lat="45.69919" lon="6.21754">
        <ele>1367</ele>
        <time>2011-11-01T10:04:23Z</time>
      </trkpt>
      <trkpt lat="45.69934" lon="6.21759">
        <ele>1372</ele>
        <time>2011-11-01T10:04:31Z</time>
      </trkpt>
      <trkpt lat="45.69944" lon="6.2176">
        <ele>1374</ele>
        <time>2011-11-01T10:04:36Z</time>
      </trkpt>
      <trkpt lat="45.69957" lon="6.21764">
        <ele>1374</ele>
        <time>2011-11-01T10:04:43Z</time>
      </trkpt>
      <trkpt lat="45.69976" lon="6.21771">
        <ele>1374</ele>
        <time>2011-11-01T10:04:52Z</time>
      </trkpt>
      <trkpt lat="45.69988" lon="6.21781">
        <ele>1375</ele>
        <time>2011-11-01T10:04:58Z</time>
      </trkpt>
      <trkpt lat="45.70001" lon="6.21795">
        <ele>1371</ele>
        <time>2011-11-01T10:05:05Z</time>
      </trkpt>
      <trkpt lat="45.70015" lon="6.21807">
        <ele>1374</ele>
        <time>2011-11-01T10:05:12Z</time>
      </trkpt>
      <trkpt lat="45.70027" lon="6.21819">
        <ele>1375</ele>
        <time>2011-11-01T10:05:18Z</time>
      </trkpt>
      <trkpt lat="45.70031" lon="6.21824">
        <ele>1374</ele>
        <time>2011-11-01T10:05:22Z</time>
      </trkpt>
      <trkpt lat="45.70039" lon="6.21828">
        <ele>1373</ele>
        <time>2011-11-01T10:05:41Z</time>
      </trkpt>
      <trkpt lat="45.70046" lon="6.2184">
        <ele>1393</ele>
        <time>2011-11-01T10:05:45Z</time>
      </trkpt>
      <trkpt lat="45.70066" lon="6.21854">
        <ele>1391</ele>
        <time>2011-11-01T10:05:52Z</time>
      </trkpt>
      <trkpt lat="45.70087" lon="6.21864">
        <ele>1379</ele>
        <time>2011-11-01T10:05:59Z</time>
      </trkpt>
      <trkpt lat="45.70111" lon="6.21878">
        <ele>1380</ele>
        <time>2011-11-01T10:06:07Z</time>
      </trkpt>
      <trkpt lat="45.70127" lon="6.21893">
        <ele>1381</ele>
        <time>2011-11-01T10:06:13Z</time>
      </trkpt>
      <trkpt lat="45.70138" lon="6.21907">
        <ele>1382</ele>
        <time>2011-11-01T10:06:18Z</time>
      </trkpt>
      <trkpt lat="45.70155" lon="6.21921">
        <ele>1397</ele>
        <time>2011-11-01T10:06:24Z</time>
      </trkpt>
      <trkpt lat="45.70173" lon="6.21932">
        <ele>1390</ele>
        <time>2011-11-01T10:06:30Z</time>
      </trkpt>
      <trkpt lat="45.70191" lon="6.21934">
        <ele>1390</ele>
        <time>2011-11-01T10:06:36Z</time>
      </trkpt>
      <trkpt lat="45.70208" lon="6.21939">
        <ele>1388</ele>
        <time>2011-11-01T10:06:41Z</time>
      </trkpt>
      <trkpt lat="45.70227" lon="6.21953">
        <ele>1388</ele>
        <time>2011-11-01T10:06:47Z</time>
      </trkpt>
      <trkpt lat="45.7024" lon="6.21968">
        <ele>1390</ele>
        <time>2011-11-01T10:06:52Z</time>
      </trkpt>
      <trkpt lat="45.70247" lon="6.21988">
        <ele>1392</ele>
        <time>2011-11-01T10:06:57Z</time>
      </trkpt>
      <trkpt lat="45.70258" lon="6.2202">
        <ele>1389</ele>
        <time>2011-11-01T10:07:03Z</time>
      </trkpt>
      <trkpt lat="45.70266" lon="6.22044">
        <ele>1391</ele>
        <time>2011-11-01T10:07:07Z</time>
      </trkpt>
      <trkpt lat="45.70284" lon="6.2207">
        <ele>1392</ele>
        <time>2011-11-01T10:07:13Z</time>
      </trkpt>
      <trkpt lat="45.70292" lon="6.22085">
        <ele>1409</ele>
        <time>2011-11-01T10:07:16Z</time>
      </trkpt>
      <trkpt lat="45.70308" lon="6.22093">
        <ele>1403</ele>
        <time>2011-11-01T10:07:20Z</time>
      </trkpt>
      <trkpt lat="45.70311" lon="6.22095">
        <ele>1402</ele>
        <time>2011-11-01T10:07:21Z</time>
      </trkpt>
      <trkpt lat="45.70327" lon="6.22104">
        <ele>1399</ele>
        <time>2011-11-01T10:07:25Z</time>
      </trkpt>
      <trkpt lat="45.70344" lon="6.22112">
        <ele>1380</ele>
        <time>2011-11-01T10:07:29Z</time>
      </trkpt>
      <trkpt lat="45.70356" lon="6.22121">
        <ele>1380</ele>
        <time>2011-11-01T10:07:32Z</time>
      </trkpt>
      <trkpt lat="45.70368" lon="6.22137">
        <ele>1380</ele>
        <time>2011-11-01T10:07:36Z</time>
      </trkpt>
      <trkpt lat="45.70378" lon="6.22152">
        <ele>1379</ele>
        <time>2011-11-01T10:07:40Z</time>
      </trkpt>
      <trkpt lat="45.70388" lon="6.22173">
        <ele>1391</ele>
        <time>2011-11-01T10:07:45Z</time>
      </trkpt>
      <trkpt lat="45.70394" lon="6.222">
        <ele>1395</ele>
        <time>2011-11-01T10:07:51Z</time>
      </trkpt>
      <trkpt lat="45.70398" lon="6.22221">
        <ele>1397</ele>
        <time>2011-11-01T10:07:55Z</time>
      </trkpt>
      <trkpt lat="45.70408" lon="6.22246">
        <ele>1392</ele>
        <time>2011-11-01T10:08:00Z</time>
      </trkpt>
      <trkpt lat="45.70418" lon="6.22275">
        <ele>1381</ele>
        <time>2011-11-01T10:08:06Z</time>
      </trkpt>
      <trkpt lat="45.70416" lon="6.22299">
        <ele>1412</ele>
        <time>2011-11-01T10:08:11Z</time>
      </trkpt>
      <trkpt lat="45.70419" lon="6.22314">
        <ele>1389</ele>
        <time>2011-11-01T10:08:13Z</time>
      </trkpt>
      <trkpt lat="45.70432" lon="6.22329">
        <ele>1390</ele>
        <time>2011-11-01T10:08:18Z</time>
      </trkpt>
      <trkpt lat="45.70437" lon="6.22346">
        <ele>1398</ele>
        <time>2011-11-01T10:08:22Z</time>
      </trkpt>
      <trkpt lat="45.70446" lon="6.22364">
        <ele>1397</ele>
        <time>2011-11-01T10:08:27Z</time>
      </trkpt>
      <trkpt lat="45.70463" lon="6.2238">
        <ele>1396</ele>
        <time>2011-11-01T10:08:34Z</time>
      </trkpt>
      <trkpt lat="45.70471" lon="6.224">
        <ele>1397</ele>
        <time>2011-11-01T10:08:40Z</time>
      </trkpt>
      <trkpt lat="45.70477" lon="6.2242">
        <ele>1406</ele>
        <time>2011-11-01T10:08:46Z</time>
      </trkpt>
      <trkpt lat="45.70483" lon="6.22431">
        <ele>1406</ele>
        <time>2011-11-01T10:08:51Z</time>
      </trkpt>
      <trkpt lat="45.70498" lon="6.22438">
        <ele>1406</ele>
        <time>2011-11-01T10:08:57Z</time>
      </trkpt>
      <trkpt lat="45.70505" lon="6.22451">
        <ele>1401</ele>
        <time>2011-11-01T10:09:02Z</time>
      </trkpt>
      <trkpt lat="45.7051" lon="6.22472">
        <ele>1405</ele>
        <time>2011-11-01T10:09:08Z</time>
      </trkpt>
      <trkpt lat="45.70527" lon="6.22489">
        <ele>1406</ele>
        <time>2011-11-01T10:09:16Z</time>
      </trkpt>
      <trkpt lat="45.7054" lon="6.225">
        <ele>1423</ele>
        <time>2011-11-01T10:09:24Z</time>
      </trkpt>
      <trkpt lat="45.70553" lon="6.22506">
        <ele>1423</ele>
        <time>2011-11-01T10:09:30Z</time>
      </trkpt>
      <trkpt lat="45.70562" lon="6.22509">
        <ele>1422</ele>
        <time>2011-11-01T10:09:34Z</time>
      </trkpt>
      <trkpt lat="45.70575" lon="6.22507">
        <ele>1419</ele>
        <time>2011-11-01T10:09:40Z</time>
      </trkpt>
      <trkpt lat="45.70579" lon="6.22507">
        <ele>1418</ele>
        <time>2011-11-01T10:09:41Z</time>
      </trkpt>
      <trkpt lat="45.706" lon="6.22501">
        <ele>1423</ele>
        <time>2011-11-01T10:09:48Z</time>
      </trkpt>
      <trkpt lat="45.70617" lon="6.22496">
        <ele>1408</ele>
        <time>2011-11-01T10:09:54Z</time>
      </trkpt>
      <trkpt lat="45.7063" lon="6.22487">
        <ele>1408</ele>
        <time>2011-11-01T10:09:59Z</time>
      </trkpt>
      <trkpt lat="45.70652" lon="6.22478">
        <ele>1410</ele>
        <time>2011-11-01T10:10:07Z</time>
      </trkpt>
      <trkpt lat="45.70669" lon="6.22469">
        <ele>1414</ele>
        <time>2011-11-01T10:10:13Z</time>
      </trkpt>
      <trkpt lat="45.70685" lon="6.22454">
        <ele>1410</ele>
        <time>2011-11-01T10:10:19Z</time>
      </trkpt>
      <trkpt lat="45.70705" lon="6.22429">
        <ele>1408</ele>
        <time>2011-11-01T10:10:29Z</time>
      </trkpt>
      <trkpt lat="45.70715" lon="6.22422">
        <ele>1408</ele>
        <time>2011-11-01T10:10:34Z</time>
      </trkpt>
      <trkpt lat="45.70726" lon="6.22418">
        <ele>1408</ele>
        <time>2011-11-01T10:10:40Z</time>
      </trkpt>
      <trkpt lat="45.7074" lon="6.22421">
        <ele>1407</ele>
        <time>2011-11-01T10:10:47Z</time>
      </trkpt>
      <trkpt lat="45.70752" lon="6.22433">
        <ele>1410</ele>
        <time>2011-11-01T10:10:54Z</time>
      </trkpt>
      <trkpt lat="45.70763" lon="6.2245">
        <ele>1413</ele>
        <time>2011-11-01T10:11:02Z</time>
      </trkpt>
      <trkpt lat="45.70758" lon="6.22454">
        <ele>1414</ele>
        <time>2011-11-01T10:11:07Z</time>
      </trkpt>
      <trkpt lat="45.70757" lon="6.22454">
        <ele>1414</ele>
        <time>2011-11-01T10:11:08Z</time>
      </trkpt>
      <trkpt lat="45.7074" lon="6.22459">
        <ele>1415</ele>
        <time>2011-11-01T10:11:17Z</time>
      </trkpt>
      <trkpt lat="45.70731" lon="6.22464">
        <ele>1415</ele>
        <time>2011-11-01T10:11:23Z</time>
      </trkpt>
      <trkpt lat="45.70722" lon="6.22472">
        <ele>1416</ele>
        <time>2011-11-01T10:11:29Z</time>
      </trkpt>
      <trkpt lat="45.70715" lon="6.22477">
        <ele>1417</ele>
        <time>2011-11-01T10:11:35Z</time>
      </trkpt>
      <trkpt lat="45.70712" lon="6.2248">
        <ele>1417</ele>
        <time>2011-11-01T10:11:40Z</time>
      </trkpt>
      <trkpt lat="45.70708" lon="6.22484">
        <ele>1417</ele>
        <time>2011-11-01T10:11:49Z</time>
      </trkpt>
      <trkpt lat="45.707" lon="6.22491">
        <ele>1417</ele>
        <time>2011-11-01T10:11:55Z</time>
      </trkpt>
      <trkpt lat="45.70694" lon="6.22501">
        <ele>1437</ele>
        <time>2011-11-01T10:12:01Z</time>
      </trkpt>
      <trkpt lat="45.70689" lon="6.22505">
        <ele>1436</ele>
        <time>2011-11-01T10:12:04Z</time>
      </trkpt>
      <trkpt lat="45.70683" lon="6.22514">
        <ele>1436</ele>
        <time>2011-11-01T10:12:10Z</time>
      </trkpt>
      <trkpt lat="45.70673" lon="6.22524">
        <ele>1438</ele>
        <time>2011-11-01T10:12:16Z</time>
      </trkpt>
      <trkpt lat="45.70662" lon="6.22535">
        <ele>1436</ele>
        <time>2011-11-01T10:12:23Z</time>
      </trkpt>
      <trkpt lat="45.70652" lon="6.22545">
        <ele>1439</ele>
        <time>2011-11-01T10:12:30Z</time>
      </trkpt>
      <trkpt lat="45.70644" lon="6.22557">
        <ele>1441</ele>
        <time>2011-11-01T10:12:36Z</time>
      </trkpt>
      <trkpt lat="45.70633" lon="6.22565">
        <ele>1441</ele>
        <time>2011-11-01T10:12:43Z</time>
      </trkpt>
      <trkpt lat="45.70631" lon="6.22568">
        <ele>1441</ele>
        <time>2011-11-01T10:12:45Z</time>
      </trkpt>
      <trkpt lat="45.70624" lon="6.22574">
        <ele>1441</ele>
        <time>2011-11-01T10:12:51Z</time>
      </trkpt>
      <trkpt lat="45.70617" lon="6.22581">
        <ele>1441</ele>
        <time>2011-11-01T10:12:57Z</time>
      </trkpt>
      <trkpt lat="45.7061" lon="6.22585">
        <ele>1462</ele>
        <time>2011-11-01T10:13:02Z</time>
      </trkpt>
      <trkpt lat="45.70603" lon="6.22592">
        <ele>1460</ele>
        <time>2011-11-01T10:13:07Z</time>
      </trkpt>
      <trkpt lat="45.706" lon="6.22595">
        <ele>1460</ele>
        <time>2011-11-01T10:13:09Z</time>
      </trkpt>
      <trkpt lat="45.70591" lon="6.226">
        <ele>1459</ele>
        <time>2011-11-01T10:13:15Z</time>
      </trkpt>
      <trkpt lat="45.70588" lon="6.22601">
        <ele>1459</ele>
        <time>2011-11-01T10:13:17Z</time>
      </trkpt>
      <trkpt lat="45.70581" lon="6.22611">
        <ele>1457</ele>
        <time>2011-11-01T10:13:23Z</time>
      </trkpt>
      <trkpt lat="45.70576" lon="6.22611">
        <ele>1457</ele>
        <time>2011-11-01T10:13:28Z</time>
      </trkpt>
      <trkpt lat="45.70572" lon="6.22611">
        <ele>1457</ele>
        <time>2011-11-01T10:13:36Z</time>
      </trkpt>
      <trkpt lat="45.70565" lon="6.22616">
        <ele>1459</ele>
        <time>2011-11-01T10:13:45Z</time>
      </trkpt>
      <trkpt lat="45.70562" lon="6.22621">
        <ele>1461</ele>
        <time>2011-11-01T10:13:51Z</time>
      </trkpt>
      <trkpt lat="45.70559" lon="6.22628">
        <ele>1462</ele>
        <time>2011-11-01T10:13:58Z</time>
      </trkpt>
      <trkpt lat="45.70556" lon="6.22636">
        <ele>1464</ele>
        <time>2011-11-01T10:14:05Z</time>
      </trkpt>
      <trkpt lat="45.70551" lon="6.22637">
        <ele>1464</ele>
        <time>2011-11-01T10:14:14Z</time>
      </trkpt>
      <trkpt lat="45.70547" lon="6.22633">
        <ele>1463</ele>
        <time>2011-11-01T10:14:17Z</time>
      </trkpt>
      <trkpt lat="45.70534" lon="6.22623">
        <ele>1460</ele>
        <time>2011-11-01T10:14:24Z</time>
      </trkpt>
      <trkpt lat="45.7053" lon="6.22627">
        <ele>1461</ele>
        <time>2011-11-01T10:14:27Z</time>
      </trkpt>
      <trkpt lat="45.70522" lon="6.22636">
        <ele>1463</ele>
        <time>2011-11-01T10:14:32Z</time>
      </trkpt>
      <trkpt lat="45.70512" lon="6.22639">
        <ele>1463</ele>
        <time>2011-11-01T10:14:37Z</time>
      </trkpt>
      <trkpt lat="45.70505" lon="6.22642">
        <ele>1465</ele>
        <time>2011-11-01T10:14:41Z</time>
      </trkpt>
      <trkpt lat="45.70497" lon="6.22653">
        <ele>1468</ele>
        <time>2011-11-01T10:14:47Z</time>
      </trkpt>
      <trkpt lat="45.70491" lon="6.2265">
        <ele>1467</ele>
        <time>2011-11-01T10:14:51Z</time>
      </trkpt>
      <trkpt lat="45.7048" lon="6.22654">
        <ele>1466</ele>
        <time>2011-11-01T10:14:57Z</time>
      </trkpt>
      <trkpt lat="45.7047" lon="6.22651">
        <ele>1465</ele>
        <time>2011-11-01T10:15:04Z</time>
      </trkpt>
      <trkpt lat="45.70468" lon="6.22651">
        <ele>1465</ele>
        <time>2011-11-01T10:15:05Z</time>
      </trkpt>
      <trkpt lat="45.70463" lon="6.22649">
        <ele>1465</ele>
        <time>2011-11-01T10:15:10Z</time>
      </trkpt>
      <trkpt lat="45.70457" lon="6.22645">
        <ele>1464</ele>
        <time>2011-11-01T10:15:23Z</time>
      </trkpt>
      <trkpt lat="45.70454" lon="6.22649">
        <ele>1465</ele>
        <time>2011-11-01T10:15:30Z</time>
      </trkpt>
      <trkpt lat="45.70457" lon="6.22655">
        <ele>1466</ele>
        <time>2011-11-01T10:15:41Z</time>
      </trkpt>
      <trkpt lat="45.70457" lon="6.22657">
        <ele>1466</ele>
        <time>2011-11-01T10:15:42Z</time>
      </trkpt>
      <trkpt lat="45.70451" lon="6.22665">
        <ele>1467</ele>
        <time>2011-11-01T10:15:48Z</time>
      </trkpt>
      <trkpt lat="45.70445" lon="6.22661">
        <ele>1468</ele>
        <time>2011-11-01T10:15:54Z</time>
      </trkpt>
      <trkpt lat="45.70437" lon="6.22662">
        <ele>1470</ele>
        <time>2011-11-01T10:16:03Z</time>
      </trkpt>
      <trkpt lat="45.70433" lon="6.22667">
        <ele>1489</ele>
        <time>2011-11-01T10:16:11Z</time>
      </trkpt>
      <trkpt lat="45.7043" lon="6.2267">
        <ele>1489</ele>
        <time>2011-11-01T10:16:18Z</time>
      </trkpt>
      <trkpt lat="45.70427" lon="6.22671">
        <ele>1487</ele>
        <time>2011-11-01T10:16:21Z</time>
      </trkpt>
      <trkpt lat="45.7042" lon="6.22672">
        <ele>1485</ele>
        <time>2011-11-01T10:16:29Z</time>
      </trkpt>
      <trkpt lat="45.70416" lon="6.22673">
        <ele>1489</ele>
        <time>2011-11-01T10:16:34Z</time>
      </trkpt>
      <trkpt lat="45.70409" lon="6.22671">
        <ele>1493</ele>
        <time>2011-11-01T10:16:41Z</time>
      </trkpt>
      <trkpt lat="45.70402" lon="6.2267">
        <ele>1500</ele>
        <time>2011-11-01T10:16:49Z</time>
      </trkpt>
      <trkpt lat="45.704" lon="6.22672">
        <ele>1502</ele>
        <time>2011-11-01T10:16:53Z</time>
      </trkpt>
      <trkpt lat="45.70398" lon="6.22674">
        <ele>1504</ele>
        <time>2011-11-01T10:17:01Z</time>
      </trkpt>
      <trkpt lat="45.70394" lon="6.22673">
        <ele>1506</ele>
        <time>2011-11-01T10:17:07Z</time>
      </trkpt>
      <trkpt lat="45.70391" lon="6.22673">
        <ele>1508</ele>
        <time>2011-11-01T10:17:12Z</time>
      </trkpt>
      <trkpt lat="45.70386" lon="6.2267">
        <ele>1511</ele>
        <time>2011-11-01T10:17:19Z</time>
      </trkpt>
      <trkpt lat="45.70383" lon="6.2267">
        <ele>1512</ele>
        <time>2011-11-01T10:17:26Z</time>
      </trkpt>
      <trkpt lat="45.70381" lon="6.22669">
        <ele>1513</ele>
        <time>2011-11-01T10:17:32Z</time>
      </trkpt>
      <trkpt lat="45.70376" lon="6.22666">
        <ele>1492</ele>
        <time>2011-11-01T10:17:39Z</time>
      </trkpt>
      <trkpt lat="45.70375" lon="6.22665">
        <ele>1492</ele>
        <time>2011-11-01T10:17:40Z</time>
      </trkpt>
      <trkpt lat="45.7037" lon="6.2266">
        <ele>1495</ele>
        <time>2011-11-01T10:17:46Z</time>
      </trkpt>
      <trkpt lat="45.70363" lon="6.22653">
        <ele>1497</ele>
        <time>2011-11-01T10:17:54Z</time>
      </trkpt>
      <trkpt lat="45.70356" lon="6.22646">
        <ele>1497</ele>
        <time>2011-11-01T10:18:02Z</time>
      </trkpt>
      <trkpt lat="45.7035" lon="6.22643">
        <ele>1499</ele>
        <time>2011-11-01T10:18:09Z</time>
      </trkpt>
      <trkpt lat="45.70345" lon="6.22635">
        <ele>1496</ele>
        <time>2011-11-01T10:18:16Z</time>
      </trkpt>
      <trkpt lat="45.70343" lon="6.22629">
        <ele>1494</ele>
        <time>2011-11-01T10:18:24Z</time>
      </trkpt>
      <trkpt lat="45.7034" lon="6.22622">
        <ele>1492</ele>
        <time>2011-11-01T10:18:31Z</time>
      </trkpt>
      <trkpt lat="45.70337" lon="6.22612">
        <ele>1489</ele>
        <time>2011-11-01T10:18:39Z</time>
      </trkpt>
      <trkpt lat="45.70335" lon="6.22606">
        <ele>1487</ele>
        <time>2011-11-01T10:18:48Z</time>
      </trkpt>
      <trkpt lat="45.70333" lon="6.22602">
        <ele>1518</ele>
        <time>2011-11-01T10:18:54Z</time>
      </trkpt>
      <trkpt lat="45.70331" lon="6.22598">
        <ele>1513</ele>
        <time>2011-11-01T10:19:00Z</time>
      </trkpt>
      <trkpt lat="45.70327" lon="6.22591">
        <ele>1506</ele>
        <time>2011-11-01T10:19:07Z</time>
      </trkpt>
      <trkpt lat="45.70322" lon="6.22581">
        <ele>1499</ele>
        <time>2011-11-01T10:19:15Z</time>
      </trkpt>
      <trkpt lat="45.70317" lon="6.22572">
        <ele>1506</ele>
        <time>2011-11-01T10:19:23Z</time>
      </trkpt>
      <trkpt lat="45.70314" lon="6.22572">
        <ele>1507</ele>
        <time>2011-11-01T10:19:29Z</time>
      </trkpt>
      <trkpt lat="45.7031" lon="6.22565">
        <ele>1512</ele>
        <time>2011-11-01T10:19:37Z</time>
      </trkpt>
      <trkpt lat="45.70305" lon="6.2256">
        <ele>1515</ele>
        <time>2011-11-01T10:19:43Z</time>
      </trkpt>
      <trkpt lat="45.70303" lon="6.22558">
        <ele>1516</ele>
        <time>2011-11-01T10:19:49Z</time>
      </trkpt>
      <trkpt lat="45.70302" lon="6.22558">
        <ele>1517</ele>
        <time>2011-11-01T10:19:54Z</time>
      </trkpt>
      <trkpt lat="45.70297" lon="6.22554">
        <ele>1520</ele>
        <time>2011-11-01T10:20:01Z</time>
      </trkpt>
      <trkpt lat="45.70291" lon="6.2255">
        <ele>1522</ele>
        <time>2011-11-01T10:20:08Z</time>
      </trkpt>
      <trkpt lat="45.70289" lon="6.22546">
        <ele>1523</ele>
        <time>2011-11-01T10:20:13Z</time>
      </trkpt>
      <trkpt lat="45.70285" lon="6.22543">
        <ele>1524</ele>
        <time>2011-11-01T10:20:20Z</time>
      </trkpt>
      <trkpt lat="45.70285" lon="6.22545">
        <ele>1525</ele>
        <time>2011-11-01T10:20:25Z</time>
      </trkpt>
      <trkpt lat="45.70288" lon="6.22556">
        <ele>1525</ele>
        <time>2011-11-01T10:20:34Z</time>
      </trkpt>
      <trkpt lat="45.7029" lon="6.22561">
        <ele>1525</ele>
        <time>2011-11-01T10:20:37Z</time>
      </trkpt>
      <trkpt lat="45.70292" lon="6.22568">
        <ele>1525</ele>
        <time>2011-11-01T10:20:45Z</time>
      </trkpt>
      <trkpt lat="45.70295" lon="6.22574">
        <ele>1523</ele>
        <time>2011-11-01T10:20:54Z</time>
      </trkpt>
      <trkpt lat="45.70298" lon="6.22585">
        <ele>1540</ele>
        <time>2011-11-01T10:21:01Z</time>
      </trkpt>
      <trkpt lat="45.703" lon="6.22597">
        <ele>1540</ele>
        <time>2011-11-01T10:21:07Z</time>
      </trkpt>
      <trkpt lat="45.703" lon="6.22607">
        <ele>1542</ele>
        <time>2011-11-01T10:21:12Z</time>
      </trkpt>
      <trkpt lat="45.70301" lon="6.2261">
        <ele>1543</ele>
        <time>2011-11-01T10:21:16Z</time>
      </trkpt>
      <trkpt lat="45.70303" lon="6.22615">
        <ele>1543</ele>
        <time>2011-11-01T10:21:22Z</time>
      </trkpt>
      <trkpt lat="45.70304" lon="6.22623">
        <ele>1544</ele>
        <time>2011-11-01T10:21:27Z</time>
      </trkpt>
      <trkpt lat="45.70309" lon="6.22635">
        <ele>1545</ele>
        <time>2011-11-01T10:21:35Z</time>
      </trkpt>
      <trkpt lat="45.70312" lon="6.22644">
        <ele>1544</ele>
        <time>2011-11-01T10:21:40Z</time>
      </trkpt>
      <trkpt lat="45.70317" lon="6.22656">
        <ele>1542</ele>
        <time>2011-11-01T10:21:49Z</time>
      </trkpt>
      <trkpt lat="45.70318" lon="6.22656">
        <ele>1541</ele>
        <time>2011-11-01T10:21:55Z</time>
      </trkpt>
      <trkpt lat="45.70319" lon="6.22657">
        <ele>1541</ele>
        <time>2011-11-01T10:22:00Z</time>
      </trkpt>
      <trkpt lat="45.70321" lon="6.22661">
        <ele>1539</ele>
        <time>2011-11-01T10:22:16Z</time>
      </trkpt>
      <trkpt lat="45.70319" lon="6.22663">
        <ele>1540</ele>
        <time>2011-11-01T10:22:27Z</time>
      </trkpt>
      <trkpt lat="45.70321" lon="6.22664">
        <ele>1539</ele>
        <time>2011-11-01T10:22:33Z</time>
      </trkpt>
      <trkpt lat="45.70323" lon="6.22665">
        <ele>1537</ele>
        <time>2011-11-01T10:22:41Z</time>
      </trkpt>
      <trkpt lat="45.70324" lon="6.22667">
        <ele>1542</ele>
        <time>2011-11-01T10:22:45Z</time>
      </trkpt>
      <trkpt lat="45.70327" lon="6.22673">
        <ele>1542</ele>
        <time>2011-11-01T10:22:53Z</time>
      </trkpt>
      <trkpt lat="45.70327" lon="6.22675">
        <ele>1543</ele>
        <time>2011-11-01T10:23:01Z</time>
      </trkpt>
      <trkpt lat="45.70325" lon="6.22682">
        <ele>1548</ele>
        <time>2011-11-01T10:23:09Z</time>
      </trkpt>
      <trkpt lat="45.70325" lon="6.22685">
        <ele>1549</ele>
        <time>2011-11-01T10:23:16Z</time>
      </trkpt>
      <trkpt lat="45.70328" lon="6.22686">
        <ele>1549</ele>
        <time>2011-11-01T10:23:21Z</time>
      </trkpt>
      <trkpt lat="45.70327" lon="6.22682">
        <ele>1547</ele>
        <time>2011-11-01T10:23:28Z</time>
      </trkpt>
      <trkpt lat="45.70327" lon="6.22688">
        <ele>1550</ele>
        <time>2011-11-01T10:23:36Z</time>
      </trkpt>
      <trkpt lat="45.70327" lon="6.22692">
        <ele>1552</ele>
        <time>2011-11-01T10:23:45Z</time>
      </trkpt>
      <trkpt lat="45.70329" lon="6.22692">
        <ele>1552</ele>
        <time>2011-11-01T10:23:51Z</time>
      </trkpt>
      <trkpt lat="45.70331" lon="6.22694">
        <ele>1552</ele>
        <time>2011-11-01T10:24:10Z</time>
      </trkpt>
      <trkpt lat="45.70335" lon="6.22699">
        <ele>1527</ele>
        <time>2011-11-01T10:24:18Z</time>
      </trkpt>
      <trkpt lat="45.70339" lon="6.22705">
        <ele>1528</ele>
        <time>2011-11-01T10:24:27Z</time>
      </trkpt>
      <trkpt lat="45.7034" lon="6.2271">
        <ele>1528</ele>
        <time>2011-11-01T10:24:30Z</time>
      </trkpt>
      <trkpt lat="45.70342" lon="6.22717">
        <ele>1530</ele>
        <time>2011-11-01T10:24:36Z</time>
      </trkpt>
      <trkpt lat="45.70345" lon="6.22722">
        <ele>1531</ele>
        <time>2011-11-01T10:24:44Z</time>
      </trkpt>
      <trkpt lat="45.70347" lon="6.22724">
        <ele>1531</ele>
        <time>2011-11-01T10:24:50Z</time>
      </trkpt>
      <trkpt lat="45.7035" lon="6.2273">
        <ele>1532</ele>
        <time>2011-11-01T10:24:57Z</time>
      </trkpt>
      <trkpt lat="45.70353" lon="6.22738">
        <ele>1533</ele>
        <time>2011-11-01T10:25:05Z</time>
      </trkpt>
      <trkpt lat="45.70355" lon="6.22739">
        <ele>1533</ele>
        <time>2011-11-01T10:25:06Z</time>
      </trkpt>
      <trkpt lat="45.70361" lon="6.22746">
        <ele>1532</ele>
        <time>2011-11-01T10:25:12Z</time>
      </trkpt>
      <trkpt lat="45.70369" lon="6.22756">
        <ele>1544</ele>
        <time>2011-11-01T10:25:20Z</time>
      </trkpt>
      <trkpt lat="45.70379" lon="6.22766">
        <ele>1544</ele>
        <time>2011-11-01T10:25:29Z</time>
      </trkpt>
      <trkpt lat="45.7038" lon="6.22767">
        <ele>1543</ele>
        <time>2011-11-01T10:25:31Z</time>
      </trkpt>
      <trkpt lat="45.70382" lon="6.22779">
        <ele>1544</ele>
        <time>2011-11-01T10:25:37Z</time>
      </trkpt>
      <trkpt lat="45.70387" lon="6.22794">
        <ele>1546</ele>
        <time>2011-11-01T10:25:41Z</time>
      </trkpt>
      <trkpt lat="45.70385" lon="6.22808">
        <ele>1547</ele>
        <time>2011-11-01T10:25:45Z</time>
      </trkpt>
      <trkpt lat="45.70387" lon="6.2282">
        <ele>1548</ele>
        <time>2011-11-01T10:25:49Z</time>
      </trkpt>
      <trkpt lat="45.70391" lon="6.22839">
        <ele>1556</ele>
        <time>2011-11-01T10:25:56Z</time>
      </trkpt>
      <trkpt lat="45.70392" lon="6.22844">
        <ele>1556</ele>
        <time>2011-11-01T10:25:58Z</time>
      </trkpt>
      <trkpt lat="45.70395" lon="6.22865">
        <ele>1557</ele>
        <time>2011-11-01T10:26:06Z</time>
      </trkpt>
      <trkpt lat="45.70396" lon="6.22867">
        <ele>1557</ele>
        <time>2011-11-01T10:26:07Z</time>
      </trkpt>
      <trkpt lat="45.70403" lon="6.22874">
        <ele>1558</ele>
        <time>2011-11-01T10:26:12Z</time>
      </trkpt>
      <trkpt lat="45.7041" lon="6.22879">
        <ele>1559</ele>
        <time>2011-11-01T10:26:18Z</time>
      </trkpt>
      <trkpt lat="45.70413" lon="6.22882">
        <ele>1560</ele>
        <time>2011-11-01T10:26:21Z</time>
      </trkpt>
      <trkpt lat="45.70415" lon="6.22883">
        <ele>1560</ele>
        <time>2011-11-01T10:26:23Z</time>
      </trkpt>
      <trkpt lat="45.70422" lon="6.2289">
        <ele>1569</ele>
        <time>2011-11-01T10:26:31Z</time>
      </trkpt>
      <trkpt lat="45.70428" lon="6.22895">
        <ele>1570</ele>
        <time>2011-11-01T10:26:40Z</time>
      </trkpt>
      <trkpt lat="45.70433" lon="6.22895">
        <ele>1570</ele>
        <time>2011-11-01T10:26:47Z</time>
      </trkpt>
      <trkpt lat="45.7044" lon="6.22894">
        <ele>1571</ele>
        <time>2011-11-01T10:26:56Z</time>
      </trkpt>
      <trkpt lat="45.70442" lon="6.22893">
        <ele>1571</ele>
        <time>2011-11-01T10:27:04Z</time>
      </trkpt>
      <trkpt lat="45.70449" lon="6.22886">
        <ele>1571</ele>
        <time>2011-11-01T10:27:13Z</time>
      </trkpt>
      <trkpt lat="45.70456" lon="6.22877">
        <ele>1571</ele>
        <time>2011-11-01T10:27:22Z</time>
      </trkpt>
      <trkpt lat="45.70458" lon="6.22872">
        <ele>1571</ele>
        <time>2011-11-01T10:27:26Z</time>
      </trkpt>
      <trkpt lat="45.70461" lon="6.22869">
        <ele>1571</ele>
        <time>2011-11-01T10:27:30Z</time>
      </trkpt>
      <trkpt lat="45.70461" lon="6.22862">
        <ele>1570</ele>
        <time>2011-11-01T10:27:37Z</time>
      </trkpt>
      <trkpt lat="45.70462" lon="6.22858">
        <ele>1570</ele>
        <time>2011-11-01T10:27:44Z</time>
      </trkpt>
      <trkpt lat="45.70462" lon="6.22851">
        <ele>1569</ele>
        <time>2011-11-01T10:27:48Z</time>
      </trkpt>
      <trkpt lat="45.70463" lon="6.22844">
        <ele>1569</ele>
        <time>2011-11-01T10:27:55Z</time>
      </trkpt>
      <trkpt lat="45.70465" lon="6.22836">
        <ele>1569</ele>
        <time>2011-11-01T10:28:03Z</time>
      </trkpt>
      <trkpt lat="45.70465" lon="6.22831">
        <ele>1552</ele>
        <time>2011-11-01T10:28:10Z</time>
      </trkpt>
      <trkpt lat="45.70468" lon="6.22835">
        <ele>1569</ele>
        <time>2011-11-01T10:28:16Z</time>
      </trkpt>
      <trkpt lat="45.70474" lon="6.22838">
        <ele>1570</ele>
        <time>2011-11-01T10:28:24Z</time>
      </trkpt>
      <trkpt lat="45.70481" lon="6.2284">
        <ele>1570</ele>
        <time>2011-11-01T10:28:32Z</time>
      </trkpt>
      <trkpt lat="45.70487" lon="6.22842">
        <ele>1571</ele>
        <time>2011-11-01T10:28:39Z</time>
      </trkpt>
      <trkpt lat="45.70495" lon="6.22843">
        <ele>1571</ele>
        <time>2011-11-01T10:28:48Z</time>
      </trkpt>
      <trkpt lat="45.705" lon="6.22844">
        <ele>1571</ele>
        <time>2011-11-01T10:28:55Z</time>
      </trkpt>
      <trkpt lat="45.70505" lon="6.22845">
        <ele>1579</ele>
        <time>2011-11-01T10:29:02Z</time>
      </trkpt>
      <trkpt lat="45.70514" lon="6.22846">
        <ele>1583</ele>
        <time>2011-11-01T10:29:12Z</time>
      </trkpt>
      <trkpt lat="45.70517" lon="6.22848">
        <ele>1584</ele>
        <time>2011-11-01T10:29:18Z</time>
      </trkpt>
      <trkpt lat="45.70526" lon="6.2285">
        <ele>1587</ele>
        <time>2011-11-01T10:29:29Z</time>
      </trkpt>
      <trkpt lat="45.70534" lon="6.22851">
        <ele>1589</ele>
        <time>2011-11-01T10:29:38Z</time>
      </trkpt>
      <trkpt lat="45.7054" lon="6.2285">
        <ele>1591</ele>
        <time>2011-11-01T10:29:47Z</time>
      </trkpt>
      <trkpt lat="45.70547" lon="6.2285">
        <ele>1592</ele>
        <time>2011-11-01T10:29:56Z</time>
      </trkpt>
      <trkpt lat="45.70551" lon="6.22851">
        <ele>1593</ele>
        <time>2011-11-01T10:30:03Z</time>
      </trkpt>
      <trkpt lat="45.70557" lon="6.2285">
        <ele>1594</ele>
        <time>2011-11-01T10:30:12Z</time>
      </trkpt>
      <trkpt lat="45.70561" lon="6.2285">
        <ele>1594</ele>
        <time>2011-11-01T10:30:18Z</time>
      </trkpt>
      <trkpt lat="45.70569" lon="6.22848">
        <ele>1595</ele>
        <time>2011-11-01T10:30:28Z</time>
      </trkpt>
      <trkpt lat="45.70573" lon="6.22846">
        <ele>1596</ele>
        <time>2011-11-01T10:30:36Z</time>
      </trkpt>
      <trkpt lat="45.70578" lon="6.22847">
        <ele>1596</ele>
        <time>2011-11-01T10:30:42Z</time>
      </trkpt>
      <trkpt lat="45.70581" lon="6.22848">
        <ele>1597</ele>
        <time>2011-11-01T10:30:48Z</time>
      </trkpt>
      <trkpt lat="45.70583" lon="6.22848">
        <ele>1597</ele>
        <time>2011-11-01T10:30:49Z</time>
      </trkpt>
      <trkpt lat="45.70593" lon="6.22848">
        <ele>1606</ele>
        <time>2011-11-01T10:30:59Z</time>
      </trkpt>
      <trkpt lat="45.70599" lon="6.22848">
        <ele>1608</ele>
        <time>2011-11-01T10:31:05Z</time>
      </trkpt>
      <trkpt lat="45.706" lon="6.22848">
        <ele>1608</ele>
        <time>2011-11-01T10:31:06Z</time>
      </trkpt>
      <trkpt lat="45.70608" lon="6.22851">
        <ele>1610</ele>
        <time>2011-11-01T10:31:15Z</time>
      </trkpt>
      <trkpt lat="45.70614" lon="6.22851">
        <ele>1611</ele>
        <time>2011-11-01T10:31:22Z</time>
      </trkpt>
      <trkpt lat="45.70621" lon="6.2285">
        <ele>1612</ele>
        <time>2011-11-01T10:31:30Z</time>
      </trkpt>
      <trkpt lat="45.70628" lon="6.22851">
        <ele>1613</ele>
        <time>2011-11-01T10:31:37Z</time>
      </trkpt>
      <trkpt lat="45.70633" lon="6.2285">
        <ele>1613</ele>
        <time>2011-11-01T10:31:43Z</time>
      </trkpt>
      <trkpt lat="45.70638" lon="6.22848">
        <ele>1613</ele>
        <time>2011-11-01T10:31:48Z</time>
      </trkpt>
      <trkpt lat="45.70647" lon="6.22844">
        <ele>1614</ele>
        <time>2011-11-01T10:31:56Z</time>
      </trkpt>
      <trkpt lat="45.70652" lon="6.22842">
        <ele>1614</ele>
        <time>2011-11-01T10:32:02Z</time>
      </trkpt>
      <trkpt lat="45.70654" lon="6.22839">
        <ele>1614</ele>
        <time>2011-11-01T10:32:07Z</time>
      </trkpt>
      <trkpt lat="45.70655" lon="6.22844">
        <ele>1614</ele>
        <time>2011-11-01T10:32:13Z</time>
      </trkpt>
      <trkpt lat="45.70657" lon="6.22851">
        <ele>1615</ele>
        <time>2011-11-01T10:32:19Z</time>
      </trkpt>
      <trkpt lat="45.70658" lon="6.22859">
        <ele>1615</ele>
        <time>2011-11-01T10:32:26Z</time>
      </trkpt>
      <trkpt lat="45.70659" lon="6.22863">
        <ele>1616</ele>
        <time>2011-11-01T10:32:31Z</time>
      </trkpt>
      <trkpt lat="45.70663" lon="6.22867">
        <ele>1617</ele>
        <time>2011-11-01T10:32:38Z</time>
      </trkpt>
      <trkpt lat="45.70665" lon="6.22873">
        <ele>1618</ele>
        <time>2011-11-01T10:32:45Z</time>
      </trkpt>
      <trkpt lat="45.70667" lon="6.22875">
        <ele>1618</ele>
        <time>2011-11-01T10:32:53Z</time>
      </trkpt>
      <trkpt lat="45.70667" lon="6.22877">
        <ele>1622</ele>
        <time>2011-11-01T10:32:55Z</time>
      </trkpt>
      <trkpt lat="45.7067" lon="6.22892">
        <ele>1625</ele>
        <time>2011-11-01T10:33:06Z</time>
      </trkpt>
      <trkpt lat="45.70671" lon="6.22902">
        <ele>1627</ele>
        <time>2011-11-01T10:33:15Z</time>
      </trkpt>
      <trkpt lat="45.70671" lon="6.22905">
        <ele>1628</ele>
        <time>2011-11-01T10:33:21Z</time>
      </trkpt>
      <trkpt lat="45.70674" lon="6.2291">
        <ele>1629</ele>
        <time>2011-11-01T10:33:28Z</time>
      </trkpt>
      <trkpt lat="45.70676" lon="6.22915">
        <ele>1629</ele>
        <time>2011-11-01T10:33:35Z</time>
      </trkpt>
      <trkpt lat="45.70679" lon="6.22925">
        <ele>1633</ele>
        <time>2011-11-01T10:33:44Z</time>
      </trkpt>
      <trkpt lat="45.70677" lon="6.22937">
        <ele>1634</ele>
        <time>2011-11-01T10:33:53Z</time>
      </trkpt>
      <trkpt lat="45.70677" lon="6.22948">
        <ele>1634</ele>
        <time>2011-11-01T10:34:01Z</time>
      </trkpt>
      <trkpt lat="45.70679" lon="6.22958">
        <ele>1635</ele>
        <time>2011-11-01T10:34:09Z</time>
      </trkpt>
      <trkpt lat="45.70682" lon="6.22966">
        <ele>1635</ele>
        <time>2011-11-01T10:34:17Z</time>
      </trkpt>
      <trkpt lat="45.70682" lon="6.22967">
        <ele>1635</ele>
        <time>2011-11-01T10:34:23Z</time>
      </trkpt>
      <trkpt lat="45.70681" lon="6.22967">
        <ele>1635</ele>
        <time>2011-11-01T10:34:31Z</time>
      </trkpt>
      <trkpt lat="45.70681" lon="6.22967">
        <ele>1635</ele>
        <time>2011-11-01T10:34:38Z</time>
      </trkpt>
      <trkpt lat="45.70681" lon="6.22968">
        <ele>1635</ele>
        <time>2011-11-01T10:34:47Z</time>
      </trkpt>
      <trkpt lat="45.70681" lon="6.22968">
        <ele>1635</ele>
        <time>2011-11-01T10:34:52Z</time>
      </trkpt>
      <trkpt lat="45.70681" lon="6.22967">
        <ele>1635</ele>
        <time>2011-11-01T10:35:00Z</time>
      </trkpt>
      <trkpt lat="45.70681" lon="6.22968">
        <ele>1635</ele>
        <time>2011-11-01T10:35:12Z</time>
      </trkpt>
      <trkpt lat="45.70681" lon="6.22966">
        <ele>1635</ele>
        <time>2011-11-01T10:35:16Z</time>
      </trkpt>
      <trkpt lat="45.7068" lon="6.22968">
        <ele>1635</ele>
        <time>2011-11-01T10:35:21Z</time>
      </trkpt>
      <trkpt lat="45.70681" lon="6.22967">
        <ele>1635</ele>
        <time>2011-11-01T10:35:28Z</time>
      </trkpt>
      <trkpt lat="45.70681" lon="6.22967">
        <ele>1635</ele>
        <time>2011-11-01T10:35:37Z</time>
      </trkpt>
      <trkpt lat="45.7068" lon="6.22966">
        <ele>1635</ele>
        <time>2011-11-01T10:35:46Z</time>
      </trkpt>
      <trkpt lat="45.7068" lon="6.22965">
        <ele>1635</ele>
        <time>2011-11-01T10:36:00Z</time>
      </trkpt>
      <trkpt lat="45.7068" lon="6.22966">
        <ele>1635</ele>
        <time>2011-11-01T10:36:19Z</time>
      </trkpt>
      <trkpt lat="45.70681" lon="6.22966">
        <ele>1635</ele>
        <time>2011-11-01T10:36:27Z</time>
      </trkpt>
      <trkpt lat="45.70682" lon="6.22966">
        <ele>1635</ele>
        <time>2011-11-01T10:36:49Z</time>
      </trkpt>
      <trkpt lat="45.70681" lon="6.22967">
        <ele>1635</ele>
        <time>2011-11-01T10:37:07Z</time>
      </trkpt>
      <trkpt lat="45.70681" lon="6.22967">
        <ele>1635</ele>
        <time>2011-11-01T10:37:13Z</time>
      </trkpt>
      <trkpt lat="45.70679" lon="6.22971">
        <ele>1635</ele>
        <time>2011-11-01T10:37:19Z</time>
      </trkpt>
      <trkpt lat="45.70678" lon="6.22992">
        <ele>1638</ele>
        <time>2011-11-01T10:37:25Z</time>
      </trkpt>
      <trkpt lat="45.70673" lon="6.23009">
        <ele>1639</ele>
        <time>2011-11-01T10:37:29Z</time>
      </trkpt>
      <trkpt lat="45.70676" lon="6.23023">
        <ele>1637</ele>
        <time>2011-11-01T10:37:34Z</time>
      </trkpt>
      <trkpt lat="45.70686" lon="6.23038">
        <ele>1636</ele>
        <time>2011-11-01T10:37:39Z</time>
      </trkpt>
      <trkpt lat="45.70692" lon="6.23055">
        <ele>1636</ele>
        <time>2011-11-01T10:37:43Z</time>
      </trkpt>
      <trkpt lat="45.70699" lon="6.23071">
        <ele>1636</ele>
        <time>2011-11-01T10:37:48Z</time>
      </trkpt>
      <trkpt lat="45.70708" lon="6.23088">
        <ele>1631</ele>
        <time>2011-11-01T10:37:53Z</time>
      </trkpt>
      <trkpt lat="45.70718" lon="6.23104">
        <ele>1628</ele>
        <time>2011-11-01T10:37:57Z</time>
      </trkpt>
      <trkpt lat="45.70731" lon="6.23122">
        <ele>1626</ele>
        <time>2011-11-01T10:38:02Z</time>
      </trkpt>
      <trkpt lat="45.70737" lon="6.23134">
        <ele>1624</ele>
        <time>2011-11-01T10:38:06Z</time>
      </trkpt>
      <trkpt lat="45.70742" lon="6.23155">
        <ele>1617</ele>
        <time>2011-11-01T10:38:10Z</time>
      </trkpt>
      <trkpt lat="45.70755" lon="6.23181">
        <ele>1602</ele>
        <time>2011-11-01T10:38:16Z</time>
      </trkpt>
      <trkpt lat="45.70761" lon="6.23203">
        <ele>1598</ele>
        <time>2011-11-01T10:38:21Z</time>
      </trkpt>
      <trkpt lat="45.70773" lon="6.23227">
        <ele>1596</ele>
        <time>2011-11-01T10:38:27Z</time>
      </trkpt>
      <trkpt lat="45.70791" lon="6.23243">
        <ele>1593</ele>
        <time>2011-11-01T10:38:32Z</time>
      </trkpt>
      <trkpt lat="45.70805" lon="6.23254">
        <ele>1589</ele>
        <time>2011-11-01T10:38:37Z</time>
      </trkpt>
      <trkpt lat="45.70813" lon="6.2326">
        <ele>1587</ele>
        <time>2011-11-01T10:38:41Z</time>
      </trkpt>
      <trkpt lat="45.70821" lon="6.23265">
        <ele>1586</ele>
        <time>2011-11-01T10:38:44Z</time>
      </trkpt>
      <trkpt lat="45.70845" lon="6.2328">
        <ele>1575</ele>
        <time>2011-11-01T10:38:49Z</time>
      </trkpt>
      <trkpt lat="45.70868" lon="6.23293">
        <ele>1573</ele>
        <time>2011-11-01T10:38:54Z</time>
      </trkpt>
      <trkpt lat="45.70872" lon="6.23296">
        <ele>1573</ele>
        <time>2011-11-01T10:38:55Z</time>
      </trkpt>
      <trkpt lat="45.709" lon="6.23322">
        <ele>1570</ele>
        <time>2011-11-01T10:39:01Z</time>
      </trkpt>
      <trkpt lat="45.70911" lon="6.23332">
        <ele>1569</ele>
        <time>2011-11-01T10:39:04Z</time>
      </trkpt>
      <trkpt lat="45.7092" lon="6.23339">
        <ele>1568</ele>
        <time>2011-11-01T10:39:07Z</time>
      </trkpt>
      <trkpt lat="45.70933" lon="6.23344">
        <ele>1568</ele>
        <time>2011-11-01T10:39:11Z</time>
      </trkpt>
      <trkpt lat="45.70946" lon="6.23351">
        <ele>1567</ele>
        <time>2011-11-01T10:39:18Z</time>
      </trkpt>
      <trkpt lat="45.70953" lon="6.23362">
        <ele>1567</ele>
        <time>2011-11-01T10:39:23Z</time>
      </trkpt>
      <trkpt lat="45.70961" lon="6.23368">
        <ele>1567</ele>
        <time>2011-11-01T10:39:27Z</time>
      </trkpt>
      <trkpt lat="45.70967" lon="6.23374">
        <ele>1567</ele>
        <time>2011-11-01T10:39:31Z</time>
      </trkpt>
      <trkpt lat="45.70973" lon="6.23381">
        <ele>1568</ele>
        <time>2011-11-01T10:39:35Z</time>
      </trkpt>
      <trkpt lat="45.70974" lon="6.23383">
        <ele>1568</ele>
        <time>2011-11-01T10:39:42Z</time>
      </trkpt>
      <trkpt lat="45.7098" lon="6.23388">
        <ele>1568</ele>
        <time>2011-11-01T10:39:50Z</time>
      </trkpt>
      <trkpt lat="45.70985" lon="6.23395">
        <ele>1568</ele>
        <time>2011-11-01T10:40:01Z</time>
      </trkpt>
      <trkpt lat="45.70987" lon="6.23395">
        <ele>1568</ele>
        <time>2011-11-01T10:40:06Z</time>
      </trkpt>
      <trkpt lat="45.7099" lon="6.23398">
        <ele>1568</ele>
        <time>2011-11-01T10:40:11Z</time>
      </trkpt>
      <trkpt lat="45.70998" lon="6.23403">
        <ele>1568</ele>
        <time>2011-11-01T10:40:16Z</time>
      </trkpt>
      <trkpt lat="45.71007" lon="6.23406">
        <ele>1566</ele>
        <time>2011-11-01T10:40:21Z</time>
      </trkpt>
      <trkpt lat="45.71015" lon="6.23413">
        <ele>1566</ele>
        <time>2011-11-01T10:40:27Z</time>
      </trkpt>
      <trkpt lat="45.71027" lon="6.23418">
        <ele>1572</ele>
        <time>2011-11-01T10:40:34Z</time>
      </trkpt>
      <trkpt lat="45.71037" lon="6.23421">
        <ele>1572</ele>
        <time>2011-11-01T10:40:41Z</time>
      </trkpt>
      <trkpt lat="45.71046" lon="6.23424">
        <ele>1572</ele>
        <time>2011-11-01T10:40:47Z</time>
      </trkpt>
      <trkpt lat="45.71055" lon="6.23426">
        <ele>1572</ele>
        <time>2011-11-01T10:40:54Z</time>
      </trkpt>
      <trkpt lat="45.71059" lon="6.23426">
        <ele>1572</ele>
        <time>2011-11-01T10:41:04Z</time>
      </trkpt>
      <trkpt lat="45.7107" lon="6.23427">
        <ele>1571</ele>
        <time>2011-11-01T10:41:10Z</time>
      </trkpt>
      <trkpt lat="45.7108" lon="6.23431">
        <ele>1571</ele>
        <time>2011-11-01T10:41:17Z</time>
      </trkpt>
      <trkpt lat="45.7109" lon="6.23436">
        <ele>1576</ele>
        <time>2011-11-01T10:41:25Z</time>
      </trkpt>
      <trkpt lat="45.71093" lon="6.23438">
        <ele>1576</ele>
        <time>2011-11-01T10:41:31Z</time>
      </trkpt>
      <trkpt lat="45.71098" lon="6.23442">
        <ele>1578</ele>
        <time>2011-11-01T10:41:38Z</time>
      </trkpt>
      <trkpt lat="45.71101" lon="6.23446">
        <ele>1578</ele>
        <time>2011-11-01T10:41:43Z</time>
      </trkpt>
      <trkpt lat="45.71107" lon="6.23451">
        <ele>1580</ele>
        <time>2011-11-01T10:41:51Z</time>
      </trkpt>
      <trkpt lat="45.71117" lon="6.23455">
        <ele>1581</ele>
        <time>2011-11-01T10:42:02Z</time>
      </trkpt>
      <trkpt lat="45.71125" lon="6.23457">
        <ele>1581</ele>
        <time>2011-11-01T10:42:10Z</time>
      </trkpt>
      <trkpt lat="45.7113" lon="6.23458">
        <ele>1582</ele>
        <time>2011-11-01T10:42:15Z</time>
      </trkpt>
      <trkpt lat="45.7114" lon="6.23459">
        <ele>1583</ele>
        <time>2011-11-01T10:42:25Z</time>
      </trkpt>
      <trkpt lat="45.71142" lon="6.2346">
        <ele>1583</ele>
        <time>2011-11-01T10:42:30Z</time>
      </trkpt>
      <trkpt lat="45.71152" lon="6.23462">
        <ele>1584</ele>
        <time>2011-11-01T10:42:38Z</time>
      </trkpt>
      <trkpt lat="45.71157" lon="6.23465">
        <ele>1584</ele>
        <time>2011-11-01T10:42:45Z</time>
      </trkpt>
      <trkpt lat="45.71165" lon="6.23466">
        <ele>1584</ele>
        <time>2011-11-01T10:43:02Z</time>
      </trkpt>
      <trkpt lat="45.71175" lon="6.2347">
        <ele>1592</ele>
        <time>2011-11-01T10:43:10Z</time>
      </trkpt>
      <trkpt lat="45.7118" lon="6.23475">
        <ele>1592</ele>
        <time>2011-11-01T10:43:16Z</time>
      </trkpt>
      <trkpt lat="45.71183" lon="6.23478">
        <ele>1592</ele>
        <time>2011-11-01T10:43:22Z</time>
      </trkpt>
      <trkpt lat="45.71185" lon="6.23479">
        <ele>1592</ele>
        <time>2011-11-01T10:43:24Z</time>
      </trkpt>
      <trkpt lat="45.71199" lon="6.23486">
        <ele>1592</ele>
        <time>2011-11-01T10:43:32Z</time>
      </trkpt>
      <trkpt lat="45.71211" lon="6.23486">
        <ele>1592</ele>
        <time>2011-11-01T10:43:38Z</time>
      </trkpt>
      <trkpt lat="45.71225" lon="6.23479">
        <ele>1592</ele>
        <time>2011-11-01T10:43:43Z</time>
      </trkpt>
      <trkpt lat="45.71236" lon="6.23475">
        <ele>1593</ele>
        <time>2011-11-01T10:43:46Z</time>
      </trkpt>
      <trkpt lat="45.71258" lon="6.23485">
        <ele>1596</ele>
        <time>2011-11-01T10:43:53Z</time>
      </trkpt>
      <trkpt lat="45.71266" lon="6.2349">
        <ele>1596</ele>
        <time>2011-11-01T10:43:58Z</time>
      </trkpt>
      <trkpt lat="45.71273" lon="6.23499">
        <ele>1597</ele>
        <time>2011-11-01T10:44:03Z</time>
      </trkpt>
      <trkpt lat="45.7128" lon="6.2351">
        <ele>1584</ele>
        <time>2011-11-01T10:44:09Z</time>
      </trkpt>
      <trkpt lat="45.71289" lon="6.23513">
        <ele>1584</ele>
        <time>2011-11-01T10:44:15Z</time>
      </trkpt>
      <trkpt lat="45.71305" lon="6.23513">
        <ele>1586</ele>
        <time>2011-11-01T10:44:24Z</time>
      </trkpt>
      <trkpt lat="45.71318" lon="6.23512">
        <ele>1589</ele>
        <time>2011-11-01T10:44:32Z</time>
      </trkpt>
      <trkpt lat="45.71325" lon="6.23513">
        <ele>1591</ele>
        <time>2011-11-01T10:44:38Z</time>
      </trkpt>
      <trkpt lat="45.71331" lon="6.23512">
        <ele>1592</ele>
        <time>2011-11-01T10:44:43Z</time>
      </trkpt>
      <trkpt lat="45.71343" lon="6.23513">
        <ele>1597</ele>
        <time>2011-11-01T10:44:51Z</time>
      </trkpt>
      <trkpt lat="45.71355" lon="6.23511">
        <ele>1597</ele>
        <time>2011-11-01T10:44:59Z</time>
      </trkpt>
      <trkpt lat="45.71358" lon="6.23511">
        <ele>1597</ele>
        <time>2011-11-01T10:45:01Z</time>
      </trkpt>
      <trkpt lat="45.71363" lon="6.23514">
        <ele>1597</ele>
        <time>2011-11-01T10:45:06Z</time>
      </trkpt>
      <trkpt lat="45.71365" lon="6.23516">
        <ele>1597</ele>
        <time>2011-11-01T10:45:10Z</time>
      </trkpt>
      <trkpt lat="45.71373" lon="6.2352">
        <ele>1598</ele>
        <time>2011-11-01T10:45:19Z</time>
      </trkpt>
      <trkpt lat="45.71379" lon="6.23524">
        <ele>1598</ele>
        <time>2011-11-01T10:45:26Z</time>
      </trkpt>
      <trkpt lat="45.71388" lon="6.23525">
        <ele>1599</ele>
        <time>2011-11-01T10:45:35Z</time>
      </trkpt>
      <trkpt lat="45.71396" lon="6.23526">
        <ele>1599</ele>
        <time>2011-11-01T10:45:44Z</time>
      </trkpt>
      <trkpt lat="45.71404" lon="6.23526">
        <ele>1600</ele>
        <time>2011-11-01T10:45:52Z</time>
      </trkpt>
      <trkpt lat="45.71408" lon="6.23527">
        <ele>1600</ele>
        <time>2011-11-01T10:46:00Z</time>
      </trkpt>
      <trkpt lat="45.71414" lon="6.23529">
        <ele>1600</ele>
        <time>2011-11-01T10:46:09Z</time>
      </trkpt>
      <trkpt lat="45.7142" lon="6.23533">
        <ele>1609</ele>
        <time>2011-11-01T10:46:17Z</time>
      </trkpt>
      <trkpt lat="45.71424" lon="6.23532">
        <ele>1609</ele>
        <time>2011-11-01T10:46:24Z</time>
      </trkpt>
      <trkpt lat="45.71429" lon="6.2353">
        <ele>1609</ele>
        <time>2011-11-01T10:46:31Z</time>
      </trkpt>
      <trkpt lat="45.71436" lon="6.23528">
        <ele>1609</ele>
        <time>2011-11-01T10:46:38Z</time>
      </trkpt>
      <trkpt lat="45.71441" lon="6.23527">
        <ele>1610</ele>
        <time>2011-11-01T10:46:46Z</time>
      </trkpt>
      <trkpt lat="45.71441" lon="6.23528">
        <ele>1610</ele>
        <time>2011-11-01T10:46:52Z</time>
      </trkpt>
      <trkpt lat="45.71442" lon="6.23527">
        <ele>1610</ele>
        <time>2011-11-01T10:47:07Z</time>
      </trkpt>
      <trkpt lat="45.71441" lon="6.23525">
        <ele>1610</ele>
        <time>2011-11-01T10:47:24Z</time>
      </trkpt>
      <trkpt lat="45.71446" lon="6.23527">
        <ele>1610</ele>
        <time>2011-11-01T10:47:40Z</time>
      </trkpt>
      <trkpt lat="45.71454" lon="6.23528">
        <ele>1611</ele>
        <time>2011-11-01T10:47:48Z</time>
      </trkpt>
      <trkpt lat="45.7146" lon="6.23529">
        <ele>1611</ele>
        <time>2011-11-01T10:47:54Z</time>
      </trkpt>
      <trkpt lat="45.71468" lon="6.23528">
        <ele>1612</ele>
        <time>2011-11-01T10:48:02Z</time>
      </trkpt>
      <trkpt lat="45.71476" lon="6.23526">
        <ele>1612</ele>
        <time>2011-11-01T10:48:10Z</time>
      </trkpt>
      <trkpt lat="45.71489" lon="6.23528">
        <ele>1613</ele>
        <time>2011-11-01T10:48:16Z</time>
      </trkpt>
      <trkpt lat="45.71509" lon="6.23534">
        <ele>1613</ele>
        <time>2011-11-01T10:48:21Z</time>
      </trkpt>
      <trkpt lat="45.71525" lon="6.2355">
        <ele>1613</ele>
        <time>2011-11-01T10:48:25Z</time>
      </trkpt>
      <trkpt lat="45.71554" lon="6.23574">
        <ele>1612</ele>
        <time>2011-11-01T10:48:31Z</time>
      </trkpt>
      <trkpt lat="45.71577" lon="6.23592">
        <ele>1618</ele>
        <time>2011-11-01T10:48:36Z</time>
      </trkpt>
      <trkpt lat="45.71597" lon="6.23603">
        <ele>1623</ele>
        <time>2011-11-01T10:48:42Z</time>
      </trkpt>
      <trkpt lat="45.71617" lon="6.23613">
        <ele>1627</ele>
        <time>2011-11-01T10:48:49Z</time>
      </trkpt>
      <trkpt lat="45.71635" lon="6.23616">
        <ele>1627</ele>
        <time>2011-11-01T10:48:55Z</time>
      </trkpt>
      <trkpt lat="45.71664" lon="6.23616">
        <ele>1626</ele>
        <time>2011-11-01T10:49:04Z</time>
      </trkpt>
      <trkpt lat="45.71686" lon="6.23618">
        <ele>1626</ele>
        <time>2011-11-01T10:49:10Z</time>
      </trkpt>
      <trkpt lat="45.71707" lon="6.23623">
        <ele>1627</ele>
        <time>2011-11-01T10:49:17Z</time>
      </trkpt>
      <trkpt lat="45.71726" lon="6.23612">
        <ele>1625</ele>
        <time>2011-11-01T10:49:24Z</time>
      </trkpt>
      <trkpt lat="45.71746" lon="6.23616">
        <ele>1625</ele>
        <time>2011-11-01T10:49:31Z</time>
      </trkpt>
      <trkpt lat="45.71762" lon="6.23617">
        <ele>1624</ele>
        <time>2011-11-01T10:49:37Z</time>
      </trkpt>
      <trkpt lat="45.71777" lon="6.23616">
        <ele>1624</ele>
        <time>2011-11-01T10:49:43Z</time>
      </trkpt>
      <trkpt lat="45.71786" lon="6.23617">
        <ele>1624</ele>
        <time>2011-11-01T10:49:48Z</time>
      </trkpt>
      <trkpt lat="45.71788" lon="6.23617">
        <ele>1624</ele>
        <time>2011-11-01T10:49:49Z</time>
      </trkpt>
      <trkpt lat="45.71804" lon="6.23607">
        <ele>1623</ele>
        <time>2011-11-01T10:49:56Z</time>
      </trkpt>
      <trkpt lat="45.71822" lon="6.23608">
        <ele>1622</ele>
        <time>2011-11-01T10:50:04Z</time>
      </trkpt>
      <trkpt lat="45.71832" lon="6.23616">
        <ele>1623</ele>
        <time>2011-11-01T10:50:10Z</time>
      </trkpt>
      <trkpt lat="45.71841" lon="6.23624">
        <ele>1617</ele>
        <time>2011-11-01T10:50:16Z</time>
      </trkpt>
      <trkpt lat="45.7185" lon="6.23635">
        <ele>1616</ele>
        <time>2011-11-01T10:50:22Z</time>
      </trkpt>
      <trkpt lat="45.71851" lon="6.23637">
        <ele>1617</ele>
        <time>2011-11-01T10:50:24Z</time>
      </trkpt>
      <trkpt lat="45.71851" lon="6.23637">
        <ele>1617</ele>
        <time>2011-11-01T10:50:32Z</time>
      </trkpt>
      <trkpt lat="45.71853" lon="6.23636">
        <ele>1616</ele>
        <time>2011-11-01T10:51:47Z</time>
      </trkpt>
      <trkpt lat="45.71854" lon="6.23635">
        <ele>1616</ele>
        <time>2011-11-01T10:51:55Z</time>
      </trkpt>
      <trkpt lat="45.71856" lon="6.2363">
        <ele>1616</ele>
        <time>2011-11-01T10:52:01Z</time>
      </trkpt>
      <trkpt lat="45.71864" lon="6.23615">
        <ele>1615</ele>
        <time>2011-11-01T10:52:07Z</time>
      </trkpt>
      <trkpt lat="45.71875" lon="6.23606">
        <ele>1614</ele>
        <time>2011-11-01T10:52:11Z</time>
      </trkpt>
      <trkpt lat="45.71896" lon="6.23593">
        <ele>1612</ele>
        <time>2011-11-01T10:52:15Z</time>
      </trkpt>
      <trkpt lat="45.71905" lon="6.23588">
        <ele>1611</ele>
        <time>2011-11-01T10:52:19Z</time>
      </trkpt>
      <trkpt lat="45.71915" lon="6.23581">
        <ele>1609</ele>
        <time>2011-11-01T10:52:25Z</time>
      </trkpt>
      <trkpt lat="45.71915" lon="6.23581">
        <ele>1609</ele>
        <time>2011-11-01T10:52:29Z</time>
      </trkpt>
      <trkpt lat="45.71928" lon="6.23582">
        <ele>1602</ele>
        <time>2011-11-01T10:52:34Z</time>
      </trkpt>
      <trkpt lat="45.71945" lon="6.23588">
        <ele>1596</ele>
        <time>2011-11-01T10:52:38Z</time>
      </trkpt>
      <trkpt lat="45.71964" lon="6.23593">
        <ele>1591</ele>
        <time>2011-11-01T10:52:42Z</time>
      </trkpt>
      <trkpt lat="45.71991" lon="6.23599">
        <ele>1586</ele>
        <time>2011-11-01T10:52:48Z</time>
      </trkpt>
      <trkpt lat="45.71999" lon="6.23601">
        <ele>1586</ele>
        <time>2011-11-01T10:52:50Z</time>
      </trkpt>
      <trkpt lat="45.72012" lon="6.23606">
        <ele>1572</ele>
        <time>2011-11-01T10:52:53Z</time>
      </trkpt>
      <trkpt lat="45.72033" lon="6.23611">
        <ele>1569</ele>
        <time>2011-11-01T10:52:57Z</time>
      </trkpt>
      <trkpt lat="45.72044" lon="6.23621">
        <ele>1567</ele>
        <time>2011-11-01T10:53:01Z</time>
      </trkpt>
      <trkpt lat="45.72037" lon="6.23634">
        <ele>1567</ele>
        <time>2011-11-01T10:53:04Z</time>
      </trkpt>
      <trkpt lat="45.72029" lon="6.23643">
        <ele>1568</ele>
        <time>2011-11-01T10:53:06Z</time>
      </trkpt>
      <trkpt lat="45.7201" lon="6.23674">
        <ele>1568</ele>
        <time>2011-11-01T10:53:11Z</time>
      </trkpt>
      <trkpt lat="45.72009" lon="6.23697">
        <ele>1564</ele>
        <time>2011-11-01T10:53:15Z</time>
      </trkpt>
      <trkpt lat="45.72021" lon="6.23708">
        <ele>1562</ele>
        <time>2011-11-01T10:53:18Z</time>
      </trkpt>
      <trkpt lat="45.72025" lon="6.2371">
        <ele>1561</ele>
        <time>2011-11-01T10:53:19Z</time>
      </trkpt>
      <trkpt lat="45.72044" lon="6.23717">
        <ele>1559</ele>
        <time>2011-11-01T10:53:23Z</time>
      </trkpt>
      <trkpt lat="45.72062" lon="6.23723">
        <ele>1556</ele>
        <time>2011-11-01T10:53:28Z</time>
      </trkpt>
      <trkpt lat="45.72069" lon="6.23724">
        <ele>1555</ele>
        <time>2011-11-01T10:53:30Z</time>
      </trkpt>
      <trkpt lat="45.7209" lon="6.23728">
        <ele>1542</ele>
        <time>2011-11-01T10:53:36Z</time>
      </trkpt>
      <trkpt lat="45.72112" lon="6.23733">
        <ele>1540</ele>
        <time>2011-11-01T10:53:43Z</time>
      </trkpt>
      <trkpt lat="45.72126" lon="6.23738">
        <ele>1537</ele>
        <time>2011-11-01T10:53:48Z</time>
      </trkpt>
      <trkpt lat="45.72139" lon="6.23746">
        <ele>1534</ele>
        <time>2011-11-01T10:53:53Z</time>
      </trkpt>
      <trkpt lat="45.72149" lon="6.23746">
        <ele>1531</ele>
        <time>2011-11-01T10:53:56Z</time>
      </trkpt>
      <trkpt lat="45.7216" lon="6.23729">
        <ele>1531</ele>
        <time>2011-11-01T10:54:02Z</time>
      </trkpt>
      <trkpt lat="45.7217" lon="6.23724">
        <ele>1519</ele>
        <time>2011-11-01T10:54:05Z</time>
      </trkpt>
      <trkpt lat="45.72184" lon="6.23728">
        <ele>1518</ele>
        <time>2011-11-01T10:54:09Z</time>
      </trkpt>
      <trkpt lat="45.722" lon="6.23731">
        <ele>1516</ele>
        <time>2011-11-01T10:54:14Z</time>
      </trkpt>
      <trkpt lat="45.72212" lon="6.23732">
        <ele>1514</ele>
        <time>2011-11-01T10:54:18Z</time>
      </trkpt>
      <trkpt lat="45.72229" lon="6.23727">
        <ele>1512</ele>
        <time>2011-11-01T10:54:22Z</time>
      </trkpt>
      <trkpt lat="45.72245" lon="6.23722">
        <ele>1511</ele>
        <time>2011-11-01T10:54:26Z</time>
      </trkpt>
      <trkpt lat="45.7226" lon="6.23731">
        <ele>1500</ele>
        <time>2011-11-01T10:54:31Z</time>
      </trkpt>
      <trkpt lat="45.72275" lon="6.23734">
        <ele>1498</ele>
        <time>2011-11-01T10:54:35Z</time>
      </trkpt>
      <trkpt lat="45.72289" lon="6.2374">
        <ele>1497</ele>
        <time>2011-11-01T10:54:39Z</time>
      </trkpt>
      <trkpt lat="45.72306" lon="6.23758">
        <ele>1494</ele>
        <time>2011-11-01T10:54:45Z</time>
      </trkpt>
      <trkpt lat="45.72321" lon="6.23766">
        <ele>1493</ele>
        <time>2011-11-01T10:54:50Z</time>
      </trkpt>
      <trkpt lat="45.72347" lon="6.23766">
        <ele>1480</ele>
        <time>2011-11-01T10:54:56Z</time>
      </trkpt>
      <trkpt lat="45.72357" lon="6.23766">
        <ele>1478</ele>
        <time>2011-11-01T10:54:59Z</time>
      </trkpt>
      <trkpt lat="45.72361" lon="6.23781">
        <ele>1477</ele>
        <time>2011-11-01T10:55:03Z</time>
      </trkpt>
      <trkpt lat="45.72354" lon="6.23812">
        <ele>1478</ele>
        <time>2011-11-01T10:55:09Z</time>
      </trkpt>
      <trkpt lat="45.7235" lon="6.23821">
        <ele>1480</ele>
        <time>2011-11-01T10:55:11Z</time>
      </trkpt>
      <trkpt lat="45.72355" lon="6.23835">
        <ele>1479</ele>
        <time>2011-11-01T10:55:15Z</time>
      </trkpt>
      <trkpt lat="45.72357" lon="6.23836">
        <ele>1478</ele>
        <time>2011-11-01T10:55:16Z</time>
      </trkpt>
      <trkpt lat="45.7237" lon="6.23838">
        <ele>1475</ele>
        <time>2011-11-01T10:55:20Z</time>
      </trkpt>
      <trkpt lat="45.7239" lon="6.23848">
        <ele>1470</ele>
        <time>2011-11-01T10:55:25Z</time>
      </trkpt>
      <trkpt lat="45.72409" lon="6.23853">
        <ele>1467</ele>
        <time>2011-11-01T10:55:30Z</time>
      </trkpt>
      <trkpt lat="45.72424" lon="6.23855">
        <ele>1453</ele>
        <time>2011-11-01T10:55:35Z</time>
      </trkpt>
      <trkpt lat="45.72441" lon="6.23851">
        <ele>1451</ele>
        <time>2011-11-01T10:55:40Z</time>
      </trkpt>
      <trkpt lat="45.72446" lon="6.23852">
        <ele>1450</ele>
        <time>2011-11-01T10:55:42Z</time>
      </trkpt>
      <trkpt lat="45.72465" lon="6.23868">
        <ele>1447</ele>
        <time>2011-11-01T10:55:47Z</time>
      </trkpt>
      <trkpt lat="45.72479" lon="6.23893">
        <ele>1445</ele>
        <time>2011-11-01T10:55:52Z</time>
      </trkpt>
      <trkpt lat="45.72482" lon="6.23899">
        <ele>1445</ele>
        <time>2011-11-01T10:55:53Z</time>
      </trkpt>
      <trkpt lat="45.72495" lon="6.23921">
        <ele>1443</ele>
        <time>2011-11-01T10:55:58Z</time>
      </trkpt>
      <trkpt lat="45.72501" lon="6.23927">
        <ele>1441</ele>
        <time>2011-11-01T10:56:00Z</time>
      </trkpt>
      <trkpt lat="45.72515" lon="6.23936">
        <ele>1443</ele>
        <time>2011-11-01T10:56:04Z</time>
      </trkpt>
      <trkpt lat="45.72541" lon="6.23942">
        <ele>1444</ele>
        <time>2011-11-01T10:56:10Z</time>
      </trkpt>
      <trkpt lat="45.72546" lon="6.23942">
        <ele>1444</ele>
        <time>2011-11-01T10:56:11Z</time>
      </trkpt>
      <trkpt lat="45.72566" lon="6.23935">
        <ele>1442</ele>
        <time>2011-11-01T10:56:16Z</time>
      </trkpt>
      <trkpt lat="45.72601" lon="6.23918">
        <ele>1440</ele>
        <time>2011-11-01T10:56:23Z</time>
      </trkpt>
      <trkpt lat="45.72626" lon="6.23909">
        <ele>1431</ele>
        <time>2011-11-01T10:56:30Z</time>
      </trkpt>
      <trkpt lat="45.72641" lon="6.23894">
        <ele>1430</ele>
        <time>2011-11-01T10:56:37Z</time>
      </trkpt>
      <trkpt lat="45.72646" lon="6.23889">
        <ele>1430</ele>
        <time>2011-11-01T10:56:40Z</time>
      </trkpt>
      <trkpt lat="45.72646" lon="6.2389">
        <ele>1430</ele>
        <time>2011-11-01T10:56:46Z</time>
      </trkpt>
      <trkpt lat="45.72644" lon="6.23891">
        <ele>1430</ele>
        <time>2011-11-01T10:56:47Z</time>
      </trkpt>
      <trkpt lat="45.72632" lon="6.23902">
        <ele>1431</ele>
        <time>2011-11-01T10:56:52Z</time>
      </trkpt>
      <trkpt lat="45.72629" lon="6.2391">
        <ele>1431</ele>
        <time>2011-11-01T10:56:54Z</time>
      </trkpt>
      <trkpt lat="45.7263" lon="6.23914">
        <ele>1431</ele>
        <time>2011-11-01T10:56:59Z</time>
      </trkpt>
      <trkpt lat="45.72631" lon="6.23919">
        <ele>1442</ele>
        <time>2011-11-01T10:57:04Z</time>
      </trkpt>
      <trkpt lat="45.72635" lon="6.23924">
        <ele>1442</ele>
        <time>2011-11-01T10:57:10Z</time>
      </trkpt>
      <trkpt lat="45.72641" lon="6.2393">
        <ele>1443</ele>
        <time>2011-11-01T10:57:20Z</time>
      </trkpt>
      <trkpt lat="45.72645" lon="6.23932">
        <ele>1443</ele>
        <time>2011-11-01T10:57:27Z</time>
      </trkpt>
      <trkpt lat="45.72647" lon="6.23933">
        <ele>1443</ele>
        <time>2011-11-01T10:57:35Z</time>
      </trkpt>
      <trkpt lat="45.72652" lon="6.23938">
        <ele>1443</ele>
        <time>2011-11-01T10:57:43Z</time>
      </trkpt>
      <trkpt lat="45.72655" lon="6.23941">
        <ele>1443</ele>
        <time>2011-11-01T10:57:50Z</time>
      </trkpt>
      <trkpt lat="45.72658" lon="6.23945">
        <ele>1444</ele>
        <time>2011-11-01T10:57:57Z</time>
      </trkpt>
      <trkpt lat="45.7266" lon="6.23944">
        <ele>1444</ele>
        <time>2011-11-01T10:58:10Z</time>
      </trkpt>
      <trkpt lat="45.72663" lon="6.23949">
        <ele>1445</ele>
        <time>2011-11-01T10:58:18Z</time>
      </trkpt>
      <trkpt lat="45.72668" lon="6.23955">
        <ele>1448</ele>
        <time>2011-11-01T10:58:25Z</time>
      </trkpt>
      <trkpt lat="45.72675" lon="6.23962">
        <ele>1449</ele>
        <time>2011-11-01T10:58:35Z</time>
      </trkpt>
      <trkpt lat="45.7268" lon="6.23966">
        <ele>1449</ele>
        <time>2011-11-01T10:58:40Z</time>
      </trkpt>
      <trkpt lat="45.72684" lon="6.23973">
        <ele>1450</ele>
        <time>2011-11-01T10:58:48Z</time>
      </trkpt>
      <trkpt lat="45.72687" lon="6.23986">
        <ele>1452</ele>
        <time>2011-11-01T10:58:54Z</time>
      </trkpt>
      <trkpt lat="45.72688" lon="6.23988">
        <ele>1452</ele>
        <time>2011-11-01T10:58:55Z</time>
      </trkpt>
      <trkpt lat="45.72689" lon="6.2399">
        <ele>1452</ele>
        <time>2011-11-01T10:59:01Z</time>
      </trkpt>
      <trkpt lat="45.72691" lon="6.23995">
        <ele>1452</ele>
        <time>2011-11-01T10:59:06Z</time>
      </trkpt>
      <trkpt lat="45.72692" lon="6.23998">
        <ele>1452</ele>
        <time>2011-11-01T10:59:07Z</time>
      </trkpt>
      <trkpt lat="45.72696" lon="6.24016">
        <ele>1450</ele>
        <time>2011-11-01T10:59:12Z</time>
      </trkpt>
      <trkpt lat="45.72697" lon="6.24035">
        <ele>1449</ele>
        <time>2011-11-01T10:59:18Z</time>
      </trkpt>
      <trkpt lat="45.72696" lon="6.24053">
        <ele>1449</ele>
        <time>2011-11-01T10:59:24Z</time>
      </trkpt>
      <trkpt lat="45.72691" lon="6.24066">
        <ele>1450</ele>
        <time>2011-11-01T10:59:30Z</time>
      </trkpt>
      <trkpt lat="45.72681" lon="6.24083">
        <ele>1454</ele>
        <time>2011-11-01T10:59:37Z</time>
      </trkpt>
      <trkpt lat="45.72672" lon="6.24097">
        <ele>1447</ele>
        <time>2011-11-01T10:59:45Z</time>
      </trkpt>
      <trkpt lat="45.7266" lon="6.24107">
        <ele>1454</ele>
        <time>2011-11-01T10:59:53Z</time>
      </trkpt>
      <trkpt lat="45.72651" lon="6.24111">
        <ele>1453</ele>
        <time>2011-11-01T10:59:59Z</time>
      </trkpt>
      <trkpt lat="45.7264" lon="6.24116">
        <ele>1453</ele>
        <time>2011-11-01T11:00:05Z</time>
      </trkpt>
      <trkpt lat="45.72624" lon="6.24119">
        <ele>1453</ele>
        <time>2011-11-01T11:00:13Z</time>
      </trkpt>
      <trkpt lat="45.72613" lon="6.24124">
        <ele>1453</ele>
        <time>2011-11-01T11:00:19Z</time>
      </trkpt>
      <trkpt lat="45.72599" lon="6.24129">
        <ele>1452</ele>
        <time>2011-11-01T11:00:26Z</time>
      </trkpt>
      <trkpt lat="45.72598" lon="6.24129">
        <ele>1452</ele>
        <time>2011-11-01T11:00:27Z</time>
      </trkpt>
      <trkpt lat="45.72587" lon="6.24133">
        <ele>1452</ele>
        <time>2011-11-01T11:00:32Z</time>
      </trkpt>
      <trkpt lat="45.72575" lon="6.24135">
        <ele>1459</ele>
        <time>2011-11-01T11:00:38Z</time>
      </trkpt>
      <trkpt lat="45.72572" lon="6.2414">
        <ele>1458</ele>
        <time>2011-11-01T11:00:43Z</time>
      </trkpt>
      <trkpt lat="45.72562" lon="6.24145">
        <ele>1459</ele>
        <time>2011-11-01T11:00:48Z</time>
      </trkpt>
      <trkpt lat="45.72548" lon="6.24159">
        <ele>1460</ele>
        <time>2011-11-01T11:00:53Z</time>
      </trkpt>
      <trkpt lat="45.72534" lon="6.24172">
        <ele>1444</ele>
        <time>2011-11-01T11:00:58Z</time>
      </trkpt>
      <trkpt lat="45.72525" lon="6.24184">
        <ele>1444</ele>
        <time>2011-11-01T11:01:03Z</time>
      </trkpt>
      <trkpt lat="45.72516" lon="6.242">
        <ele>1441</ele>
        <time>2011-11-01T11:01:09Z</time>
      </trkpt>
      <trkpt lat="45.72506" lon="6.2421">
        <ele>1438</ele>
        <time>2011-11-01T11:01:15Z</time>
      </trkpt>
      <trkpt lat="45.72496" lon="6.24219">
        <ele>1456</ele>
        <time>2011-11-01T11:01:20Z</time>
      </trkpt>
      <trkpt lat="45.72492" lon="6.24223">
        <ele>1454</ele>
        <time>2011-11-01T11:01:23Z</time>
      </trkpt>
      <trkpt lat="45.72489" lon="6.24232">
        <ele>1450</ele>
        <time>2011-11-01T11:01:34Z</time>
      </trkpt>
      <trkpt lat="45.7249" lon="6.24232">
        <ele>1449</ele>
        <time>2011-11-01T11:01:42Z</time>
      </trkpt>
      <trkpt lat="45.72484" lon="6.24237">
        <ele>1450</ele>
        <time>2011-11-01T11:02:05Z</time>
      </trkpt>
      <trkpt lat="45.72492" lon="6.24225">
        <ele>1453</ele>
        <time>2011-11-01T11:02:12Z</time>
      </trkpt>
      <trkpt lat="45.72499" lon="6.2422">
        <ele>1455</ele>
        <time>2011-11-01T11:02:18Z</time>
      </trkpt>
      <trkpt lat="45.72503" lon="6.24218">
        <ele>1436</ele>
        <time>2011-11-01T11:02:22Z</time>
      </trkpt>
      <trkpt lat="45.72504" lon="6.24218">
        <ele>1436</ele>
        <time>2011-11-01T11:02:23Z</time>
      </trkpt>
      <trkpt lat="45.72509" lon="6.24216">
        <ele>1436</ele>
        <time>2011-11-01T11:02:29Z</time>
      </trkpt>
      <trkpt lat="45.72516" lon="6.24207">
        <ele>1438</ele>
        <time>2011-11-01T11:02:40Z</time>
      </trkpt>
      <trkpt lat="45.72518" lon="6.24205">
        <ele>1439</ele>
        <time>2011-11-01T11:02:43Z</time>
      </trkpt>
      <trkpt lat="45.72525" lon="6.24199">
        <ele>1440</ele>
        <time>2011-11-01T11:02:51Z</time>
      </trkpt>
      <trkpt lat="45.72528" lon="6.24196">
        <ele>1440</ele>
        <time>2011-11-01T11:02:56Z</time>
      </trkpt>
      <trkpt lat="45.72529" lon="6.24188">
        <ele>1442</ele>
        <time>2011-11-01T11:03:02Z</time>
      </trkpt>
      <trkpt lat="45.72535" lon="6.24184">
        <ele>1441</ele>
        <time>2011-11-01T11:03:09Z</time>
      </trkpt>
      <trkpt lat="45.72542" lon="6.24178">
        <ele>1441</ele>
        <time>2011-11-01T11:03:17Z</time>
      </trkpt>
      <trkpt lat="45.72549" lon="6.24167">
        <ele>1441</ele>
        <time>2011-11-01T11:03:25Z</time>
      </trkpt>
      <trkpt lat="45.7255" lon="6.24164">
        <ele>1459</ele>
        <time>2011-11-01T11:03:27Z</time>
      </trkpt>
      <trkpt lat="45.72557" lon="6.24157">
        <ele>1458</ele>
        <time>2011-11-01T11:03:35Z</time>
      </trkpt>
      <trkpt lat="45.72565" lon="6.24149">
        <ele>1457</ele>
        <time>2011-11-01T11:03:43Z</time>
      </trkpt>
      <trkpt lat="45.72564" lon="6.24149">
        <ele>1457</ele>
        <time>2011-11-01T11:03:49Z</time>
      </trkpt>
      <trkpt lat="45.7257" lon="6.24147">
        <ele>1456</ele>
        <time>2011-11-01T11:03:55Z</time>
      </trkpt>
      <trkpt lat="45.72579" lon="6.24145">
        <ele>1456</ele>
        <time>2011-11-01T11:04:00Z</time>
      </trkpt>
      <trkpt lat="45.72586" lon="6.24143">
        <ele>1449</ele>
        <time>2011-11-01T11:04:06Z</time>
      </trkpt>
      <trkpt lat="45.72596" lon="6.24138">
        <ele>1451</ele>
        <time>2011-11-01T11:04:15Z</time>
      </trkpt>
      <trkpt lat="45.72605" lon="6.24133">
        <ele>1451</ele>
        <time>2011-11-01T11:04:22Z</time>
      </trkpt>
      <trkpt lat="45.72614" lon="6.2413">
        <ele>1452</ele>
        <time>2011-11-01T11:04:29Z</time>
      </trkpt>
      <trkpt lat="45.72615" lon="6.24128">
        <ele>1452</ele>
        <time>2011-11-01T11:04:32Z</time>
      </trkpt>
      <trkpt lat="45.72614" lon="6.24123">
        <ele>1453</ele>
        <time>2011-11-01T11:04:39Z</time>
      </trkpt>
      <trkpt lat="45.72604" lon="6.24125">
        <ele>1453</ele>
        <time>2011-11-01T11:04:47Z</time>
      </trkpt>
      <trkpt lat="45.72599" lon="6.24126">
        <ele>1453</ele>
        <time>2011-11-01T11:04:53Z</time>
      </trkpt>
      <trkpt lat="45.72599" lon="6.24127">
        <ele>1453</ele>
        <time>2011-11-01T11:04:58Z</time>
      </trkpt>
      <trkpt lat="45.72596" lon="6.24127">
        <ele>1453</ele>
        <time>2011-11-01T11:05:03Z</time>
      </trkpt>
      <trkpt lat="45.72584" lon="6.24127">
        <ele>1453</ele>
        <time>2011-11-01T11:05:09Z</time>
      </trkpt>
      <trkpt lat="45.72577" lon="6.24126">
        <ele>1462</ele>
        <time>2011-11-01T11:05:14Z</time>
      </trkpt>
      <trkpt lat="45.72577" lon="6.24125">
        <ele>1462</ele>
        <time>2011-11-01T11:05:15Z</time>
      </trkpt>
      <trkpt lat="45.72569" lon="6.24124">
        <ele>1462</ele>
        <time>2011-11-01T11:05:21Z</time>
      </trkpt>
      <trkpt lat="45.72561" lon="6.24125">
        <ele>1463</ele>
        <time>2011-11-01T11:05:25Z</time>
      </trkpt>
      <trkpt lat="45.72554" lon="6.24127">
        <ele>1463</ele>
        <time>2011-11-01T11:05:31Z</time>
      </trkpt>
      <trkpt lat="45.72548" lon="6.24129">
        <ele>1463</ele>
        <time>2011-11-01T11:05:36Z</time>
      </trkpt>
      <trkpt lat="45.72546" lon="6.24137">
        <ele>1462</ele>
        <time>2011-11-01T11:05:47Z</time>
      </trkpt>
      <trkpt lat="45.72542" lon="6.24137">
        <ele>1463</ele>
        <time>2011-11-01T11:05:52Z</time>
      </trkpt>
      <trkpt lat="45.72539" lon="6.24137">
        <ele>1463</ele>
        <time>2011-11-01T11:05:56Z</time>
      </trkpt>
      <trkpt lat="45.72534" lon="6.24141">
        <ele>1463</ele>
        <time>2011-11-01T11:06:04Z</time>
      </trkpt>
      <trkpt lat="45.72528" lon="6.24147">
        <ele>1464</ele>
        <time>2011-11-01T11:06:11Z</time>
      </trkpt>
      <trkpt lat="45.72524" lon="6.24153">
        <ele>1464</ele>
        <time>2011-11-01T11:06:15Z</time>
      </trkpt>
      <trkpt lat="45.7252" lon="6.24154">
        <ele>1464</ele>
        <time>2011-11-01T11:06:19Z</time>
      </trkpt>
      <trkpt lat="45.72515" lon="6.24159">
        <ele>1464</ele>
        <time>2011-11-01T11:06:24Z</time>
      </trkpt>
      <trkpt lat="45.72508" lon="6.24164">
        <ele>1465</ele>
        <time>2011-11-01T11:06:32Z</time>
      </trkpt>
      <trkpt lat="45.72505" lon="6.24165">
        <ele>1465</ele>
        <time>2011-11-01T11:06:36Z</time>
      </trkpt>
      <trkpt lat="45.72503" lon="6.24166">
        <ele>1465</ele>
        <time>2011-11-01T11:06:40Z</time>
      </trkpt>
      <trkpt lat="45.72501" lon="6.24169">
        <ele>1462</ele>
        <time>2011-11-01T11:06:46Z</time>
      </trkpt>
      <trkpt lat="45.72496" lon="6.24172">
        <ele>1466</ele>
        <time>2011-11-01T11:06:50Z</time>
      </trkpt>
      <trkpt lat="45.72493" lon="6.24175">
        <ele>1466</ele>
        <time>2011-11-01T11:06:55Z</time>
      </trkpt>
      <trkpt lat="45.72492" lon="6.24176">
        <ele>1466</ele>
        <time>2011-11-01T11:06:56Z</time>
      </trkpt>
      <trkpt lat="45.72486" lon="6.24184">
        <ele>1467</ele>
        <time>2011-11-01T11:07:03Z</time>
      </trkpt>
      <trkpt lat="45.72483" lon="6.24187">
        <ele>1467</ele>
        <time>2011-11-01T11:07:05Z</time>
      </trkpt>
      <trkpt lat="45.72476" lon="6.24193">
        <ele>1468</ele>
        <time>2011-11-01T11:07:12Z</time>
      </trkpt>
      <trkpt lat="45.72472" lon="6.24197">
        <ele>1468</ele>
        <time>2011-11-01T11:07:17Z</time>
      </trkpt>
      <trkpt lat="45.7247" lon="6.24201">
        <ele>1467</ele>
        <time>2011-11-01T11:07:21Z</time>
      </trkpt>
      <trkpt lat="45.72462" lon="6.24209">
        <ele>1467</ele>
        <time>2011-11-01T11:07:28Z</time>
      </trkpt>
      <trkpt lat="45.72457" lon="6.24213">
        <ele>1468</ele>
        <time>2011-11-01T11:07:39Z</time>
      </trkpt>
      <trkpt lat="45.72453" lon="6.24218">
        <ele>1468</ele>
        <time>2011-11-01T11:07:47Z</time>
      </trkpt>
      <trkpt lat="45.72445" lon="6.24223">
        <ele>1469</ele>
        <time>2011-11-01T11:07:58Z</time>
      </trkpt>
      <trkpt lat="45.72443" lon="6.24223">
        <ele>1469</ele>
        <time>2011-11-01T11:07:59Z</time>
      </trkpt>
      <trkpt lat="45.7244" lon="6.24224">
        <ele>1470</ele>
        <time>2011-11-01T11:08:02Z</time>
      </trkpt>
      <trkpt lat="45.72441" lon="6.24229">
        <ele>1468</ele>
        <time>2011-11-01T11:08:09Z</time>
      </trkpt>
      <trkpt lat="45.72444" lon="6.2423">
        <ele>1468</ele>
        <time>2011-11-01T11:08:20Z</time>
      </trkpt>
      <trkpt lat="45.72446" lon="6.24225">
        <ele>1468</ele>
        <time>2011-11-01T11:08:25Z</time>
      </trkpt>
      <trkpt lat="45.72448" lon="6.24222">
        <ele>1468</ele>
        <time>2011-11-01T11:08:29Z</time>
      </trkpt>
      <trkpt lat="45.72453" lon="6.2422">
        <ele>1467</ele>
        <time>2011-11-01T11:08:36Z</time>
      </trkpt>
      <trkpt lat="45.72453" lon="6.24223">
        <ele>1467</ele>
        <time>2011-11-01T11:08:43Z</time>
      </trkpt>
      <trkpt lat="45.72449" lon="6.24225">
        <ele>1467</ele>
        <time>2011-11-01T11:08:48Z</time>
      </trkpt>
      <trkpt lat="45.72439" lon="6.24224">
        <ele>1470</ele>
        <time>2011-11-01T11:09:03Z</time>
      </trkpt>
      <trkpt lat="45.72436" lon="6.2423">
        <ele>1469</ele>
        <time>2011-11-01T11:09:09Z</time>
      </trkpt>
      <trkpt lat="45.72432" lon="6.24236">
        <ele>1469</ele>
        <time>2011-11-01T11:09:15Z</time>
      </trkpt>
      <trkpt lat="45.72426" lon="6.24243">
        <ele>1469</ele>
        <time>2011-11-01T11:09:22Z</time>
      </trkpt>
      <trkpt lat="45.72417" lon="6.24252">
        <ele>1465</ele>
        <time>2011-11-01T11:09:29Z</time>
      </trkpt>
      <trkpt lat="45.72411" lon="6.24259">
        <ele>1467</ele>
        <time>2011-11-01T11:09:35Z</time>
      </trkpt>
      <trkpt lat="45.7241" lon="6.24259">
        <ele>1467</ele>
        <time>2011-11-01T11:09:36Z</time>
      </trkpt>
      <trkpt lat="45.72401" lon="6.24266">
        <ele>1466</ele>
        <time>2011-11-01T11:09:44Z</time>
      </trkpt>
      <trkpt lat="45.72395" lon="6.24268">
        <ele>1466</ele>
        <time>2011-11-01T11:09:50Z</time>
      </trkpt>
      <trkpt lat="45.7239" lon="6.2427">
        <ele>1467</ele>
        <time>2011-11-01T11:09:55Z</time>
      </trkpt>
      <trkpt lat="45.72383" lon="6.24274">
        <ele>1467</ele>
        <time>2011-11-01T11:10:01Z</time>
      </trkpt>
      <trkpt lat="45.72377" lon="6.24277">
        <ele>1468</ele>
        <time>2011-11-01T11:10:07Z</time>
      </trkpt>
      <trkpt lat="45.72373" lon="6.24282">
        <ele>1467</ele>
        <time>2011-11-01T11:10:11Z</time>
      </trkpt>
      <trkpt lat="45.72365" lon="6.24285">
        <ele>1468</ele>
        <time>2011-11-01T11:10:18Z</time>
      </trkpt>
      <trkpt lat="45.72363" lon="6.24286">
        <ele>1468</ele>
        <time>2011-11-01T11:10:25Z</time>
      </trkpt>
      <trkpt lat="45.72357" lon="6.24288">
        <ele>1469</ele>
        <time>2011-11-01T11:10:33Z</time>
      </trkpt>
      <trkpt lat="45.72352" lon="6.24293">
        <ele>1468</ele>
        <time>2011-11-01T11:10:39Z</time>
      </trkpt>
      <trkpt lat="45.72346" lon="6.24298">
        <ele>1467</ele>
        <time>2011-11-01T11:10:45Z</time>
      </trkpt>
      <trkpt lat="45.72338" lon="6.24305">
        <ele>1466</ele>
        <time>2011-11-01T11:10:53Z</time>
      </trkpt>
      <trkpt lat="45.72332" lon="6.24311">
        <ele>1484</ele>
        <time>2011-11-01T11:11:00Z</time>
      </trkpt>
      <trkpt lat="45.72326" lon="6.24319">
        <ele>1479</ele>
        <time>2011-11-01T11:11:06Z</time>
      </trkpt>
      <trkpt lat="45.72321" lon="6.24322">
        <ele>1480</ele>
        <time>2011-11-01T11:11:13Z</time>
      </trkpt>
      <trkpt lat="45.72312" lon="6.24328">
        <ele>1483</ele>
        <time>2011-11-01T11:11:21Z</time>
      </trkpt>
      <trkpt lat="45.72305" lon="6.24333">
        <ele>1486</ele>
        <time>2011-11-01T11:11:28Z</time>
      </trkpt>
      <trkpt lat="45.72297" lon="6.24337">
        <ele>1462</ele>
        <time>2011-11-01T11:11:36Z</time>
      </trkpt>
      <trkpt lat="45.72293" lon="6.24337">
        <ele>1463</ele>
        <time>2011-11-01T11:11:42Z</time>
      </trkpt>
      <trkpt lat="45.72291" lon="6.2434">
        <ele>1463</ele>
        <time>2011-11-01T11:11:47Z</time>
      </trkpt>
      <trkpt lat="45.72285" lon="6.24346">
        <ele>1464</ele>
        <time>2011-11-01T11:11:55Z</time>
      </trkpt>
      <trkpt lat="45.72282" lon="6.2435">
        <ele>1464</ele>
        <time>2011-11-01T11:12:01Z</time>
      </trkpt>
      <trkpt lat="45.72275" lon="6.24354">
        <ele>1466</ele>
        <time>2011-11-01T11:12:07Z</time>
      </trkpt>
      <trkpt lat="45.72269" lon="6.24356">
        <ele>1467</ele>
        <time>2011-11-01T11:12:14Z</time>
      </trkpt>
      <trkpt lat="45.72267" lon="6.24358">
        <ele>1467</ele>
        <time>2011-11-01T11:12:20Z</time>
      </trkpt>
      <trkpt lat="45.72262" lon="6.24362">
        <ele>1466</ele>
        <time>2011-11-01T11:12:26Z</time>
      </trkpt>
      <trkpt lat="45.72254" lon="6.24367">
        <ele>1465</ele>
        <time>2011-11-01T11:12:35Z</time>
      </trkpt>
      <trkpt lat="45.7225" lon="6.2437">
        <ele>1487</ele>
        <time>2011-11-01T11:12:41Z</time>
      </trkpt>
      <trkpt lat="45.72249" lon="6.24371">
        <ele>1487</ele>
        <time>2011-11-01T11:12:48Z</time>
      </trkpt>
      <trkpt lat="45.7225" lon="6.2437">
        <ele>1487</ele>
        <time>2011-11-01T11:12:58Z</time>
      </trkpt>
      <trkpt lat="45.72248" lon="6.24373">
        <ele>1487</ele>
        <time>2011-11-01T11:13:04Z</time>
      </trkpt>
      <trkpt lat="45.72244" lon="6.24373">
        <ele>1487</ele>
        <time>2011-11-01T11:13:12Z</time>
      </trkpt>
      <trkpt lat="45.7224" lon="6.24375">
        <ele>1487</ele>
        <time>2011-11-01T11:13:17Z</time>
      </trkpt>
      <trkpt lat="45.72239" lon="6.24378">
        <ele>1486</ele>
        <time>2011-11-01T11:13:22Z</time>
      </trkpt>
      <trkpt lat="45.72239" lon="6.24384">
        <ele>1483</ele>
        <time>2011-11-01T11:13:29Z</time>
      </trkpt>
      <trkpt lat="45.72239" lon="6.24387">
        <ele>1482</ele>
        <time>2011-11-01T11:13:36Z</time>
      </trkpt>
      <trkpt lat="45.72238" lon="6.24392">
        <ele>1480</ele>
        <time>2011-11-01T11:13:43Z</time>
      </trkpt>
      <trkpt lat="45.72236" lon="6.24398">
        <ele>1477</ele>
        <time>2011-11-01T11:13:50Z</time>
      </trkpt>
      <trkpt lat="45.72234" lon="6.244">
        <ele>1477</ele>
        <time>2011-11-01T11:13:55Z</time>
      </trkpt>
      <trkpt lat="45.7223" lon="6.24406">
        <ele>1477</ele>
        <time>2011-11-01T11:14:02Z</time>
      </trkpt>
      <trkpt lat="45.72224" lon="6.24412">
        <ele>1479</ele>
        <time>2011-11-01T11:14:09Z</time>
      </trkpt>
      <trkpt lat="45.72215" lon="6.24423">
        <ele>1457</ele>
        <time>2011-11-01T11:14:16Z</time>
      </trkpt>
      <trkpt lat="45.72211" lon="6.24427">
        <ele>1458</ele>
        <time>2011-11-01T11:14:20Z</time>
      </trkpt>
      <trkpt lat="45.72208" lon="6.24429">
        <ele>1459</ele>
        <time>2011-11-01T11:14:24Z</time>
      </trkpt>
      <trkpt lat="45.72202" lon="6.2443">
        <ele>1460</ele>
        <time>2011-11-01T11:14:32Z</time>
      </trkpt>
      <trkpt lat="45.72197" lon="6.24431">
        <ele>1462</ele>
        <time>2011-11-01T11:14:38Z</time>
      </trkpt>
      <trkpt lat="45.72195" lon="6.24432">
        <ele>1462</ele>
        <time>2011-11-01T11:14:44Z</time>
      </trkpt>
      <trkpt lat="45.72196" lon="6.24433">
        <ele>1462</ele>
        <time>2011-11-01T11:14:49Z</time>
      </trkpt>
      <trkpt lat="45.72195" lon="6.24435">
        <ele>1462</ele>
        <time>2011-11-01T11:14:58Z</time>
      </trkpt>
      <trkpt lat="45.72196" lon="6.24439">
        <ele>1460</ele>
        <time>2011-11-01T11:15:04Z</time>
      </trkpt>
      <trkpt lat="45.72196" lon="6.24446">
        <ele>1458</ele>
        <time>2011-11-01T11:15:11Z</time>
      </trkpt>
      <trkpt lat="45.72194" lon="6.24452">
        <ele>1457</ele>
        <time>2011-11-01T11:15:18Z</time>
      </trkpt>
      <trkpt lat="45.72187" lon="6.24457">
        <ele>1457</ele>
        <time>2011-11-01T11:15:25Z</time>
      </trkpt>
      <trkpt lat="45.72185" lon="6.24459">
        <ele>1457</ele>
        <time>2011-11-01T11:15:30Z</time>
      </trkpt>
      <trkpt lat="45.72184" lon="6.2446">
        <ele>1457</ele>
        <time>2011-11-01T11:15:31Z</time>
      </trkpt>
      <trkpt lat="45.7218" lon="6.24472">
        <ele>1455</ele>
        <time>2011-11-01T11:15:38Z</time>
      </trkpt>
      <trkpt lat="45.72178" lon="6.24475">
        <ele>1454</ele>
        <time>2011-11-01T11:15:40Z</time>
      </trkpt>
      <trkpt lat="45.72171" lon="6.24491">
        <ele>1452</ele>
        <time>2011-11-01T11:15:50Z</time>
      </trkpt>
      <trkpt lat="45.72166" lon="6.24494">
        <ele>1460</ele>
        <time>2011-11-01T11:15:56Z</time>
      </trkpt>
      <trkpt lat="45.72158" lon="6.245">
        <ele>1451</ele>
        <time>2011-11-01T11:16:01Z</time>
      </trkpt>
      <trkpt lat="45.72148" lon="6.24505">
        <ele>1452</ele>
        <time>2011-11-01T11:16:06Z</time>
      </trkpt>
      <trkpt lat="45.7214" lon="6.24506">
        <ele>1453</ele>
        <time>2011-11-01T11:16:11Z</time>
      </trkpt>
      <trkpt lat="45.72128" lon="6.24512">
        <ele>1454</ele>
        <time>2011-11-01T11:16:16Z</time>
      </trkpt>
      <trkpt lat="45.72116" lon="6.24522">
        <ele>1455</ele>
        <time>2011-11-01T11:16:22Z</time>
      </trkpt>
      <trkpt lat="45.72111" lon="6.24527">
        <ele>1455</ele>
        <time>2011-11-01T11:16:27Z</time>
      </trkpt>
      <trkpt lat="45.72109" lon="6.24533">
        <ele>1454</ele>
        <time>2011-11-01T11:16:32Z</time>
      </trkpt>
      <trkpt lat="45.72104" lon="6.24541">
        <ele>1452</ele>
        <time>2011-11-01T11:16:37Z</time>
      </trkpt>
      <trkpt lat="45.72095" lon="6.24548">
        <ele>1451</ele>
        <time>2011-11-01T11:16:43Z</time>
      </trkpt>
      <trkpt lat="45.72087" lon="6.2456">
        <ele>1447</ele>
        <time>2011-11-01T11:16:48Z</time>
      </trkpt>
      <trkpt lat="45.72079" lon="6.24573">
        <ele>1452</ele>
        <time>2011-11-01T11:16:52Z</time>
      </trkpt>
      <trkpt lat="45.7207" lon="6.24593">
        <ele>1441</ele>
        <time>2011-11-01T11:16:57Z</time>
      </trkpt>
      <trkpt lat="45.7206" lon="6.24607">
        <ele>1441</ele>
        <time>2011-11-01T11:17:02Z</time>
      </trkpt>
      <trkpt lat="45.72049" lon="6.2462">
        <ele>1441</ele>
        <time>2011-11-01T11:17:08Z</time>
      </trkpt>
      <trkpt lat="45.72036" lon="6.24633">
        <ele>1441</ele>
        <time>2011-11-01T11:17:14Z</time>
      </trkpt>
      <trkpt lat="45.72023" lon="6.24646">
        <ele>1441</ele>
        <time>2011-11-01T11:17:20Z</time>
      </trkpt>
      <trkpt lat="45.72015" lon="6.24654">
        <ele>1442</ele>
        <time>2011-11-01T11:17:25Z</time>
      </trkpt>
      <trkpt lat="45.72009" lon="6.24658">
        <ele>1442</ele>
        <time>2011-11-01T11:17:30Z</time>
      </trkpt>
      <trkpt lat="45.72002" lon="6.24666">
        <ele>1443</ele>
        <time>2011-11-01T11:17:35Z</time>
      </trkpt>
      <trkpt lat="45.71997" lon="6.24673">
        <ele>1442</ele>
        <time>2011-11-01T11:17:41Z</time>
      </trkpt>
      <trkpt lat="45.71988" lon="6.24684">
        <ele>1441</ele>
        <time>2011-11-01T11:17:47Z</time>
      </trkpt>
      <trkpt lat="45.7198" lon="6.2469">
        <ele>1441</ele>
        <time>2011-11-01T11:17:52Z</time>
      </trkpt>
      <trkpt lat="45.7197" lon="6.24697">
        <ele>1441</ele>
        <time>2011-11-01T11:17:59Z</time>
      </trkpt>
      <trkpt lat="45.71956" lon="6.24707">
        <ele>1441</ele>
        <time>2011-11-01T11:18:06Z</time>
      </trkpt>
      <trkpt lat="45.7194" lon="6.24716">
        <ele>1443</ele>
        <time>2011-11-01T11:18:13Z</time>
      </trkpt>
      <trkpt lat="45.71935" lon="6.24719">
        <ele>1443</ele>
        <time>2011-11-01T11:18:16Z</time>
      </trkpt>
      <trkpt lat="45.7193" lon="6.24735">
        <ele>1443</ele>
        <time>2011-11-01T11:18:22Z</time>
      </trkpt>
      <trkpt lat="45.71929" lon="6.24741">
        <ele>1443</ele>
        <time>2011-11-01T11:18:24Z</time>
      </trkpt>
      <trkpt lat="45.71928" lon="6.24771">
        <ele>1433</ele>
        <time>2011-11-01T11:18:32Z</time>
      </trkpt>
      <trkpt lat="45.71924" lon="6.24781">
        <ele>1432</ele>
        <time>2011-11-01T11:18:36Z</time>
      </trkpt>
      <trkpt lat="45.71909" lon="6.24798">
        <ele>1438</ele>
        <time>2011-11-01T11:18:42Z</time>
      </trkpt>
      <trkpt lat="45.71906" lon="6.24804">
        <ele>1438</ele>
        <time>2011-11-01T11:18:44Z</time>
      </trkpt>
      <trkpt lat="45.71904" lon="6.24804">
        <ele>1438</ele>
        <time>2011-11-01T11:18:51Z</time>
      </trkpt>
      <trkpt lat="45.71898" lon="6.24808">
        <ele>1437</ele>
        <time>2011-11-01T11:18:56Z</time>
      </trkpt>
      <trkpt lat="45.71882" lon="6.24815">
        <ele>1436</ele>
        <time>2011-11-01T11:19:02Z</time>
      </trkpt>
      <trkpt lat="45.71876" lon="6.24819">
        <ele>1435</ele>
        <time>2011-11-01T11:19:05Z</time>
      </trkpt>
      <trkpt lat="45.7188" lon="6.24838">
        <ele>1422</ele>
        <time>2011-11-01T11:19:10Z</time>
      </trkpt>
      <trkpt lat="45.71888" lon="6.24849">
        <ele>1422</ele>
        <time>2011-11-01T11:19:14Z</time>
      </trkpt>
      <trkpt lat="45.71902" lon="6.24871">
        <ele>1421</ele>
        <time>2011-11-01T11:19:20Z</time>
      </trkpt>
      <trkpt lat="45.71917" lon="6.24893">
        <ele>1421</ele>
        <time>2011-11-01T11:19:24Z</time>
      </trkpt>
      <trkpt lat="45.71936" lon="6.24918">
        <ele>1415</ele>
        <time>2011-11-01T11:19:29Z</time>
      </trkpt>
      <trkpt lat="45.7194" lon="6.24923">
        <ele>1414</ele>
        <time>2011-11-01T11:19:30Z</time>
      </trkpt>
      <trkpt lat="45.71959" lon="6.24958">
        <ele>1410</ele>
        <time>2011-11-01T11:19:35Z</time>
      </trkpt>
      <trkpt lat="45.71975" lon="6.24989">
        <ele>1411</ele>
        <time>2011-11-01T11:19:40Z</time>
      </trkpt>
      <trkpt lat="45.71995" lon="6.25017">
        <ele>1409</ele>
        <time>2011-11-01T11:19:44Z</time>
      </trkpt>
      <trkpt lat="45.72015" lon="6.25034">
        <ele>1413</ele>
        <time>2011-11-01T11:19:48Z</time>
      </trkpt>
      <trkpt lat="45.72032" lon="6.25053">
        <ele>1413</ele>
        <time>2011-11-01T11:19:54Z</time>
      </trkpt>
      <trkpt lat="45.72042" lon="6.25069">
        <ele>1414</ele>
        <time>2011-11-01T11:20:01Z</time>
      </trkpt>
      <trkpt lat="45.72052" lon="6.25092">
        <ele>1424</ele>
        <time>2011-11-01T11:20:10Z</time>
      </trkpt>
      <trkpt lat="45.72057" lon="6.25106">
        <ele>1424</ele>
        <time>2011-11-01T11:20:16Z</time>
      </trkpt>
      <trkpt lat="45.72061" lon="6.25114">
        <ele>1425</ele>
        <time>2011-11-01T11:20:21Z</time>
      </trkpt>
      <trkpt lat="45.72061" lon="6.25114">
        <ele>1425</ele>
        <time>2011-11-01T11:20:24Z</time>
      </trkpt>
      <trkpt lat="45.7207" lon="6.25126">
        <ele>1427</ele>
        <time>2011-11-01T11:20:32Z</time>
      </trkpt>
      <trkpt lat="45.72078" lon="6.25136">
        <ele>1429</ele>
        <time>2011-11-01T11:20:39Z</time>
      </trkpt>
      <trkpt lat="45.72087" lon="6.25149">
        <ele>1432</ele>
        <time>2011-11-01T11:20:47Z</time>
      </trkpt>
      <trkpt lat="45.72095" lon="6.25158">
        <ele>1433</ele>
        <time>2011-11-01T11:20:54Z</time>
      </trkpt>
      <trkpt lat="45.72103" lon="6.2517">
        <ele>1439</ele>
        <time>2011-11-01T11:21:01Z</time>
      </trkpt>
      <trkpt lat="45.72108" lon="6.25184">
        <ele>1439</ele>
        <time>2011-11-01T11:21:08Z</time>
      </trkpt>
      <trkpt lat="45.72112" lon="6.25199">
        <ele>1439</ele>
        <time>2011-11-01T11:21:14Z</time>
      </trkpt>
      <trkpt lat="45.72113" lon="6.25216">
        <ele>1440</ele>
        <time>2011-11-01T11:21:21Z</time>
      </trkpt>
      <trkpt lat="45.72113" lon="6.25238">
        <ele>1441</ele>
        <time>2011-11-01T11:21:28Z</time>
      </trkpt>
      <trkpt lat="45.72116" lon="6.25269">
        <ele>1441</ele>
        <time>2011-11-01T11:21:32Z</time>
      </trkpt>
      <trkpt lat="45.7212" lon="6.25293">
        <ele>1441</ele>
        <time>2011-11-01T11:21:35Z</time>
      </trkpt>
      <trkpt lat="45.72118" lon="6.25323">
        <ele>1439</ele>
        <time>2011-11-01T11:21:38Z</time>
      </trkpt>
      <trkpt lat="45.72123" lon="6.25361">
        <ele>1440</ele>
        <time>2011-11-01T11:21:42Z</time>
      </trkpt>
      <trkpt lat="45.72133" lon="6.25389">
        <ele>1443</ele>
        <time>2011-11-01T11:21:46Z</time>
      </trkpt>
      <trkpt lat="45.72134" lon="6.25393">
        <ele>1443</ele>
        <time>2011-11-01T11:21:47Z</time>
      </trkpt>
      <trkpt lat="45.72136" lon="6.25403">
        <ele>1444</ele>
        <time>2011-11-01T11:21:51Z</time>
      </trkpt>
      <trkpt lat="45.72138" lon="6.25424">
        <ele>1448</ele>
        <time>2011-11-01T11:21:58Z</time>
      </trkpt>
      <trkpt lat="45.72138" lon="6.25428">
        <ele>1448</ele>
        <time>2011-11-01T11:21:59Z</time>
      </trkpt>
      <trkpt lat="45.72138" lon="6.25452">
        <ele>1448</ele>
        <time>2011-11-01T11:22:07Z</time>
      </trkpt>
      <trkpt lat="45.72137" lon="6.2548">
        <ele>1451</ele>
        <time>2011-11-01T11:22:16Z</time>
      </trkpt>
      <trkpt lat="45.72134" lon="6.25501">
        <ele>1454</ele>
        <time>2011-11-01T11:22:23Z</time>
      </trkpt>
      <trkpt lat="45.7213" lon="6.2553">
        <ele>1452</ele>
        <time>2011-11-01T11:22:32Z</time>
      </trkpt>
      <trkpt lat="45.72129" lon="6.25544">
        <ele>1451</ele>
        <time>2011-11-01T11:22:37Z</time>
      </trkpt>
      <trkpt lat="45.72125" lon="6.25564">
        <ele>1451</ele>
        <time>2011-11-01T11:22:43Z</time>
      </trkpt>
      <trkpt lat="45.7212" lon="6.25593">
        <ele>1448</ele>
        <time>2011-11-01T11:22:48Z</time>
      </trkpt>
      <trkpt lat="45.72118" lon="6.25624">
        <ele>1447</ele>
        <time>2011-11-01T11:22:52Z</time>
      </trkpt>
      <trkpt lat="45.72121" lon="6.25652">
        <ele>1447</ele>
        <time>2011-11-01T11:22:57Z</time>
      </trkpt>
      <trkpt lat="45.72122" lon="6.25656">
        <ele>1447</ele>
        <time>2011-11-01T11:22:58Z</time>
      </trkpt>
      <trkpt lat="45.72125" lon="6.25668">
        <ele>1441</ele>
        <time>2011-11-01T11:23:00Z</time>
      </trkpt>
      <trkpt lat="45.72131" lon="6.25692">
        <ele>1442</ele>
        <time>2011-11-01T11:23:05Z</time>
      </trkpt>
      <trkpt lat="45.72139" lon="6.25714">
        <ele>1442</ele>
        <time>2011-11-01T11:23:11Z</time>
      </trkpt>
      <trkpt lat="45.72158" lon="6.25729">
        <ele>1445</ele>
        <time>2011-11-01T11:23:17Z</time>
      </trkpt>
      <trkpt lat="45.72186" lon="6.25749">
        <ele>1464</ele>
        <time>2011-11-01T11:23:25Z</time>
      </trkpt>
      <trkpt lat="45.72202" lon="6.25763">
        <ele>1460</ele>
        <time>2011-11-01T11:23:31Z</time>
      </trkpt>
      <trkpt lat="45.7221" lon="6.25771">
        <ele>1462</ele>
        <time>2011-11-01T11:23:36Z</time>
      </trkpt>
      <trkpt lat="45.72214" lon="6.25784">
        <ele>1462</ele>
        <time>2011-11-01T11:23:42Z</time>
      </trkpt>
      <trkpt lat="45.72215" lon="6.25798">
        <ele>1461</ele>
        <time>2011-11-01T11:23:48Z</time>
      </trkpt>
      <trkpt lat="45.72216" lon="6.25812">
        <ele>1460</ele>
        <time>2011-11-01T11:23:54Z</time>
      </trkpt>
      <trkpt lat="45.72224" lon="6.25823">
        <ele>1462</ele>
        <time>2011-11-01T11:24:00Z</time>
      </trkpt>
      <trkpt lat="45.72235" lon="6.25829">
        <ele>1465</ele>
        <time>2011-11-01T11:24:06Z</time>
      </trkpt>
      <trkpt lat="45.72252" lon="6.25842">
        <ele>1470</ele>
        <time>2011-11-01T11:24:15Z</time>
      </trkpt>
      <trkpt lat="45.72262" lon="6.25851">
        <ele>1470</ele>
        <time>2011-11-01T11:24:22Z</time>
      </trkpt>
      <trkpt lat="45.72277" lon="6.2586">
        <ele>1470</ele>
        <time>2011-11-01T11:24:29Z</time>
      </trkpt>
      <trkpt lat="45.72292" lon="6.25866">
        <ele>1471</ele>
        <time>2011-11-01T11:24:33Z</time>
      </trkpt>
      <trkpt lat="45.72307" lon="6.25874">
        <ele>1471</ele>
        <time>2011-11-01T11:24:36Z</time>
      </trkpt>
      <trkpt lat="45.72325" lon="6.25891">
        <ele>1469</ele>
        <time>2011-11-01T11:24:39Z</time>
      </trkpt>
      <trkpt lat="45.72342" lon="6.25902">
        <ele>1475</ele>
        <time>2011-11-01T11:24:43Z</time>
      </trkpt>
      <trkpt lat="45.7235" lon="6.25905">
        <ele>1476</ele>
        <time>2011-11-01T11:24:46Z</time>
      </trkpt>
      <trkpt lat="45.72372" lon="6.25913">
        <ele>1481</ele>
        <time>2011-11-01T11:24:52Z</time>
      </trkpt>
      <trkpt lat="45.72388" lon="6.2592">
        <ele>1468</ele>
        <time>2011-11-01T11:24:55Z</time>
      </trkpt>
      <trkpt lat="45.72405" lon="6.25942">
        <ele>1468</ele>
        <time>2011-11-01T11:24:59Z</time>
      </trkpt>
      <trkpt lat="45.7243" lon="6.25962">
        <ele>1473</ele>
        <time>2011-11-01T11:25:05Z</time>
      </trkpt>
      <trkpt lat="45.72442" lon="6.25965">
        <ele>1473</ele>
        <time>2011-11-01T11:25:08Z</time>
      </trkpt>
      <trkpt lat="45.72452" lon="6.25979">
        <ele>1472</ele>
        <time>2011-11-01T11:25:12Z</time>
      </trkpt>
      <trkpt lat="45.72454" lon="6.25985">
        <ele>1471</ele>
        <time>2011-11-01T11:25:13Z</time>
      </trkpt>
      <trkpt lat="45.72462" lon="6.26013">
        <ele>1460</ele>
        <time>2011-11-01T11:25:18Z</time>
      </trkpt>
      <trkpt lat="45.72469" lon="6.2603">
        <ele>1460</ele>
        <time>2011-11-01T11:25:21Z</time>
      </trkpt>
      <trkpt lat="45.72489" lon="6.26058">
        <ele>1459</ele>
        <time>2011-11-01T11:25:27Z</time>
      </trkpt>
      <trkpt lat="45.72515" lon="6.26079">
        <ele>1465</ele>
        <time>2011-11-01T11:25:33Z</time>
      </trkpt>
      <trkpt lat="45.72528" lon="6.26088">
        <ele>1458</ele>
        <time>2011-11-01T11:25:36Z</time>
      </trkpt>
      <trkpt lat="45.72549" lon="6.26112">
        <ele>1457</ele>
        <time>2011-11-01T11:25:42Z</time>
      </trkpt>
      <trkpt lat="45.72558" lon="6.26124">
        <ele>1456</ele>
        <time>2011-11-01T11:25:45Z</time>
      </trkpt>
      <trkpt lat="45.72578" lon="6.2614">
        <ele>1455</ele>
        <time>2011-11-01T11:25:50Z</time>
      </trkpt>
      <trkpt lat="45.72591" lon="6.26146">
        <ele>1455</ele>
        <time>2011-11-01T11:25:53Z</time>
      </trkpt>
      <trkpt lat="45.72607" lon="6.2615">
        <ele>1454</ele>
        <time>2011-11-01T11:25:57Z</time>
      </trkpt>
      <trkpt lat="45.72623" lon="6.26149">
        <ele>1454</ele>
        <time>2011-11-01T11:26:01Z</time>
      </trkpt>
      <trkpt lat="45.72652" lon="6.26156">
        <ele>1453</ele>
        <time>2011-11-01T11:26:08Z</time>
      </trkpt>
      <trkpt lat="45.72659" lon="6.26159">
        <ele>1453</ele>
        <time>2011-11-01T11:26:09Z</time>
      </trkpt>
      <trkpt lat="45.72689" lon="6.26179">
        <ele>1448</ele>
        <time>2011-11-01T11:26:13Z</time>
      </trkpt>
      <trkpt lat="45.7271" lon="6.26192">
        <ele>1446</ele>
        <time>2011-11-01T11:26:17Z</time>
      </trkpt>
      <trkpt lat="45.72734" lon="6.26208">
        <ele>1445</ele>
        <time>2011-11-01T11:26:23Z</time>
      </trkpt>
      <trkpt lat="45.72753" lon="6.26219">
        <ele>1438</ele>
        <time>2011-11-01T11:26:26Z</time>
      </trkpt>
      <trkpt lat="45.72776" lon="6.26252">
        <ele>1438</ele>
        <time>2011-11-01T11:26:31Z</time>
      </trkpt>
      <trkpt lat="45.72787" lon="6.26276">
        <ele>1437</ele>
        <time>2011-11-01T11:26:34Z</time>
      </trkpt>
      <trkpt lat="45.72805" lon="6.26288">
        <ele>1436</ele>
        <time>2011-11-01T11:26:37Z</time>
      </trkpt>
      <trkpt lat="45.7281" lon="6.26289">
        <ele>1436</ele>
        <time>2011-11-01T11:26:38Z</time>
      </trkpt>
      <trkpt lat="45.72835" lon="6.26291">
        <ele>1429</ele>
        <time>2011-11-01T11:26:44Z</time>
      </trkpt>
      <trkpt lat="45.72845" lon="6.2629">
        <ele>1428</ele>
        <time>2011-11-01T11:26:46Z</time>
      </trkpt>
      <trkpt lat="45.72878" lon="6.26298">
        <ele>1425</ele>
        <time>2011-11-01T11:26:53Z</time>
      </trkpt>
      <trkpt lat="45.72883" lon="6.263">
        <ele>1425</ele>
        <time>2011-11-01T11:26:54Z</time>
      </trkpt>
      <trkpt lat="45.72909" lon="6.26319">
        <ele>1425</ele>
        <time>2011-11-01T11:27:00Z</time>
      </trkpt>
      <trkpt lat="45.72913" lon="6.26323">
        <ele>1425</ele>
        <time>2011-11-01T11:27:02Z</time>
      </trkpt>
      <trkpt lat="45.72918" lon="6.26334">
        <ele>1425</ele>
        <time>2011-11-01T11:27:06Z</time>
      </trkpt>
      <trkpt lat="45.7292" lon="6.26351">
        <ele>1416</ele>
        <time>2011-11-01T11:27:12Z</time>
      </trkpt>
      <trkpt lat="45.7292" lon="6.26354">
        <ele>1415</ele>
        <time>2011-11-01T11:27:17Z</time>
      </trkpt>
      <trkpt lat="45.7292" lon="6.26351">
        <ele>1416</ele>
        <time>2011-11-01T11:27:25Z</time>
      </trkpt>
      <trkpt lat="45.72918" lon="6.26349">
        <ele>1417</ele>
        <time>2011-11-01T11:27:35Z</time>
      </trkpt>
      <trkpt lat="45.72918" lon="6.26347">
        <ele>1418</ele>
        <time>2011-11-01T11:27:36Z</time>
      </trkpt>
      <trkpt lat="45.7292" lon="6.26332">
        <ele>1423</ele>
        <time>2011-11-01T11:27:40Z</time>
      </trkpt>
      <trkpt lat="45.72929" lon="6.26333">
        <ele>1416</ele>
        <time>2011-11-01T11:27:43Z</time>
      </trkpt>
      <trkpt lat="45.72947" lon="6.26351">
        <ele>1410</ele>
        <time>2011-11-01T11:27:48Z</time>
      </trkpt>
      <trkpt lat="45.72951" lon="6.26356">
        <ele>1409</ele>
        <time>2011-11-01T11:27:49Z</time>
      </trkpt>
      <trkpt lat="45.72972" lon="6.26365">
        <ele>1405</ele>
        <time>2011-11-01T11:27:53Z</time>
      </trkpt>
      <trkpt lat="45.72991" lon="6.26358">
        <ele>1402</ele>
        <time>2011-11-01T11:27:57Z</time>
      </trkpt>
      <trkpt lat="45.73003" lon="6.26365">
        <ele>1383</ele>
        <time>2011-11-01T11:28:00Z</time>
      </trkpt>
      <trkpt lat="45.73009" lon="6.26382">
        <ele>1382</ele>
        <time>2011-11-01T11:28:03Z</time>
      </trkpt>
      <trkpt lat="45.73011" lon="6.26389">
        <ele>1382</ele>
        <time>2011-11-01T11:28:04Z</time>
      </trkpt>
      <trkpt lat="45.73012" lon="6.26401">
        <ele>1384</ele>
        <time>2011-11-01T11:28:06Z</time>
      </trkpt>
      <trkpt lat="45.73017" lon="6.26426">
        <ele>1379</ele>
        <time>2011-11-01T11:28:11Z</time>
      </trkpt>
      <trkpt lat="45.73027" lon="6.26431">
        <ele>1375</ele>
        <time>2011-11-01T11:28:14Z</time>
      </trkpt>
      <trkpt lat="45.73048" lon="6.26436">
        <ele>1369</ele>
        <time>2011-11-01T11:28:19Z</time>
      </trkpt>
      <trkpt lat="45.73057" lon="6.26432">
        <ele>1368</ele>
        <time>2011-11-01T11:28:21Z</time>
      </trkpt>
      <trkpt lat="45.73069" lon="6.26446">
        <ele>1366</ele>
        <time>2011-11-01T11:28:25Z</time>
      </trkpt>
      <trkpt lat="45.73066" lon="6.26464">
        <ele>1365</ele>
        <time>2011-11-01T11:28:28Z</time>
      </trkpt>
      <trkpt lat="45.73057" lon="6.26474">
        <ele>1365</ele>
        <time>2011-11-01T11:28:31Z</time>
      </trkpt>
      <trkpt lat="45.73049" lon="6.26478">
        <ele>1365</ele>
        <time>2011-11-01T11:28:33Z</time>
      </trkpt>
      <trkpt lat="45.73042" lon="6.26483">
        <ele>1365</ele>
        <time>2011-11-01T11:28:35Z</time>
      </trkpt>
      <trkpt lat="45.73022" lon="6.26493">
        <ele>1364</ele>
        <time>2011-11-01T11:28:39Z</time>
      </trkpt>
      <trkpt lat="45.73018" lon="6.26508">
        <ele>1352</ele>
        <time>2011-11-01T11:28:43Z</time>
      </trkpt>
      <trkpt lat="45.73029" lon="6.26516">
        <ele>1349</ele>
        <time>2011-11-01T11:28:46Z</time>
      </trkpt>
      <trkpt lat="45.73033" lon="6.26517">
        <ele>1349</ele>
        <time>2011-11-01T11:28:47Z</time>
      </trkpt>
      <trkpt lat="45.73041" lon="6.26518">
        <ele>1348</ele>
        <time>2011-11-01T11:28:49Z</time>
      </trkpt>
      <trkpt lat="45.73047" lon="6.26532">
        <ele>1346</ele>
        <time>2011-11-01T11:28:53Z</time>
      </trkpt>
      <trkpt lat="45.73039" lon="6.26536">
        <ele>1346</ele>
        <time>2011-11-01T11:28:56Z</time>
      </trkpt>
      <trkpt lat="45.73032" lon="6.26538">
        <ele>1346</ele>
        <time>2011-11-01T11:28:58Z</time>
      </trkpt>
      <trkpt lat="45.73003" lon="6.26548">
        <ele>1344</ele>
        <time>2011-11-01T11:29:05Z</time>
      </trkpt>
      <trkpt lat="45.72998" lon="6.26549">
        <ele>1346</ele>
        <time>2011-11-01T11:29:06Z</time>
      </trkpt>
      <trkpt lat="45.72979" lon="6.26564">
        <ele>1344</ele>
        <time>2011-11-01T11:29:11Z</time>
      </trkpt>
      <trkpt lat="45.72951" lon="6.26583">
        <ele>1345</ele>
        <time>2011-11-01T11:29:18Z</time>
      </trkpt>
      <trkpt lat="45.72939" lon="6.2659">
        <ele>1331</ele>
        <time>2011-11-01T11:29:23Z</time>
      </trkpt>
      <trkpt lat="45.72922" lon="6.26602">
        <ele>1331</ele>
        <time>2011-11-01T11:29:28Z</time>
      </trkpt>
      <trkpt lat="45.72896" lon="6.26622">
        <ele>1332</ele>
        <time>2011-11-01T11:29:34Z</time>
      </trkpt>
      <trkpt lat="45.72882" lon="6.26638">
        <ele>1330</ele>
        <time>2011-11-01T11:29:38Z</time>
      </trkpt>
      <trkpt lat="45.72859" lon="6.26656">
        <ele>1328</ele>
        <time>2011-11-01T11:29:44Z</time>
      </trkpt>
      <trkpt lat="45.72833" lon="6.26683">
        <ele>1318</ele>
        <time>2011-11-01T11:29:51Z</time>
      </trkpt>
      <trkpt lat="45.72814" lon="6.26705">
        <ele>1314</ele>
        <time>2011-11-01T11:29:56Z</time>
      </trkpt>
      <trkpt lat="45.72807" lon="6.26713">
        <ele>1313</ele>
        <time>2011-11-01T11:29:58Z</time>
      </trkpt>
      <trkpt lat="45.72779" lon="6.26742">
        <ele>1310</ele>
        <time>2011-11-01T11:30:04Z</time>
      </trkpt>
      <trkpt lat="45.72758" lon="6.26761">
        <ele>1299</ele>
        <time>2011-11-01T11:30:09Z</time>
      </trkpt>
      <trkpt lat="45.72755" lon="6.26765">
        <ele>1299</ele>
        <time>2011-11-01T11:30:10Z</time>
      </trkpt>
      <trkpt lat="45.72751" lon="6.26769">
        <ele>1298</ele>
        <time>2011-11-01T11:30:15Z</time>
      </trkpt>
      <trkpt lat="45.7275" lon="6.26771">
        <ele>1298</ele>
        <time>2011-11-01T11:30:19Z</time>
      </trkpt>
      <trkpt lat="45.7275" lon="6.2677">
        <ele>1301</ele>
        <time>2011-11-01T11:30:24Z</time>
      </trkpt>
      <trkpt lat="45.72749" lon="6.26773">
        <ele>1301</ele>
        <time>2011-11-01T11:30:30Z</time>
      </trkpt>
      <trkpt lat="45.72741" lon="6.26789">
        <ele>1298</ele>
        <time>2011-11-01T11:30:35Z</time>
      </trkpt>
      <trkpt lat="45.72741" lon="6.26794">
        <ele>1297</ele>
        <time>2011-11-01T11:30:36Z</time>
      </trkpt>
      <trkpt lat="45.72746" lon="6.2683">
        <ele>1288</ele>
        <time>2011-11-01T11:30:41Z</time>
      </trkpt>
      <trkpt lat="45.72736" lon="6.26867">
        <ele>1280</ele>
        <time>2011-11-01T11:30:46Z</time>
      </trkpt>
      <trkpt lat="45.72728" lon="6.26891">
        <ele>1277</ele>
        <time>2011-11-01T11:30:49Z</time>
      </trkpt>
      <trkpt lat="45.7271" lon="6.26924">
        <ele>1269</ele>
        <time>2011-11-01T11:30:54Z</time>
      </trkpt>
      <trkpt lat="45.72695" lon="6.26943">
        <ele>1269</ele>
        <time>2011-11-01T11:30:58Z</time>
      </trkpt>
      <trkpt lat="45.72688" lon="6.26954">
        <ele>1268</ele>
        <time>2011-11-01T11:31:00Z</time>
      </trkpt>
      <trkpt lat="45.72677" lon="6.26977">
        <ele>1267</ele>
        <time>2011-11-01T11:31:03Z</time>
      </trkpt>
      <trkpt lat="45.72672" lon="6.26993">
        <ele>1265</ele>
        <time>2011-11-01T11:31:05Z</time>
      </trkpt>
      <trkpt lat="45.72669" lon="6.27016">
        <ele>1265</ele>
        <time>2011-11-01T11:31:09Z</time>
      </trkpt>
      <trkpt lat="45.7267" lon="6.2702">
        <ele>1265</ele>
        <time>2011-11-01T11:31:10Z</time>
      </trkpt>
      <trkpt lat="45.72671" lon="6.27023">
        <ele>1265</ele>
        <time>2011-11-01T11:31:15Z</time>
      </trkpt>
      <trkpt lat="45.72672" lon="6.27019">
        <ele>1265</ele>
        <time>2011-11-01T11:31:19Z</time>
      </trkpt>
      <trkpt lat="45.72675" lon="6.27001">
        <ele>1265</ele>
        <time>2011-11-01T11:31:28Z</time>
      </trkpt>
      <trkpt lat="45.72678" lon="6.26992">
        <ele>1266</ele>
        <time>2011-11-01T11:31:34Z</time>
      </trkpt>
      <trkpt lat="45.72681" lon="6.26986">
        <ele>1266</ele>
        <time>2011-11-01T11:31:40Z</time>
      </trkpt>
      <trkpt lat="45.72683" lon="6.26985">
        <ele>1267</ele>
        <time>2011-11-01T11:31:42Z</time>
      </trkpt>
      <trkpt lat="45.72692" lon="6.26992">
        <ele>1267</ele>
        <time>2011-11-01T11:31:48Z</time>
      </trkpt>
      <trkpt lat="45.72702" lon="6.2699">
        <ele>1267</ele>
        <time>2011-11-01T11:31:52Z</time>
      </trkpt>
      <trkpt lat="45.72715" lon="6.2699">
        <ele>1267</ele>
        <time>2011-11-01T11:31:57Z</time>
      </trkpt>
      <trkpt lat="45.72728" lon="6.26994">
        <ele>1268</ele>
        <time>2011-11-01T11:32:03Z</time>
      </trkpt>
      <trkpt lat="45.72741" lon="6.26999">
        <ele>1267</ele>
        <time>2011-11-01T11:32:08Z</time>
      </trkpt>
      <trkpt lat="45.72751" lon="6.26999">
        <ele>1267</ele>
        <time>2011-11-01T11:32:11Z</time>
      </trkpt>
      <trkpt lat="45.7277" lon="6.26996">
        <ele>1266</ele>
        <time>2011-11-01T11:32:16Z</time>
      </trkpt>
      <trkpt lat="45.72792" lon="6.26989">
        <ele>1265</ele>
        <time>2011-11-01T11:32:22Z</time>
      </trkpt>
      <trkpt lat="45.72808" lon="6.26984">
        <ele>1264</ele>
        <time>2011-11-01T11:32:27Z</time>
      </trkpt>
      <trkpt lat="45.72821" lon="6.26982">
        <ele>1264</ele>
        <time>2011-11-01T11:32:32Z</time>
      </trkpt>
      <trkpt lat="45.72832" lon="6.26974">
        <ele>1264</ele>
        <time>2011-11-01T11:32:37Z</time>
      </trkpt>
      <trkpt lat="45.72843" lon="6.26969">
        <ele>1259</ele>
        <time>2011-11-01T11:32:42Z</time>
      </trkpt>
      <trkpt lat="45.72858" lon="6.26966">
        <ele>1258</ele>
        <time>2011-11-01T11:32:47Z</time>
      </trkpt>
      <trkpt lat="45.72873" lon="6.26964">
        <ele>1257</ele>
        <time>2011-11-01T11:32:51Z</time>
      </trkpt>
      <trkpt lat="45.72889" lon="6.26965">
        <ele>1256</ele>
        <time>2011-11-01T11:32:56Z</time>
      </trkpt>
      <trkpt lat="45.72893" lon="6.26964">
        <ele>1256</ele>
        <time>2011-11-01T11:32:58Z</time>
      </trkpt>
      <trkpt lat="45.72896" lon="6.26964">
        <ele>1256</ele>
        <time>2011-11-01T11:33:00Z</time>
      </trkpt>
      <trkpt lat="45.72917" lon="6.26971">
        <ele>1249</ele>
        <time>2011-11-01T11:33:05Z</time>
      </trkpt>
      <trkpt lat="45.72937" lon="6.26976">
        <ele>1248</ele>
        <time>2011-11-01T11:33:10Z</time>
      </trkpt>
      <trkpt lat="45.72955" lon="6.2698">
        <ele>1247</ele>
        <time>2011-11-01T11:33:14Z</time>
      </trkpt>
      <trkpt lat="45.72977" lon="6.26987">
        <ele>1246</ele>
        <time>2011-11-01T11:33:19Z</time>
      </trkpt>
      <trkpt lat="45.72983" lon="6.26989">
        <ele>1245</ele>
        <time>2011-11-01T11:33:20Z</time>
      </trkpt>
      <trkpt lat="45.72994" lon="6.26994">
        <ele>1243</ele>
        <time>2011-11-01T11:33:22Z</time>
      </trkpt>
      <trkpt lat="45.73022" lon="6.27">
        <ele>1240</ele>
        <time>2011-11-01T11:33:27Z</time>
      </trkpt>
      <trkpt lat="45.7303" lon="6.26999">
        <ele>1239</ele>
        <time>2011-11-01T11:33:30Z</time>
      </trkpt>
      <trkpt lat="45.73042" lon="6.26997">
        <ele>1238</ele>
        <time>2011-11-01T11:33:33Z</time>
      </trkpt>
      <trkpt lat="45.73057" lon="6.2699">
        <ele>1237</ele>
        <time>2011-11-01T11:33:39Z</time>
      </trkpt>
      <trkpt lat="45.73058" lon="6.26985">
        <ele>1237</ele>
        <time>2011-11-01T11:33:42Z</time>
      </trkpt>
      <trkpt lat="45.73064" lon="6.26982">
        <ele>1237</ele>
        <time>2011-11-01T11:33:46Z</time>
      </trkpt>
      <trkpt lat="45.73079" lon="6.2698">
        <ele>1236</ele>
        <time>2011-11-01T11:33:51Z</time>
      </trkpt>
      <trkpt lat="45.73101" lon="6.26979">
        <ele>1232</ele>
        <time>2011-11-01T11:33:57Z</time>
      </trkpt>
      <trkpt lat="45.73124" lon="6.26979">
        <ele>1231</ele>
        <time>2011-11-01T11:34:04Z</time>
      </trkpt>
      <trkpt lat="45.73141" lon="6.26984">
        <ele>1230</ele>
        <time>2011-11-01T11:34:09Z</time>
      </trkpt>
      <trkpt lat="45.73147" lon="6.26984">
        <ele>1229</ele>
        <time>2011-11-01T11:34:11Z</time>
      </trkpt>
      <trkpt lat="45.73166" lon="6.26998">
        <ele>1226</ele>
        <time>2011-11-01T11:34:18Z</time>
      </trkpt>
      <trkpt lat="45.73172" lon="6.27006">
        <ele>1226</ele>
        <time>2011-11-01T11:34:22Z</time>
      </trkpt>
      <trkpt lat="45.73175" lon="6.27008">
        <ele>1226</ele>
        <time>2011-11-01T11:34:24Z</time>
      </trkpt>
      <trkpt lat="45.73184" lon="6.27007">
        <ele>1226</ele>
        <time>2011-11-01T11:34:28Z</time>
      </trkpt>
      <trkpt lat="45.73198" lon="6.27002">
        <ele>1226</ele>
        <time>2011-11-01T11:34:35Z</time>
      </trkpt>
      <trkpt lat="45.73212" lon="6.26999">
        <ele>1224</ele>
        <time>2011-11-01T11:34:40Z</time>
      </trkpt>
      <trkpt lat="45.7322" lon="6.26995">
        <ele>1224</ele>
        <time>2011-11-01T11:34:44Z</time>
      </trkpt>
      <trkpt lat="45.73227" lon="6.26995">
        <ele>1224</ele>
        <time>2011-11-01T11:34:49Z</time>
      </trkpt>
      <trkpt lat="45.73235" lon="6.26988">
        <ele>1223</ele>
        <time>2011-11-01T11:34:55Z</time>
      </trkpt>
      <trkpt lat="45.73256" lon="6.26981">
        <ele>1221</ele>
        <time>2011-11-01T11:35:01Z</time>
      </trkpt>
      <trkpt lat="45.73269" lon="6.26976">
        <ele>1221</ele>
        <time>2011-11-01T11:35:05Z</time>
      </trkpt>
      <trkpt lat="45.73284" lon="6.26971">
        <ele>1221</ele>
        <time>2011-11-01T11:35:10Z</time>
      </trkpt>
      <trkpt lat="45.73297" lon="6.26961">
        <ele>1221</ele>
        <time>2011-11-01T11:35:15Z</time>
      </trkpt>
      <trkpt lat="45.7332" lon="6.26953">
        <ele>1221</ele>
        <time>2011-11-01T11:35:21Z</time>
      </trkpt>
      <trkpt lat="45.73341" lon="6.26946">
        <ele>1219</ele>
        <time>2011-11-01T11:35:27Z</time>
      </trkpt>
      <trkpt lat="45.73354" lon="6.26936">
        <ele>1219</ele>
        <time>2011-11-01T11:35:32Z</time>
      </trkpt>
      <trkpt lat="45.73367" lon="6.26938">
        <ele>1218</ele>
        <time>2011-11-01T11:35:38Z</time>
      </trkpt>
      <trkpt lat="45.73372" lon="6.26938">
        <ele>1218</ele>
        <time>2011-11-01T11:35:41Z</time>
      </trkpt>
      <trkpt lat="45.73375" lon="6.26931">
        <ele>1217</ele>
        <time>2011-11-01T11:35:46Z</time>
      </trkpt>
      <trkpt lat="45.73371" lon="6.26931">
        <ele>1218</ele>
        <time>2011-11-01T11:35:52Z</time>
      </trkpt>
      <trkpt lat="45.73363" lon="6.26928">
        <ele>1218</ele>
        <time>2011-11-01T11:35:57Z</time>
      </trkpt>
      <trkpt lat="45.73363" lon="6.26921">
        <ele>1219</ele>
        <time>2011-11-01T11:36:01Z</time>
      </trkpt>
      <trkpt lat="45.73367" lon="6.26916">
        <ele>1218</ele>
        <time>2011-11-01T11:36:05Z</time>
      </trkpt>
      <trkpt lat="45.73374" lon="6.26918">
        <ele>1218</ele>
        <time>2011-11-01T11:36:10Z</time>
      </trkpt>
      <trkpt lat="45.73382" lon="6.26917">
        <ele>1217</ele>
        <time>2011-11-01T11:36:15Z</time>
      </trkpt>
      <trkpt lat="45.73389" lon="6.26908">
        <ele>1216</ele>
        <time>2011-11-01T11:36:20Z</time>
      </trkpt>
      <trkpt lat="45.73394" lon="6.26896">
        <ele>1215</ele>
        <time>2011-11-01T11:36:26Z</time>
      </trkpt>
      <trkpt lat="45.73396" lon="6.26885">
        <ele>1215</ele>
        <time>2011-11-01T11:36:31Z</time>
      </trkpt>
      <trkpt lat="45.734" lon="6.26868">
        <ele>1214</ele>
        <time>2011-11-01T11:36:37Z</time>
      </trkpt>
      <trkpt lat="45.73404" lon="6.2685">
        <ele>1210</ele>
        <time>2011-11-01T11:36:43Z</time>
      </trkpt>
      <trkpt lat="45.73404" lon="6.26837">
        <ele>1208</ele>
        <time>2011-11-01T11:36:49Z</time>
      </trkpt>
      <trkpt lat="45.73404" lon="6.26836">
        <ele>1208</ele>
        <time>2011-11-01T11:36:50Z</time>
      </trkpt>
      <trkpt lat="45.734" lon="6.26829">
        <ele>1205</ele>
        <time>2011-11-01T11:36:56Z</time>
      </trkpt>
      <trkpt lat="45.73401" lon="6.26827">
        <ele>1205</ele>
        <time>2011-11-01T11:37:00Z</time>
      </trkpt>
      <trkpt lat="45.73399" lon="6.26819">
        <ele>1206</ele>
        <time>2011-11-01T11:37:13Z</time>
      </trkpt>
      <trkpt lat="45.73396" lon="6.26815">
        <ele>1206</ele>
        <time>2011-11-01T11:37:16Z</time>
      </trkpt>
      <trkpt lat="45.73394" lon="6.2681">
        <ele>1206</ele>
        <time>2011-11-01T11:37:23Z</time>
      </trkpt>
      <trkpt lat="45.73398" lon="6.26804">
        <ele>1206</ele>
        <time>2011-11-01T11:37:33Z</time>
      </trkpt>
      <trkpt lat="45.73397" lon="6.26795">
        <ele>1205</ele>
        <time>2011-11-01T11:37:38Z</time>
      </trkpt>
      <trkpt lat="45.73397" lon="6.26785">
        <ele>1203</ele>
        <time>2011-11-01T11:37:43Z</time>
      </trkpt>
      <trkpt lat="45.73396" lon="6.26776">
        <ele>1201</ele>
        <time>2011-11-01T11:37:47Z</time>
      </trkpt>
      <trkpt lat="45.73396" lon="6.26773">
        <ele>1201</ele>
        <time>2011-11-01T11:37:51Z</time>
      </trkpt>
      <trkpt lat="45.73397" lon="6.26777">
        <ele>1202</ele>
        <time>2011-11-01T11:37:53Z</time>
      </trkpt>
      <trkpt lat="45.73413" lon="6.26792">
        <ele>1202</ele>
        <time>2011-11-01T11:37:59Z</time>
      </trkpt>
      <trkpt lat="45.7343" lon="6.26801">
        <ele>1172</ele>
        <time>2011-11-01T11:38:04Z</time>
      </trkpt>
      <trkpt lat="45.73434" lon="6.26812">
        <ele>1175</ele>
        <time>2011-11-01T11:38:10Z</time>
      </trkpt>
      <trkpt lat="45.7344" lon="6.26817">
        <ele>1173</ele>
        <time>2011-11-01T11:38:14Z</time>
      </trkpt>
      <trkpt lat="45.73443" lon="6.26818">
        <ele>1172</ele>
        <time>2011-11-01T11:38:20Z</time>
      </trkpt>
      <trkpt lat="45.73442" lon="6.2682">
        <ele>1173</ele>
        <time>2011-11-01T11:38:22Z</time>
      </trkpt>
      <trkpt lat="45.73445" lon="6.2684">
        <ele>1181</ele>
        <time>2011-11-01T11:38:28Z</time>
      </trkpt>
      <trkpt lat="45.73455" lon="6.26863">
        <ele>1176</ele>
        <time>2011-11-01T11:38:33Z</time>
      </trkpt>
      <trkpt lat="45.73458" lon="6.26869">
        <ele>1175</ele>
        <time>2011-11-01T11:38:35Z</time>
      </trkpt>
      <trkpt lat="45.73465" lon="6.26883">
        <ele>1174</ele>
        <time>2011-11-01T11:38:41Z</time>
      </trkpt>
      <trkpt lat="45.73466" lon="6.26888">
        <ele>1173</ele>
        <time>2011-11-01T11:38:43Z</time>
      </trkpt>
      <trkpt lat="45.73468" lon="6.26899">
        <ele>1172</ele>
        <time>2011-11-01T11:38:49Z</time>
      </trkpt>
      <trkpt lat="45.7347" lon="6.2691">
        <ele>1171</ele>
        <time>2011-11-01T11:38:54Z</time>
      </trkpt>
      <trkpt lat="45.73477" lon="6.2692">
        <ele>1173</ele>
        <time>2011-11-01T11:38:58Z</time>
      </trkpt>
      <trkpt lat="45.7348" lon="6.26941">
        <ele>1176</ele>
        <time>2011-11-01T11:39:03Z</time>
      </trkpt>
      <trkpt lat="45.73481" lon="6.26954">
        <ele>1179</ele>
        <time>2011-11-01T11:39:07Z</time>
      </trkpt>
      <trkpt lat="45.73483" lon="6.26962">
        <ele>1180</ele>
        <time>2011-11-01T11:39:11Z</time>
      </trkpt>
      <trkpt lat="45.73486" lon="6.26964">
        <ele>1179</ele>
        <time>2011-11-01T11:39:13Z</time>
      </trkpt>
      <trkpt lat="45.73497" lon="6.26983">
        <ele>1176</ele>
        <time>2011-11-01T11:39:19Z</time>
      </trkpt>
      <trkpt lat="45.73502" lon="6.2699">
        <ele>1154</ele>
        <time>2011-11-01T11:39:23Z</time>
      </trkpt>
      <trkpt lat="45.73508" lon="6.26994">
        <ele>1154</ele>
        <time>2011-11-01T11:39:29Z</time>
      </trkpt>
      <trkpt lat="45.73512" lon="6.26997">
        <ele>1151</ele>
        <time>2011-11-01T11:39:34Z</time>
      </trkpt>
      <trkpt lat="45.73517" lon="6.27002">
        <ele>1153</ele>
        <time>2011-11-01T11:39:38Z</time>
      </trkpt>
      <trkpt lat="45.73519" lon="6.27005">
        <ele>1152</ele>
        <time>2011-11-01T11:39:41Z</time>
      </trkpt>
      <trkpt lat="45.73524" lon="6.27014">
        <ele>1148</ele>
        <time>2011-11-01T11:39:45Z</time>
      </trkpt>
      <trkpt lat="45.73523" lon="6.27031">
        <ele>1147</ele>
        <time>2011-11-01T11:39:52Z</time>
      </trkpt>
      <trkpt lat="45.73521" lon="6.27033">
        <ele>1148</ele>
        <time>2011-11-01T11:39:53Z</time>
      </trkpt>
      <trkpt lat="45.73528" lon="6.27033">
        <ele>1146</ele>
        <time>2011-11-01T11:39:59Z</time>
      </trkpt>
      <trkpt lat="45.73525" lon="6.27025">
        <ele>1146</ele>
        <time>2011-11-01T11:40:06Z</time>
      </trkpt>
      <trkpt lat="45.73539" lon="6.27009">
        <ele>1139</ele>
        <time>2011-11-01T11:40:12Z</time>
      </trkpt>
      <trkpt lat="45.73537" lon="6.26998">
        <ele>1128</ele>
        <time>2011-11-01T11:40:15Z</time>
      </trkpt>
      <trkpt lat="45.73524" lon="6.26979">
        <ele>1134</ele>
        <time>2011-11-01T11:40:20Z</time>
      </trkpt>
      <trkpt lat="45.73524" lon="6.26953">
        <ele>1129</ele>
        <time>2011-11-01T11:40:26Z</time>
      </trkpt>
      <trkpt lat="45.73529" lon="6.26947">
        <ele>1127</ele>
        <time>2011-11-01T11:40:28Z</time>
      </trkpt>
      <trkpt lat="45.73528" lon="6.26937">
        <ele>1128</ele>
        <time>2011-11-01T11:40:32Z</time>
      </trkpt>
      <trkpt lat="45.73529" lon="6.26916">
        <ele>1121</ele>
        <time>2011-11-01T11:40:39Z</time>
      </trkpt>
      <trkpt lat="45.73531" lon="6.26914">
        <ele>1120</ele>
        <time>2011-11-01T11:40:44Z</time>
      </trkpt>
      <trkpt lat="45.7353" lon="6.26914">
        <ele>1121</ele>
        <time>2011-11-01T11:40:45Z</time>
      </trkpt>
      <trkpt lat="45.73534" lon="6.2691">
        <ele>1118</ele>
        <time>2011-11-01T11:40:48Z</time>
      </trkpt>
      <trkpt lat="45.73511" lon="6.26884">
        <ele>1124</ele>
        <time>2011-11-01T11:40:53Z</time>
      </trkpt>
      <trkpt lat="45.73505" lon="6.26875">
        <ele>1124</ele>
        <time>2011-11-01T11:40:55Z</time>
      </trkpt>
      <trkpt lat="45.73501" lon="6.26863">
        <ele>1125</ele>
        <time>2011-11-01T11:40:59Z</time>
      </trkpt>
      <trkpt lat="45.735" lon="6.26861">
        <ele>1125</ele>
        <time>2011-11-01T11:41:00Z</time>
      </trkpt>
      <trkpt lat="45.73495" lon="6.26844">
        <ele>1153</ele>
        <time>2011-11-01T11:41:07Z</time>
      </trkpt>
      <trkpt lat="45.73492" lon="6.26831">
        <ele>1147</ele>
        <time>2011-11-01T11:41:11Z</time>
      </trkpt>
      <trkpt lat="45.73486" lon="6.26816">
        <ele>1153</ele>
        <time>2011-11-01T11:41:15Z</time>
      </trkpt>
      <trkpt lat="45.73478" lon="6.26799">
        <ele>1156</ele>
        <time>2011-11-01T11:41:19Z</time>
      </trkpt>
      <trkpt lat="45.73474" lon="6.26782">
        <ele>1155</ele>
        <time>2011-11-01T11:41:23Z</time>
      </trkpt>
      <trkpt lat="45.73472" lon="6.26769">
        <ele>1153</ele>
        <time>2011-11-01T11:41:26Z</time>
      </trkpt>
      <trkpt lat="45.73482" lon="6.2675">
        <ele>1137</ele>
        <time>2011-11-01T11:41:32Z</time>
      </trkpt>
      <trkpt lat="45.73483" lon="6.26745">
        <ele>1136</ele>
        <time>2011-11-01T11:41:34Z</time>
      </trkpt>
      <trkpt lat="45.73488" lon="6.26727">
        <ele>1137</ele>
        <time>2011-11-01T11:41:40Z</time>
      </trkpt>
      <trkpt lat="45.73493" lon="6.26702">
        <ele>1134</ele>
        <time>2011-11-01T11:41:46Z</time>
      </trkpt>
      <trkpt lat="45.73499" lon="6.26704">
        <ele>1133</ele>
        <time>2011-11-01T11:41:50Z</time>
      </trkpt>
      <trkpt lat="45.73512" lon="6.26712">
        <ele>1099</ele>
        <time>2011-11-01T11:41:56Z</time>
      </trkpt>
      <trkpt lat="45.73525" lon="6.26728">
        <ele>1098</ele>
        <time>2011-11-01T11:42:02Z</time>
      </trkpt>
      <trkpt lat="45.73528" lon="6.2674">
        <ele>1099</ele>
        <time>2011-11-01T11:42:06Z</time>
      </trkpt>
      <trkpt lat="45.73526" lon="6.26747">
        <ele>1101</ele>
        <time>2011-11-01T11:42:09Z</time>
      </trkpt>
      <trkpt lat="45.7353" lon="6.26754">
        <ele>1108</ele>
        <time>2011-11-01T11:42:11Z</time>
      </trkpt>
      <trkpt lat="45.73548" lon="6.26774">
        <ele>1100</ele>
        <time>2011-11-01T11:42:16Z</time>
      </trkpt>
      <trkpt lat="45.73553" lon="6.26782">
        <ele>1100</ele>
        <time>2011-11-01T11:42:19Z</time>
      </trkpt>
      <trkpt lat="45.7355" lon="6.26787">
        <ele>1101</ele>
        <time>2011-11-01T11:42:24Z</time>
      </trkpt>
      <trkpt lat="45.73551" lon="6.26789">
        <ele>1101</ele>
        <time>2011-11-01T11:42:27Z</time>
      </trkpt>
      <trkpt lat="45.73523" lon="6.26785">
        <ele>1110</ele>
        <time>2011-11-01T11:42:33Z</time>
      </trkpt>
      <trkpt lat="45.73533" lon="6.26788">
        <ele>1107</ele>
        <time>2011-11-01T11:42:35Z</time>
      </trkpt>
      <trkpt lat="45.7354" lon="6.26798">
        <ele>1105</ele>
        <time>2011-11-01T11:42:38Z</time>
      </trkpt>
      <trkpt lat="45.73552" lon="6.26811">
        <ele>1101</ele>
        <time>2011-11-01T11:42:41Z</time>
      </trkpt>
      <trkpt lat="45.73556" lon="6.2682">
        <ele>1100</ele>
        <time>2011-11-01T11:42:43Z</time>
      </trkpt>
      <trkpt lat="45.73562" lon="6.26846">
        <ele>1102</ele>
        <time>2011-11-01T11:42:49Z</time>
      </trkpt>
      <trkpt lat="45.73569" lon="6.2687">
        <ele>1104</ele>
        <time>2011-11-01T11:42:54Z</time>
      </trkpt>
      <trkpt lat="45.73577" lon="6.26886">
        <ele>1101</ele>
        <time>2011-11-01T11:42:58Z</time>
      </trkpt>
      <trkpt lat="45.73581" lon="6.26891">
        <ele>1099</ele>
        <time>2011-11-01T11:42:59Z</time>
      </trkpt>
      <trkpt lat="45.73613" lon="6.26917">
        <ele>1062</ele>
        <time>2011-11-01T11:43:04Z</time>
      </trkpt>
      <trkpt lat="45.73618" lon="6.26922">
        <ele>1060</ele>
        <time>2011-11-01T11:43:05Z</time>
      </trkpt>
      <trkpt lat="45.73629" lon="6.2693">
        <ele>1055</ele>
        <time>2011-11-01T11:43:08Z</time>
      </trkpt>
      <trkpt lat="45.73631" lon="6.26941">
        <ele>1055</ele>
        <time>2011-11-01T11:43:13Z</time>
      </trkpt>
      <trkpt lat="45.73631" lon="6.26959">
        <ele>1056</ele>
        <time>2011-11-01T11:43:17Z</time>
      </trkpt>
      <trkpt lat="45.73644" lon="6.2699">
        <ele>1049</ele>
        <time>2011-11-01T11:43:24Z</time>
      </trkpt>
      <trkpt lat="45.73645" lon="6.27009">
        <ele>1054</ele>
        <time>2011-11-01T11:43:28Z</time>
      </trkpt>
      <trkpt lat="45.73631" lon="6.27026">
        <ele>1064</ele>
        <time>2011-11-01T11:43:32Z</time>
      </trkpt>
      <trkpt lat="45.73629" lon="6.2703">
        <ele>1065</ele>
        <time>2011-11-01T11:43:33Z</time>
      </trkpt>
      <trkpt lat="45.7364" lon="6.27058">
        <ele>1062</ele>
        <time>2011-11-01T11:43:39Z</time>
      </trkpt>
      <trkpt lat="45.73645" lon="6.2707">
        <ele>1058</ele>
        <time>2011-11-01T11:43:41Z</time>
      </trkpt>
      <trkpt lat="45.73657" lon="6.271">
        <ele>1061</ele>
        <time>2011-11-01T11:43:46Z</time>
      </trkpt>
      <trkpt lat="45.73658" lon="6.27105">
        <ele>1063</ele>
        <time>2011-11-01T11:43:47Z</time>
      </trkpt>
      <trkpt lat="45.73666" lon="6.27125">
        <ele>1067</ele>
        <time>2011-11-01T11:43:51Z</time>
      </trkpt>
      <trkpt lat="45.73671" lon="6.27136">
        <ele>1024</ele>
        <time>2011-11-01T11:43:53Z</time>
      </trkpt>
      <trkpt lat="45.73689" lon="6.2716">
        <ele>1024</ele>
        <time>2011-11-01T11:44:00Z</time>
      </trkpt>
      <trkpt lat="45.73694" lon="6.27179">
        <ele>1028</ele>
        <time>2011-11-01T11:44:06Z</time>
      </trkpt>
      <trkpt lat="45.73693" lon="6.27181">
        <ele>1029</ele>
        <time>2011-11-01T11:44:10Z</time>
      </trkpt>
      <trkpt lat="45.73695" lon="6.27185">
        <ele>1028</ele>
        <time>2011-11-01T11:44:12Z</time>
      </trkpt>
      <trkpt lat="45.73708" lon="6.27198">
        <ele>1023</ele>
        <time>2011-11-01T11:44:16Z</time>
      </trkpt>
      <trkpt lat="45.7371" lon="6.27202">
        <ele>1022</ele>
        <time>2011-11-01T11:44:18Z</time>
      </trkpt>
      <trkpt lat="45.7372" lon="6.27207">
        <ele>1018</ele>
        <time>2011-11-01T11:44:22Z</time>
      </trkpt>
      <trkpt lat="45.7373" lon="6.2722">
        <ele>1016</ele>
        <time>2011-11-01T11:44:27Z</time>
      </trkpt>
      <trkpt lat="45.73745" lon="6.27233">
        <ele>1009</ele>
        <time>2011-11-01T11:44:33Z</time>
      </trkpt>
      <trkpt lat="45.73745" lon="6.27247">
        <ele>1002</ele>
        <time>2011-11-01T11:44:38Z</time>
      </trkpt>
      <trkpt lat="45.73752" lon="6.27253">
        <ele>993</ele>
        <time>2011-11-01T11:44:42Z</time>
      </trkpt>
      <trkpt lat="45.73755" lon="6.27269">
        <ele>985</ele>
        <time>2011-11-01T11:44:48Z</time>
      </trkpt>
      <trkpt lat="45.73765" lon="6.2729">
        <ele>981</ele>
        <time>2011-11-01T11:44:55Z</time>
      </trkpt>
      <trkpt lat="45.73773" lon="6.27301">
        <ele>980</ele>
        <time>2011-11-01T11:44:59Z</time>
      </trkpt>
      <trkpt lat="45.73785" lon="6.2733">
        <ele>978</ele>
        <time>2011-11-01T11:45:06Z</time>
      </trkpt>
      <trkpt lat="45.7379" lon="6.27353">
        <ele>983</ele>
        <time>2011-11-01T11:45:11Z</time>
      </trkpt>
      <trkpt lat="45.73795" lon="6.27365">
        <ele>981</ele>
        <time>2011-11-01T11:45:15Z</time>
      </trkpt>
      <trkpt lat="45.73795" lon="6.27384">
        <ele>982</ele>
        <time>2011-11-01T11:45:21Z</time>
      </trkpt>
      <trkpt lat="45.73801" lon="6.27393">
        <ele>979</ele>
        <time>2011-11-01T11:45:25Z</time>
      </trkpt>
      <trkpt lat="45.73808" lon="6.27402">
        <ele>975</ele>
        <time>2011-11-01T11:45:29Z</time>
      </trkpt>
      <trkpt lat="45.73808" lon="6.27397">
        <ele>975</ele>
        <time>2011-11-01T11:45:36Z</time>
      </trkpt>
      <trkpt lat="45.73802" lon="6.2739">
        <ele>979</ele>
        <time>2011-11-01T11:45:39Z</time>
      </trkpt>
      <trkpt lat="45.73801" lon="6.27383">
        <ele>979</ele>
        <time>2011-11-01T11:45:44Z</time>
      </trkpt>
      <trkpt lat="45.73801" lon="6.27385">
        <ele>979</ele>
        <time>2011-11-01T11:45:46Z</time>
      </trkpt>
      <trkpt lat="45.73804" lon="6.27396">
        <ele>978</ele>
        <time>2011-11-01T11:45:50Z</time>
      </trkpt>
      <trkpt lat="45.7381" lon="6.27402">
        <ele>974</ele>
        <time>2011-11-01T11:45:56Z</time>
      </trkpt>
      <trkpt lat="45.73816" lon="6.2741">
        <ele>968</ele>
        <time>2011-11-01T11:46:00Z</time>
      </trkpt>
      <trkpt lat="45.73817" lon="6.27426">
        <ele>975</ele>
        <time>2011-11-01T11:46:04Z</time>
      </trkpt>
      <trkpt lat="45.73825" lon="6.2745">
        <ele>982</ele>
        <time>2011-11-01T11:46:10Z</time>
      </trkpt>
      <trkpt lat="45.73827" lon="6.27456">
        <ele>983</ele>
        <time>2011-11-01T11:46:12Z</time>
      </trkpt>
      <trkpt lat="45.73829" lon="6.27466">
        <ele>984</ele>
        <time>2011-11-01T11:46:17Z</time>
      </trkpt>
      <trkpt lat="45.73833" lon="6.27468">
        <ele>984</ele>
        <time>2011-11-01T11:46:22Z</time>
      </trkpt>
      <trkpt lat="45.73835" lon="6.27469">
        <ele>942</ele>
        <time>2011-11-01T11:46:25Z</time>
      </trkpt>
      <trkpt lat="45.73837" lon="6.27463">
        <ele>939</ele>
        <time>2011-11-01T11:46:31Z</time>
      </trkpt>
      <trkpt lat="45.73834" lon="6.2746">
        <ele>939</ele>
        <time>2011-11-01T11:46:34Z</time>
      </trkpt>
      <trkpt lat="45.73833" lon="6.27442">
        <ele>977</ele>
        <time>2011-11-01T11:46:39Z</time>
      </trkpt>
      <trkpt lat="45.73831" lon="6.27413">
        <ele>955</ele>
        <time>2011-11-01T11:46:44Z</time>
      </trkpt>
      <trkpt lat="45.73824" lon="6.27393">
        <ele>969</ele>
        <time>2011-11-01T11:46:48Z</time>
      </trkpt>
      <trkpt lat="45.73832" lon="6.27371">
        <ele>969</ele>
        <time>2011-11-01T11:46:53Z</time>
      </trkpt>
      <trkpt lat="45.73835" lon="6.27361">
        <ele>929</ele>
        <time>2011-11-01T11:46:56Z</time>
      </trkpt>
      <trkpt lat="45.73838" lon="6.27352">
        <ele>931</ele>
        <time>2011-11-01T11:47:00Z</time>
      </trkpt>
      <trkpt lat="45.73834" lon="6.2734">
        <ele>938</ele>
        <time>2011-11-01T11:47:10Z</time>
      </trkpt>
      <trkpt lat="45.73836" lon="6.27339">
        <ele>937</ele>
        <time>2011-11-01T11:47:12Z</time>
      </trkpt>
      <trkpt lat="45.73839" lon="6.27339">
        <ele>936</ele>
        <time>2011-11-01T11:47:18Z</time>
      </trkpt>
      <trkpt lat="45.73842" lon="6.27336">
        <ele>935</ele>
        <time>2011-11-01T11:47:24Z</time>
      </trkpt>
      <trkpt lat="45.73841" lon="6.2733">
        <ele>935</ele>
        <time>2011-11-01T11:47:34Z</time>
      </trkpt>
      <trkpt lat="45.73837" lon="6.27328">
        <ele>936</ele>
        <time>2011-11-01T11:47:38Z</time>
      </trkpt>
      <trkpt lat="45.73835" lon="6.27327">
        <ele>936</ele>
        <time>2011-11-01T11:47:39Z</time>
      </trkpt>
      <trkpt lat="45.73828" lon="6.27322">
        <ele>954</ele>
        <time>2011-11-01T11:47:45Z</time>
      </trkpt>
      <trkpt lat="45.73831" lon="6.2732">
        <ele>954</ele>
        <time>2011-11-01T11:47:47Z</time>
      </trkpt>
      <trkpt lat="45.73832" lon="6.27306">
        <ele>958</ele>
        <time>2011-11-01T11:47:53Z</time>
      </trkpt>
      <trkpt lat="45.73833" lon="6.27286">
        <ele>957</ele>
        <time>2011-11-01T11:47:58Z</time>
      </trkpt>
      <trkpt lat="45.73835" lon="6.27274">
        <ele>922</ele>
        <time>2011-11-01T11:48:01Z</time>
      </trkpt>
      <trkpt lat="45.73832" lon="6.27264">
        <ele>947</ele>
        <time>2011-11-01T11:48:03Z</time>
      </trkpt>
      <trkpt lat="45.73828" lon="6.2724">
        <ele>941</ele>
        <time>2011-11-01T11:48:08Z</time>
      </trkpt>
      <trkpt lat="45.73826" lon="6.27221">
        <ele>948</ele>
        <time>2011-11-01T11:48:11Z</time>
      </trkpt>
      <trkpt lat="45.73838" lon="6.27199">
        <ele>914</ele>
        <time>2011-11-01T11:48:15Z</time>
      </trkpt>
      <trkpt lat="45.73844" lon="6.27184">
        <ele>915</ele>
        <time>2011-11-01T11:48:19Z</time>
      </trkpt>
      <trkpt lat="45.73848" lon="6.27162">
        <ele>912</ele>
        <time>2011-11-01T11:48:24Z</time>
      </trkpt>
      <trkpt lat="45.73847" lon="6.27156">
        <ele>912</ele>
        <time>2011-11-01T11:48:25Z</time>
      </trkpt>
      <trkpt lat="45.7384" lon="6.27128">
        <ele>906</ele>
        <time>2011-11-01T11:48:30Z</time>
      </trkpt>
      <trkpt lat="45.73835" lon="6.27114">
        <ele>906</ele>
        <time>2011-11-01T11:48:34Z</time>
      </trkpt>
      <trkpt lat="45.7383" lon="6.27097">
        <ele>929</ele>
        <time>2011-11-01T11:48:38Z</time>
      </trkpt>
      <trkpt lat="45.73826" lon="6.27077">
        <ele>923</ele>
        <time>2011-11-01T11:48:44Z</time>
      </trkpt>
      <trkpt lat="45.73822" lon="6.27061">
        <ele>930</ele>
        <time>2011-11-01T11:48:48Z</time>
      </trkpt>
      <trkpt lat="45.7382" lon="6.27023">
        <ele>927</ele>
        <time>2011-11-01T11:48:54Z</time>
      </trkpt>
      <trkpt lat="45.73822" lon="6.26982">
        <ele>920</ele>
        <time>2011-11-01T11:49:00Z</time>
      </trkpt>
      <trkpt lat="45.73822" lon="6.26971">
        <ele>922</ele>
        <time>2011-11-01T11:49:02Z</time>
      </trkpt>
      <trkpt lat="45.73825" lon="6.26948">
        <ele>921</ele>
        <time>2011-11-01T11:49:06Z</time>
      </trkpt>
      <trkpt lat="45.73824" lon="6.26918">
        <ele>910</ele>
        <time>2011-11-01T11:49:12Z</time>
      </trkpt>
      <trkpt lat="45.73824" lon="6.26897">
        <ele>915</ele>
        <time>2011-11-01T11:49:17Z</time>
      </trkpt>
      <trkpt lat="45.73826" lon="6.26877">
        <ele>917</ele>
        <time>2011-11-01T11:49:21Z</time>
      </trkpt>
      <trkpt lat="45.73827" lon="6.26852">
        <ele>910</ele>
        <time>2011-11-01T11:49:26Z</time>
      </trkpt>
      <trkpt lat="45.73829" lon="6.26823">
        <ele>902</ele>
        <time>2011-11-01T11:49:31Z</time>
      </trkpt>
      <trkpt lat="45.73833" lon="6.26811">
        <ele>907</ele>
        <time>2011-11-01T11:49:33Z</time>
      </trkpt>
      <trkpt lat="45.73837" lon="6.26787">
        <ele>872</ele>
        <time>2011-11-01T11:49:37Z</time>
      </trkpt>
      <trkpt lat="45.73834" lon="6.26766">
        <ele>877</ele>
        <time>2011-11-01T11:49:41Z</time>
      </trkpt>
      <trkpt lat="45.73837" lon="6.26742">
        <ele>880</ele>
        <time>2011-11-01T11:49:47Z</time>
      </trkpt>
      <trkpt lat="45.73838" lon="6.26713">
        <ele>871</ele>
        <time>2011-11-01T11:49:53Z</time>
      </trkpt>
      <trkpt lat="45.73844" lon="6.26692">
        <ele>871</ele>
        <time>2011-11-01T11:49:58Z</time>
      </trkpt>
      <trkpt lat="45.73857" lon="6.26677">
        <ele>869</ele>
        <time>2011-11-01T11:50:03Z</time>
      </trkpt>
      <trkpt lat="45.73866" lon="6.2666">
        <ele>864</ele>
        <time>2011-11-01T11:50:08Z</time>
      </trkpt>
      <trkpt lat="45.7387" lon="6.2664">
        <ele>860</ele>
        <time>2011-11-01T11:50:12Z</time>
      </trkpt>
      <trkpt lat="45.7387" lon="6.26616">
        <ele>859</ele>
        <time>2011-11-01T11:50:17Z</time>
      </trkpt>
      <trkpt lat="45.73876" lon="6.26596">
        <ele>857</ele>
        <time>2011-11-01T11:50:21Z</time>
      </trkpt>
      <trkpt lat="45.73885" lon="6.26576">
        <ele>850</ele>
        <time>2011-11-01T11:50:26Z</time>
      </trkpt>
      <trkpt lat="45.73893" lon="6.26553">
        <ele>849</ele>
        <time>2011-11-01T11:50:31Z</time>
      </trkpt>
      <trkpt lat="45.73901" lon="6.26558">
        <ele>846</ele>
        <time>2011-11-01T11:50:35Z</time>
      </trkpt>
      <trkpt lat="45.7391" lon="6.2658">
        <ele>835</ele>
        <time>2011-11-01T11:50:39Z</time>
      </trkpt>
      <trkpt lat="45.73915" lon="6.26601">
        <ele>843</ele>
        <time>2011-11-01T11:50:43Z</time>
      </trkpt>
      <trkpt lat="45.73929" lon="6.26625">
        <ele>821</ele>
        <time>2011-11-01T11:50:49Z</time>
      </trkpt>
      <trkpt lat="45.73941" lon="6.26641">
        <ele>820</ele>
        <time>2011-11-01T11:50:54Z</time>
      </trkpt>
      <trkpt lat="45.73953" lon="6.26656">
        <ele>818</ele>
        <time>2011-11-01T11:50:59Z</time>
      </trkpt>
      <trkpt lat="45.73961" lon="6.26662">
        <ele>815</ele>
        <time>2011-11-01T11:51:03Z</time>
      </trkpt>
      <trkpt lat="45.73975" lon="6.26682">
        <ele>811</ele>
        <time>2011-11-01T11:51:08Z</time>
      </trkpt>
      <trkpt lat="45.73982" lon="6.26689">
        <ele>810</ele>
        <time>2011-11-01T11:51:12Z</time>
      </trkpt>
      <trkpt lat="45.73988" lon="6.26701">
        <ele>810</ele>
        <time>2011-11-01T11:51:17Z</time>
      </trkpt>
      <trkpt lat="45.7399" lon="6.26721">
        <ele>808</ele>
        <time>2011-11-01T11:51:21Z</time>
      </trkpt>
      <trkpt lat="45.73986" lon="6.26755">
        <ele>804</ele>
        <time>2011-11-01T11:51:27Z</time>
      </trkpt>
      <trkpt lat="45.73985" lon="6.26773">
        <ele>808</ele>
        <time>2011-11-01T11:51:32Z</time>
      </trkpt>
      <trkpt lat="45.73992" lon="6.26757">
        <ele>802</ele>
        <time>2011-11-01T11:51:36Z</time>
      </trkpt>
      <trkpt lat="45.73994" lon="6.26749">
        <ele>800</ele>
        <time>2011-11-01T11:51:37Z</time>
      </trkpt>
      <trkpt lat="45.7401" lon="6.26716">
        <ele>791</ele>
        <time>2011-11-01T11:51:42Z</time>
      </trkpt>
      <trkpt lat="45.74019" lon="6.26684">
        <ele>791</ele>
        <time>2011-11-01T11:51:46Z</time>
      </trkpt>
      <trkpt lat="45.74024" lon="6.26668">
        <ele>791</ele>
        <time>2011-11-01T11:51:48Z</time>
      </trkpt>
      <trkpt lat="45.7404" lon="6.26652">
        <ele>789</ele>
        <time>2011-11-01T11:51:52Z</time>
      </trkpt>
      <trkpt lat="45.74062" lon="6.26641">
        <ele>786</ele>
        <time>2011-11-01T11:51:57Z</time>
      </trkpt>
      <trkpt lat="45.74077" lon="6.26636">
        <ele>785</ele>
        <time>2011-11-01T11:52:01Z</time>
      </trkpt>
      <trkpt lat="45.74085" lon="6.26628">
        <ele>775</ele>
        <time>2011-11-01T11:52:04Z</time>
      </trkpt>
      <trkpt lat="45.74098" lon="6.26614">
        <ele>774</ele>
        <time>2011-11-01T11:52:07Z</time>
      </trkpt>
      <trkpt lat="45.74113" lon="6.26595">
        <ele>774</ele>
        <time>2011-11-01T11:52:10Z</time>
      </trkpt>
      <trkpt lat="45.74135" lon="6.26586">
        <ele>771</ele>
        <time>2011-11-01T11:52:14Z</time>
      </trkpt>
      <trkpt lat="45.74142" lon="6.26582">
        <ele>770</ele>
        <time>2011-11-01T11:52:16Z</time>
      </trkpt>
      <trkpt lat="45.74152" lon="6.2658">
        <ele>768</ele>
        <time>2011-11-01T11:52:19Z</time>
      </trkpt>
      <trkpt lat="45.7416" lon="6.26587">
        <ele>768</ele>
        <time>2011-11-01T11:52:23Z</time>
      </trkpt>
      <trkpt lat="45.74162" lon="6.26588">
        <ele>768</ele>
        <time>2011-11-01T11:52:24Z</time>
      </trkpt>
      <trkpt lat="45.74168" lon="6.26592">
        <ele>765</ele>
        <time>2011-11-01T11:52:29Z</time>
      </trkpt>
      <trkpt lat="45.74167" lon="6.26589">
        <ele>766</ele>
        <time>2011-11-01T11:52:31Z</time>
      </trkpt>
      <trkpt lat="45.7417" lon="6.26579">
        <ele>766</ele>
        <time>2011-11-01T11:52:36Z</time>
      </trkpt>
      <trkpt lat="45.74177" lon="6.26577">
        <ele>765</ele>
        <time>2011-11-01T11:52:40Z</time>
      </trkpt>
      <trkpt lat="45.74184" lon="6.26574">
        <ele>765</ele>
        <time>2011-11-01T11:52:45Z</time>
      </trkpt>
      <trkpt lat="45.74196" lon="6.26554">
        <ele>764</ele>
        <time>2011-11-01T11:53:17Z</time>
      </trkpt>
      <trkpt lat="45.74192" lon="6.26561">
        <ele>764</ele>
        <time>2011-11-01T11:53:42Z</time>
      </trkpt>
      <trkpt lat="45.74207" lon="6.26556">
        <ele>764</ele>
        <time>2011-11-01T11:53:47Z</time>
      </trkpt>
      <trkpt lat="45.74227" lon="6.26555">
        <ele>764</ele>
        <time>2011-11-01T11:53:52Z</time>
      </trkpt>
      <trkpt lat="45.7425" lon="6.26559">
        <ele>764</ele>
        <time>2011-11-01T11:53:56Z</time>
      </trkpt>
      <trkpt lat="45.74273" lon="6.26564">
        <ele>760</ele>
        <time>2011-11-01T11:54:01Z</time>
      </trkpt>
      <trkpt lat="45.74277" lon="6.26564">
        <ele>759</ele>
        <time>2011-11-01T11:54:02Z</time>
      </trkpt>
      <trkpt lat="45.74296" lon="6.26567">
        <ele>758</ele>
        <time>2011-11-01T11:54:06Z</time>
      </trkpt>
      <trkpt lat="45.74306" lon="6.2657">
        <ele>757</ele>
        <time>2011-11-01T11:54:08Z</time>
      </trkpt>
      <trkpt lat="45.74319" lon="6.2658">
        <ele>755</ele>
        <time>2011-11-01T11:54:11Z</time>
      </trkpt>
      <trkpt lat="45.74341" lon="6.2659">
        <ele>748</ele>
        <time>2011-11-01T11:54:16Z</time>
      </trkpt>
      <trkpt lat="45.74371" lon="6.26611">
        <ele>742</ele>
        <time>2011-11-01T11:54:23Z</time>
      </trkpt>
      <trkpt lat="45.74391" lon="6.26626">
        <ele>739</ele>
        <time>2011-11-01T11:54:29Z</time>
      </trkpt>
      <trkpt lat="45.74403" lon="6.26632">
        <ele>738</ele>
        <time>2011-11-01T11:54:32Z</time>
      </trkpt>
      <trkpt lat="45.74426" lon="6.26636">
        <ele>726</ele>
        <time>2011-11-01T11:54:38Z</time>
      </trkpt>
      <trkpt lat="45.74442" lon="6.26642">
        <ele>725</ele>
        <time>2011-11-01T11:54:42Z</time>
      </trkpt>
      <trkpt lat="45.74451" lon="6.2664">
        <ele>724</ele>
        <time>2011-11-01T11:54:45Z</time>
      </trkpt>
      <trkpt lat="45.74462" lon="6.2664">
        <ele>722</ele>
        <time>2011-11-01T11:54:48Z</time>
      </trkpt>
      <trkpt lat="45.74483" lon="6.26648">
        <ele>719</ele>
        <time>2011-11-01T11:54:54Z</time>
      </trkpt>
      <trkpt lat="45.74498" lon="6.26654">
        <ele>715</ele>
        <time>2011-11-01T11:54:57Z</time>
      </trkpt>
      <trkpt lat="45.7452" lon="6.26656">
        <ele>707</ele>
        <time>2011-11-01T11:55:02Z</time>
      </trkpt>
      <trkpt lat="45.74545" lon="6.26646">
        <ele>704</ele>
        <time>2011-11-01T11:55:07Z</time>
      </trkpt>
      <trkpt lat="45.74553" lon="6.26645">
        <ele>703</ele>
        <time>2011-11-01T11:55:09Z</time>
      </trkpt>
      <trkpt lat="45.74567" lon="6.26642">
        <ele>701</ele>
        <time>2011-11-01T11:55:13Z</time>
      </trkpt>
      <trkpt lat="45.74585" lon="6.26639">
        <ele>692</ele>
        <time>2011-11-01T11:55:18Z</time>
      </trkpt>
      <trkpt lat="45.74603" lon="6.26641">
        <ele>691</ele>
        <time>2011-11-01T11:55:22Z</time>
      </trkpt>
      <trkpt lat="45.74628" lon="6.26652">
        <ele>689</ele>
        <time>2011-11-01T11:55:27Z</time>
      </trkpt>
      <trkpt lat="45.74637" lon="6.26653">
        <ele>688</ele>
        <time>2011-11-01T11:55:29Z</time>
      </trkpt>
      <trkpt lat="45.74648" lon="6.26651">
        <ele>686</ele>
        <time>2011-11-01T11:55:31Z</time>
      </trkpt>
      <trkpt lat="45.74662" lon="6.26643">
        <ele>686</ele>
        <time>2011-11-01T11:55:34Z</time>
      </trkpt>
      <trkpt lat="45.74685" lon="6.26638">
        <ele>677</ele>
        <time>2011-11-01T11:55:39Z</time>
      </trkpt>
      <trkpt lat="45.74702" lon="6.26636">
        <ele>676</ele>
        <time>2011-11-01T11:55:42Z</time>
      </trkpt>
      <trkpt lat="45.74721" lon="6.26638">
        <ele>674</ele>
        <time>2011-11-01T11:55:46Z</time>
      </trkpt>
      <trkpt lat="45.74727" lon="6.26638">
        <ele>673</ele>
        <time>2011-11-01T11:55:48Z</time>
      </trkpt>
      <trkpt lat="45.74734" lon="6.26645">
        <ele>672</ele>
        <time>2011-11-01T11:55:53Z</time>
      </trkpt>
      <trkpt lat="45.74744" lon="6.2665">
        <ele>671</ele>
        <time>2011-11-01T11:55:57Z</time>
      </trkpt>
      <trkpt lat="45.7476" lon="6.2665">
        <ele>662</ele>
        <time>2011-11-01T11:56:02Z</time>
      </trkpt>
      <trkpt lat="45.74773" lon="6.26657">
        <ele>660</ele>
        <time>2011-11-01T11:56:06Z</time>
      </trkpt>
      <trkpt lat="45.74775" lon="6.26656">
        <ele>660</ele>
        <time>2011-11-01T11:56:07Z</time>
      </trkpt>
      <trkpt lat="45.7479" lon="6.26656">
        <ele>657</ele>
        <time>2011-11-01T11:56:12Z</time>
      </trkpt>
      <trkpt lat="45.74805" lon="6.26654">
        <ele>654</ele>
        <time>2011-11-01T11:56:16Z</time>
      </trkpt>
      <trkpt lat="45.7482" lon="6.26648">
        <ele>652</ele>
        <time>2011-11-01T11:56:20Z</time>
      </trkpt>
      <trkpt lat="45.74826" lon="6.26647">
        <ele>651</ele>
        <time>2011-11-01T11:56:21Z</time>
      </trkpt>
      <trkpt lat="45.74846" lon="6.26646">
        <ele>640</ele>
        <time>2011-11-01T11:56:25Z</time>
      </trkpt>
      <trkpt lat="45.74867" lon="6.26644">
        <ele>638</ele>
        <time>2011-11-01T11:56:30Z</time>
      </trkpt>
      <trkpt lat="45.7488" lon="6.26645">
        <ele>636</ele>
        <time>2011-11-01T11:56:36Z</time>
      </trkpt>
      <trkpt lat="45.74892" lon="6.2665">
        <ele>633</ele>
        <time>2011-11-01T11:56:40Z</time>
      </trkpt>
      <trkpt lat="45.749" lon="6.26672">
        <ele>622</ele>
        <time>2011-11-01T11:56:46Z</time>
      </trkpt>
      <trkpt lat="45.74902" lon="6.26694">
        <ele>621</ele>
        <time>2011-11-01T11:56:51Z</time>
      </trkpt>
      <trkpt lat="45.749" lon="6.26717">
        <ele>618</ele>
        <time>2011-11-01T11:56:56Z</time>
      </trkpt>
      <trkpt lat="45.749" lon="6.26748">
        <ele>612</ele>
        <time>2011-11-01T11:57:01Z</time>
      </trkpt>
      <trkpt lat="45.74903" lon="6.26765">
        <ele>604</ele>
        <time>2011-11-01T11:57:04Z</time>
      </trkpt>
      <trkpt lat="45.74906" lon="6.2678">
        <ele>603</ele>
        <time>2011-11-01T11:57:08Z</time>
      </trkpt>
      <trkpt lat="45.74913" lon="6.26788">
        <ele>602</ele>
        <time>2011-11-01T11:57:12Z</time>
      </trkpt>
      <trkpt lat="45.74929" lon="6.26803">
        <ele>589</ele>
        <time>2011-11-01T11:57:18Z</time>
      </trkpt>
      <trkpt lat="45.74929" lon="6.26807">
        <ele>589</ele>
        <time>2011-11-01T11:57:19Z</time>
      </trkpt>
      <trkpt lat="45.74922" lon="6.26828">
        <ele>589</ele>
        <time>2011-11-01T11:57:24Z</time>
      </trkpt>
      <trkpt lat="45.7491" lon="6.26859">
        <ele>584</ele>
        <time>2011-11-01T11:57:30Z</time>
      </trkpt>
      <trkpt lat="45.74895" lon="6.2688">
        <ele>580</ele>
        <time>2011-11-01T11:57:34Z</time>
      </trkpt>
      <trkpt lat="45.74869" lon="6.26898">
        <ele>580</ele>
        <time>2011-11-01T11:57:39Z</time>
      </trkpt>
      <trkpt lat="45.74865" lon="6.26902">
        <ele>580</ele>
        <time>2011-11-01T11:57:40Z</time>
      </trkpt>
      <trkpt lat="45.74841" lon="6.26927">
        <ele>567</ele>
        <time>2011-11-01T11:57:44Z</time>
      </trkpt>
      <trkpt lat="45.74814" lon="6.26968">
        <ele>565</ele>
        <time>2011-11-01T11:57:50Z</time>
      </trkpt>
      <trkpt lat="45.74797" lon="6.26993">
        <ele>564</ele>
        <time>2011-11-01T11:57:55Z</time>
      </trkpt>
      <trkpt lat="45.74792" lon="6.27002">
        <ele>547</ele>
        <time>2011-11-01T11:57:57Z</time>
      </trkpt>
      <trkpt lat="45.74786" lon="6.27016">
        <ele>547</ele>
        <time>2011-11-01T11:58:00Z</time>
      </trkpt>
      <trkpt lat="45.74776" lon="6.27035">
        <ele>545</ele>
        <time>2011-11-01T11:58:05Z</time>
      </trkpt>
      <trkpt lat="45.74757" lon="6.27053">
        <ele>543</ele>
        <time>2011-11-01T11:58:11Z</time>
      </trkpt>
      <trkpt lat="45.74746" lon="6.27068">
        <ele>548</ele>
        <time>2011-11-01T11:58:15Z</time>
      </trkpt>
      <trkpt lat="45.74743" lon="6.27084">
        <ele>537</ele>
        <time>2011-11-01T11:58:19Z</time>
      </trkpt>
      <trkpt lat="45.74743" lon="6.27085">
        <ele>537</ele>
        <time>2011-11-01T11:58:20Z</time>
      </trkpt>
      <trkpt lat="45.74744" lon="6.27088">
        <ele>537</ele>
        <time>2011-11-01T11:58:22Z</time>
      </trkpt>
      <trkpt lat="45.74748" lon="6.27088">
        <ele>537</ele>
        <time>2011-11-01T11:58:28Z</time>
      </trkpt>
      <trkpt lat="45.74754" lon="6.27087">
        <ele>534</ele>
        <time>2011-11-01T11:58:33Z</time>
      </trkpt>
      <trkpt lat="45.74767" lon="6.27073">
        <ele>540</ele>
        <time>2011-11-01T11:58:40Z</time>
      </trkpt>
      <trkpt lat="45.74781" lon="6.27064">
        <ele>540</ele>
        <time>2011-11-01T11:58:46Z</time>
      </trkpt>
      <trkpt lat="45.74792" lon="6.27054">
        <ele>540</ele>
        <time>2011-11-01T11:58:51Z</time>
      </trkpt>
      <trkpt lat="45.74806" lon="6.27045">
        <ele>540</ele>
        <time>2011-11-01T11:58:57Z</time>
      </trkpt>
      <trkpt lat="45.7482" lon="6.27036">
        <ele>540</ele>
        <time>2011-11-01T11:59:03Z</time>
      </trkpt>
      <trkpt lat="45.74826" lon="6.27033">
        <ele>541</ele>
        <time>2011-11-01T11:59:08Z</time>
      </trkpt>
      <trkpt lat="45.74828" lon="6.27032">
        <ele>541</ele>
        <time>2011-11-01T11:59:17Z</time>
      </trkpt>
      <trkpt lat="45.74825" lon="6.27035">
        <ele>541</ele>
        <time>2011-11-01T12:00:28Z</time>
      </trkpt>
      <trkpt lat="45.74812" lon="6.27042">
        <ele>540</ele>
        <time>2011-11-01T12:00:34Z</time>
      </trkpt>
      <trkpt lat="45.74795" lon="6.27053">
        <ele>540</ele>
        <time>2011-11-01T12:00:39Z</time>
      </trkpt>
      <trkpt lat="45.74773" lon="6.27069">
        <ele>540</ele>
        <time>2011-11-01T12:00:45Z</time>
      </trkpt>
      <trkpt lat="45.74762" lon="6.27081">
        <ele>539</ele>
        <time>2011-11-01T12:00:48Z</time>
      </trkpt>
      <trkpt lat="45.74748" lon="6.2709">
        <ele>537</ele>
        <time>2011-11-01T12:00:52Z</time>
      </trkpt>
      <trkpt lat="45.74741" lon="6.27101">
        <ele>536</ele>
        <time>2011-11-01T12:00:55Z</time>
      </trkpt>
      <trkpt lat="45.7474" lon="6.27108">
        <ele>535</ele>
        <time>2011-11-01T12:00:56Z</time>
      </trkpt>
      <trkpt lat="45.7473" lon="6.27151">
        <ele>527</ele>
        <time>2011-11-01T12:01:03Z</time>
      </trkpt>
      <trkpt lat="45.74725" lon="6.27173">
        <ele>515</ele>
        <time>2011-11-01T12:01:07Z</time>
      </trkpt>
      <trkpt lat="45.74724" lon="6.27199">
        <ele>515</ele>
        <time>2011-11-01T12:01:12Z</time>
      </trkpt>
      <trkpt lat="45.74732" lon="6.27198">
        <ele>514</ele>
        <time>2011-11-01T12:01:16Z</time>
      </trkpt>
      <trkpt lat="45.74749" lon="6.27185">
        <ele>513</ele>
        <time>2011-11-01T12:01:20Z</time>
      </trkpt>
      <trkpt lat="45.74778" lon="6.2718">
        <ele>503</ele>
        <time>2011-11-01T12:01:25Z</time>
      </trkpt>
      <trkpt lat="45.7479" lon="6.27181">
        <ele>501</ele>
        <time>2011-11-01T12:01:27Z</time>
      </trkpt>
      <trkpt lat="45.74812" lon="6.27197">
        <ele>499</ele>
        <time>2011-11-01T12:01:31Z</time>
      </trkpt>
      <trkpt lat="45.74822" lon="6.27208">
        <ele>498</ele>
        <time>2011-11-01T12:01:33Z</time>
      </trkpt>
      <trkpt lat="45.74849" lon="6.27231">
        <ele>493</ele>
        <time>2011-11-01T12:01:38Z</time>
      </trkpt>
      <trkpt lat="45.74883" lon="6.27258">
        <ele>492</ele>
        <time>2011-11-01T12:01:44Z</time>
      </trkpt>
      <trkpt lat="45.74923" lon="6.2727">
        <ele>491</ele>
        <time>2011-11-01T12:01:51Z</time>
      </trkpt>
      <trkpt lat="45.74935" lon="6.27274">
        <ele>491</ele>
        <time>2011-11-01T12:01:53Z</time>
      </trkpt>
      <trkpt lat="45.7496" lon="6.27278">
        <ele>491</ele>
        <time>2011-11-01T12:01:58Z</time>
      </trkpt>
      <trkpt lat="45.75013" lon="6.27285">
        <ele>491</ele>
        <time>2011-11-01T12:02:06Z</time>
      </trkpt>
      <trkpt lat="45.75059" lon="6.27299">
        <ele>491</ele>
        <time>2011-11-01T12:02:14Z</time>
      </trkpt>
      <trkpt lat="45.7508" lon="6.27296">
        <ele>491</ele>
        <time>2011-11-01T12:02:18Z</time>
      </trkpt>
      <trkpt lat="45.75096" lon="6.27289">
        <ele>491</ele>
        <time>2011-11-01T12:02:21Z</time>
      </trkpt>
      <trkpt lat="45.7513" lon="6.27288">
        <ele>491</ele>
        <time>2011-11-01T12:02:27Z</time>
      </trkpt>
      <trkpt lat="45.75174" lon="6.27279">
        <ele>492</ele>
        <time>2011-11-01T12:02:35Z</time>
      </trkpt>
      <trkpt lat="45.7518" lon="6.27278">
        <ele>492</ele>
        <time>2011-11-01T12:02:36Z</time>
      </trkpt>
      <trkpt lat="45.75213" lon="6.27281">
        <ele>493</ele>
        <time>2011-11-01T12:02:42Z</time>
      </trkpt>
      <trkpt lat="45.75246" lon="6.27278">
        <ele>493</ele>
        <time>2011-11-01T12:02:48Z</time>
      </trkpt>
      <trkpt lat="45.75288" lon="6.27262">
        <ele>493</ele>
        <time>2011-11-01T12:02:56Z</time>
      </trkpt>
      <trkpt lat="45.75304" lon="6.27259">
        <ele>493</ele>
        <time>2011-11-01T12:02:59Z</time>
      </trkpt>
      <trkpt lat="45.75341" lon="6.27271">
        <ele>492</ele>
        <time>2011-11-01T12:03:06Z</time>
      </trkpt>
      <trkpt lat="45.75371" lon="6.27289">
        <ele>493</ele>
        <time>2011-11-01T12:03:12Z</time>
      </trkpt>
      <trkpt lat="45.75404" lon="6.27295">
        <ele>493</ele>
        <time>2011-11-01T12:03:18Z</time>
      </trkpt>
      <trkpt lat="45.75447" lon="6.27302">
        <ele>493</ele>
        <time>2011-11-01T12:03:26Z</time>
      </trkpt>
      <trkpt lat="45.75483" lon="6.27302">
        <ele>492</ele>
        <time>2011-11-01T12:03:33Z</time>
      </trkpt>
      <trkpt lat="45.75523" lon="6.27301">
        <ele>492</ele>
        <time>2011-11-01T12:03:42Z</time>
      </trkpt>
      <trkpt lat="45.7553" lon="6.27301">
        <ele>492</ele>
        <time>2011-11-01T12:03:46Z</time>
      </trkpt>
      <trkpt lat="45.75538" lon="6.27299">
        <ele>492</ele>
        <time>2011-11-01T12:03:50Z</time>
      </trkpt>
      <trkpt lat="45.75546" lon="6.27284">
        <ele>492</ele>
        <time>2011-11-01T12:03:53Z</time>
      </trkpt>
      <trkpt lat="45.75574" lon="6.27216">
        <ele>491</ele>
        <time>2011-11-01T12:04:03Z</time>
      </trkpt>
      <trkpt lat="45.75576" lon="6.27209">
        <ele>491</ele>
        <time>2011-11-01T12:04:04Z</time>
      </trkpt>
      <trkpt lat="45.75581" lon="6.27187">
        <ele>491</ele>
        <time>2011-11-01T12:04:07Z</time>
      </trkpt>
      <trkpt lat="45.75592" lon="6.2716">
        <ele>490</ele>
        <time>2011-11-01T12:04:11Z</time>
      </trkpt>
      <trkpt lat="45.75612" lon="6.27132">
        <ele>490</ele>
        <time>2011-11-01T12:04:17Z</time>
      </trkpt>
      <trkpt lat="45.75619" lon="6.27117">
        <ele>490</ele>
        <time>2011-11-01T12:04:21Z</time>
      </trkpt>
      <trkpt lat="45.75621" lon="6.27086">
        <ele>489</ele>
        <time>2011-11-01T12:04:27Z</time>
      </trkpt>
      <trkpt lat="45.75613" lon="6.27047">
        <ele>488</ele>
        <time>2011-11-01T12:04:34Z</time>
      </trkpt>
      <trkpt lat="45.75612" lon="6.27042">
        <ele>488</ele>
        <time>2011-11-01T12:04:35Z</time>
      </trkpt>
      <trkpt lat="45.75617" lon="6.27028">
        <ele>488</ele>
        <time>2011-11-01T12:04:39Z</time>
      </trkpt>
      <trkpt lat="45.75621" lon="6.2703">
        <ele>488</ele>
        <time>2011-11-01T12:04:40Z</time>
      </trkpt>
      <trkpt lat="45.75634" lon="6.27037">
        <ele>488</ele>
        <time>2011-11-01T12:04:43Z</time>
      </trkpt>
      <trkpt lat="45.7565" lon="6.27031">
        <ele>488</ele>
        <time>2011-11-01T12:04:47Z</time>
      </trkpt>
      <trkpt lat="45.75655" lon="6.2702">
        <ele>488</ele>
        <time>2011-11-01T12:04:49Z</time>
      </trkpt>
      <trkpt lat="45.75678" lon="6.26961">
        <ele>490</ele>
        <time>2011-11-01T12:04:58Z</time>
      </trkpt>
      <trkpt lat="45.75683" lon="6.26947">
        <ele>490</ele>
        <time>2011-11-01T12:05:00Z</time>
      </trkpt>
      <trkpt lat="45.75698" lon="6.26921">
        <ele>490</ele>
        <time>2011-11-01T12:05:05Z</time>
      </trkpt>
      <trkpt lat="45.75702" lon="6.26918">
        <ele>490</ele>
        <time>2011-11-01T12:05:06Z</time>
      </trkpt>
      <trkpt lat="45.7571" lon="6.26914">
        <ele>490</ele>
        <time>2011-11-01T12:05:08Z</time>
      </trkpt>
      <trkpt lat="45.75716" lon="6.26897">
        <ele>490</ele>
        <time>2011-11-01T12:05:12Z</time>
      </trkpt>
      <trkpt lat="45.75717" lon="6.2689">
        <ele>490</ele>
        <time>2011-11-01T12:05:13Z</time>
      </trkpt>
      <trkpt lat="45.75726" lon="6.26848">
        <ele>489</ele>
        <time>2011-11-01T12:05:21Z</time>
      </trkpt>
      <trkpt lat="45.75735" lon="6.26819">
        <ele>488</ele>
        <time>2011-11-01T12:05:30Z</time>
      </trkpt>
      <trkpt lat="45.75738" lon="6.2681">
        <ele>488</ele>
        <time>2011-11-01T12:05:33Z</time>
      </trkpt>
      <trkpt lat="45.75737" lon="6.26809">
        <ele>488</ele>
        <time>2011-11-01T12:05:49Z</time>
      </trkpt>
      <trkpt lat="45.75736" lon="6.26808">
        <ele>488</ele>
        <time>2011-11-01T12:06:11Z</time>
      </trkpt>
      <trkpt lat="45.75734" lon="6.268">
        <ele>487</ele>
        <time>2011-11-01T12:06:31Z</time>
      </trkpt>
      <trkpt lat="45.7574" lon="6.26791">
        <ele>487</ele>
        <time>2011-11-01T12:06:36Z</time>
      </trkpt>
      <trkpt lat="45.75753" lon="6.26777">
        <ele>489</ele>
        <time>2011-11-01T12:06:41Z</time>
      </trkpt>
      <trkpt lat="45.75767" lon="6.26755">
        <ele>488</ele>
        <time>2011-11-01T12:06:45Z</time>
      </trkpt>
      <trkpt lat="45.75793" lon="6.26691">
        <ele>488</ele>
        <time>2011-11-01T12:06:54Z</time>
      </trkpt>
      <trkpt lat="45.75814" lon="6.26643">
        <ele>487</ele>
        <time>2011-11-01T12:07:01Z</time>
      </trkpt>
      <trkpt lat="45.75851" lon="6.2656">
        <ele>486</ele>
        <time>2011-11-01T12:07:13Z</time>
      </trkpt>
      <trkpt lat="45.75889" lon="6.26471">
        <ele>484</ele>
        <time>2011-11-01T12:07:26Z</time>
      </trkpt>
      <trkpt lat="45.7592" lon="6.26397">
        <ele>483</ele>
        <time>2011-11-01T12:07:37Z</time>
      </trkpt>
      <trkpt lat="45.75952" lon="6.26324">
        <ele>481</ele>
        <time>2011-11-01T12:07:48Z</time>
      </trkpt>
      <trkpt lat="45.75971" lon="6.26278">
        <ele>481</ele>
        <time>2011-11-01T12:07:55Z</time>
      </trkpt>
      <trkpt lat="45.76003" lon="6.26207">
        <ele>481</ele>
        <time>2011-11-01T12:08:06Z</time>
      </trkpt>
      <trkpt lat="45.76034" lon="6.26134">
        <ele>480</ele>
        <time>2011-11-01T12:08:17Z</time>
      </trkpt>
      <trkpt lat="45.76067" lon="6.26055">
        <ele>480</ele>
        <time>2011-11-01T12:08:29Z</time>
      </trkpt>
      <trkpt lat="45.761" lon="6.25976">
        <ele>478</ele>
        <time>2011-11-01T12:08:41Z</time>
      </trkpt>
      <trkpt lat="45.76136" lon="6.25891">
        <ele>479</ele>
        <time>2011-11-01T12:08:54Z</time>
      </trkpt>
      <trkpt lat="45.76163" lon="6.25828">
        <ele>481</ele>
        <time>2011-11-01T12:09:04Z</time>
      </trkpt>
      <trkpt lat="45.76194" lon="6.25756">
        <ele>481</ele>
        <time>2011-11-01T12:09:16Z</time>
      </trkpt>
      <trkpt lat="45.76209" lon="6.2572">
        <ele>480</ele>
        <time>2011-11-01T12:09:22Z</time>
      </trkpt>
      <trkpt lat="45.76233" lon="6.2568">
        <ele>480</ele>
        <time>2011-11-01T12:09:30Z</time>
      </trkpt>
      <trkpt lat="45.76249" lon="6.25661">
        <ele>480</ele>
        <time>2011-11-01T12:09:36Z</time>
      </trkpt>
      <trkpt lat="45.76248" lon="6.2565">
        <ele>480</ele>
        <time>2011-11-01T12:09:40Z</time>
      </trkpt>
      <trkpt lat="45.76249" lon="6.25637">
        <ele>480</ele>
        <time>2011-11-01T12:09:43Z</time>
      </trkpt>
      <trkpt lat="45.76257" lon="6.25622">
        <ele>481</ele>
        <time>2011-11-01T12:09:47Z</time>
      </trkpt>
      <trkpt lat="45.76262" lon="6.2562">
        <ele>481</ele>
        <time>2011-11-01T12:09:50Z</time>
      </trkpt>
      <trkpt lat="45.76262" lon="6.25616">
        <ele>481</ele>
        <time>2011-11-01T12:09:53Z</time>
      </trkpt>
      <trkpt lat="45.7627" lon="6.25594">
        <ele>481</ele>
        <time>2011-11-01T12:09:59Z</time>
      </trkpt>
      <trkpt lat="45.76281" lon="6.25572">
        <ele>482</ele>
        <time>2011-11-01T12:10:06Z</time>
      </trkpt>
      <trkpt lat="45.76283" lon="6.25551">
        <ele>482</ele>
        <time>2011-11-01T12:10:10Z</time>
      </trkpt>
      <trkpt lat="45.76282" lon="6.25533">
        <ele>482</ele>
        <time>2011-11-01T12:10:14Z</time>
      </trkpt>
      <trkpt lat="45.76282" lon="6.25508">
        <ele>482</ele>
        <time>2011-11-01T12:10:19Z</time>
      </trkpt>
      <trkpt lat="45.76284" lon="6.25467">
        <ele>481</ele>
        <time>2011-11-01T12:10:26Z</time>
      </trkpt>
      <trkpt lat="45.76294" lon="6.25416">
        <ele>479</ele>
        <time>2011-11-01T12:10:34Z</time>
      </trkpt>
      <trkpt lat="45.76305" lon="6.2537">
        <ele>478</ele>
        <time>2011-11-01T12:10:41Z</time>
      </trkpt>
      <trkpt lat="45.76315" lon="6.2534">
        <ele>478</ele>
        <time>2011-11-01T12:10:46Z</time>
      </trkpt>
      <trkpt lat="45.76318" lon="6.25331">
        <ele>478</ele>
        <time>2011-11-01T12:10:50Z</time>
      </trkpt>
      <trkpt lat="45.7632" lon="6.25326">
        <ele>478</ele>
        <time>2011-11-01T12:10:58Z</time>
      </trkpt>
      <trkpt lat="45.76329" lon="6.25301">
        <ele>478</ele>
        <time>2011-11-01T12:11:03Z</time>
      </trkpt>
      <trkpt lat="45.76347" lon="6.25259">
        <ele>479</ele>
        <time>2011-11-01T12:11:10Z</time>
      </trkpt>
      <trkpt lat="45.76371" lon="6.25214">
        <ele>478</ele>
        <time>2011-11-01T12:11:18Z</time>
      </trkpt>
      <trkpt lat="45.76406" lon="6.2515">
        <ele>478</ele>
        <time>2011-11-01T12:11:29Z</time>
      </trkpt>
      <trkpt lat="45.76433" lon="6.251">
        <ele>479</ele>
        <time>2011-11-01T12:11:37Z</time>
      </trkpt>
      <trkpt lat="45.76463" lon="6.25043">
        <ele>479</ele>
        <time>2011-11-01T12:11:46Z</time>
      </trkpt>
      <trkpt lat="45.76493" lon="6.24988">
        <ele>478</ele>
        <time>2011-11-01T12:11:55Z</time>
      </trkpt>
      <trkpt lat="45.7653" lon="6.24921">
        <ele>478</ele>
        <time>2011-11-01T12:12:06Z</time>
      </trkpt>
      <trkpt lat="45.7657" lon="6.24845">
        <ele>477</ele>
        <time>2011-11-01T12:12:18Z</time>
      </trkpt>
      <trkpt lat="45.76587" lon="6.24815">
        <ele>477</ele>
        <time>2011-11-01T12:12:23Z</time>
      </trkpt>
      <trkpt lat="45.76627" lon="6.24743">
        <ele>476</ele>
        <time>2011-11-01T12:12:35Z</time>
      </trkpt>
      <trkpt lat="45.76659" lon="6.24691">
        <ele>475</ele>
        <time>2011-11-01T12:12:44Z</time>
      </trkpt>
      <trkpt lat="45.76682" lon="6.24658">
        <ele>474</ele>
        <time>2011-11-01T12:12:50Z</time>
      </trkpt>
      <trkpt lat="45.76703" lon="6.2463">
        <ele>474</ele>
        <time>2011-11-01T12:12:55Z</time>
      </trkpt>
      <trkpt lat="45.76752" lon="6.24566">
        <ele>474</ele>
        <time>2011-11-01T12:13:07Z</time>
      </trkpt>
      <trkpt lat="45.76806" lon="6.24497">
        <ele>472</ele>
        <time>2011-11-01T12:13:20Z</time>
      </trkpt>
      <trkpt lat="45.76848" lon="6.24442">
        <ele>473</ele>
        <time>2011-11-01T12:13:30Z</time>
      </trkpt>
      <trkpt lat="45.76896" lon="6.2438">
        <ele>472</ele>
        <time>2011-11-01T12:13:41Z</time>
      </trkpt>
      <trkpt lat="45.76931" lon="6.24335">
        <ele>471</ele>
        <time>2011-11-01T12:13:49Z</time>
      </trkpt>
      <trkpt lat="45.76974" lon="6.24282">
        <ele>469</ele>
        <time>2011-11-01T12:13:58Z</time>
      </trkpt>
      <trkpt lat="45.77016" lon="6.24226">
        <ele>469</ele>
        <time>2011-11-01T12:14:07Z</time>
      </trkpt>
      <trkpt lat="45.77062" lon="6.24164">
        <ele>467</ele>
        <time>2011-11-01T12:14:17Z</time>
      </trkpt>
      <trkpt lat="45.77099" lon="6.24117">
        <ele>468</ele>
        <time>2011-11-01T12:14:25Z</time>
      </trkpt>
      <trkpt lat="45.77139" lon="6.24064">
        <ele>466</ele>
        <time>2011-11-01T12:14:34Z</time>
      </trkpt>
      <trkpt lat="45.77182" lon="6.2401">
        <ele>466</ele>
        <time>2011-11-01T12:14:44Z</time>
      </trkpt>
      <trkpt lat="45.77219" lon="6.23959">
        <ele>465</ele>
        <time>2011-11-01T12:14:53Z</time>
      </trkpt>
      <trkpt lat="45.77236" lon="6.23938">
        <ele>465</ele>
        <time>2011-11-01T12:14:57Z</time>
      </trkpt>
      <trkpt lat="45.77267" lon="6.23895">
        <ele>465</ele>
        <time>2011-11-01T12:15:05Z</time>
      </trkpt>
      <trkpt lat="45.77308" lon="6.23843">
        <ele>465</ele>
        <time>2011-11-01T12:15:15Z</time>
      </trkpt>
      <trkpt lat="45.77332" lon="6.2381">
        <ele>465</ele>
        <time>2011-11-01T12:15:21Z</time>
      </trkpt>
      <trkpt lat="45.77368" lon="6.23764">
        <ele>465</ele>
        <time>2011-11-01T12:15:30Z</time>
      </trkpt>
      <trkpt lat="45.77424" lon="6.23692">
        <ele>465</ele>
        <time>2011-11-01T12:15:44Z</time>
      </trkpt>
      <trkpt lat="45.77452" lon="6.23655">
        <ele>467</ele>
        <time>2011-11-01T12:15:51Z</time>
      </trkpt>
      <trkpt lat="45.77503" lon="6.23589">
        <ele>469</ele>
        <time>2011-11-01T12:16:04Z</time>
      </trkpt>
      <trkpt lat="45.77537" lon="6.23546">
        <ele>469</ele>
        <time>2011-11-01T12:16:13Z</time>
      </trkpt>
      <trkpt lat="45.77569" lon="6.23503">
        <ele>469</ele>
        <time>2011-11-01T12:16:22Z</time>
      </trkpt>
      <trkpt lat="45.77601" lon="6.23462">
        <ele>469</ele>
        <time>2011-11-01T12:16:31Z</time>
      </trkpt>
      <trkpt lat="45.77636" lon="6.23417">
        <ele>469</ele>
        <time>2011-11-01T12:16:41Z</time>
      </trkpt>
      <trkpt lat="45.77668" lon="6.23375">
        <ele>469</ele>
        <time>2011-11-01T12:16:50Z</time>
      </trkpt>
      <trkpt lat="45.77693" lon="6.23342">
        <ele>469</ele>
        <time>2011-11-01T12:16:57Z</time>
      </trkpt>
      <trkpt lat="45.77716" lon="6.23313">
        <ele>469</ele>
        <time>2011-11-01T12:17:04Z</time>
      </trkpt>
      <trkpt lat="45.77725" lon="6.23304">
        <ele>469</ele>
        <time>2011-11-01T12:17:07Z</time>
      </trkpt>
      <trkpt lat="45.77729" lon="6.23299">
        <ele>469</ele>
        <time>2011-11-01T12:17:11Z</time>
      </trkpt>
      <trkpt lat="45.77728" lon="6.233">
        <ele>469</ele>
        <time>2011-11-01T12:17:19Z</time>
      </trkpt>
      <trkpt lat="45.77734" lon="6.23285">
        <ele>469</ele>
        <time>2011-11-01T12:18:04Z</time>
      </trkpt>
      <trkpt lat="45.77737" lon="6.23281">
        <ele>469</ele>
        <time>2011-11-01T12:18:05Z</time>
      </trkpt>
      <trkpt lat="45.77751" lon="6.23261">
        <ele>468</ele>
        <time>2011-11-01T12:18:09Z</time>
      </trkpt>
      <trkpt lat="45.77747" lon="6.23239">
        <ele>469</ele>
        <time>2011-11-01T12:18:13Z</time>
      </trkpt>
      <trkpt lat="45.77744" lon="6.23234">
        <ele>469</ele>
        <time>2011-11-01T12:18:14Z</time>
      </trkpt>
      <trkpt lat="45.77717" lon="6.23196">
        <ele>470</ele>
        <time>2011-11-01T12:18:22Z</time>
      </trkpt>
      <trkpt lat="45.77697" lon="6.23169">
        <ele>471</ele>
        <time>2011-11-01T12:18:28Z</time>
      </trkpt>
      <trkpt lat="45.77665" lon="6.2312">
        <ele>476</ele>
        <time>2011-11-01T12:18:38Z</time>
      </trkpt>
      <trkpt lat="45.77649" lon="6.23092">
        <ele>476</ele>
        <time>2011-11-01T12:18:44Z</time>
      </trkpt>
      <trkpt lat="45.77635" lon="6.23079">
        <ele>476</ele>
        <time>2011-11-01T12:18:48Z</time>
      </trkpt>
      <trkpt lat="45.77591" lon="6.23057">
        <ele>477</ele>
        <time>2011-11-01T12:18:58Z</time>
      </trkpt>
      <trkpt lat="45.77551" lon="6.23038">
        <ele>482</ele>
        <time>2011-11-01T12:19:07Z</time>
      </trkpt>
      <trkpt lat="45.7751" lon="6.23015">
        <ele>482</ele>
        <time>2011-11-01T12:19:16Z</time>
      </trkpt>
      <trkpt lat="45.77487" lon="6.22991">
        <ele>481</ele>
        <time>2011-11-01T12:19:22Z</time>
      </trkpt>
      <trkpt lat="45.77484" lon="6.22987">
        <ele>481</ele>
        <time>2011-11-01T12:19:23Z</time>
      </trkpt>
      <trkpt lat="45.77465" lon="6.22945">
        <ele>481</ele>
        <time>2011-11-01T12:19:31Z</time>
      </trkpt>
      <trkpt lat="45.77445" lon="6.22906">
        <ele>479</ele>
        <time>2011-11-01T12:19:39Z</time>
      </trkpt>
      <trkpt lat="45.77441" lon="6.22902">
        <ele>479</ele>
        <time>2011-11-01T12:19:40Z</time>
      </trkpt>
      <trkpt lat="45.77427" lon="6.22889">
        <ele>479</ele>
        <time>2011-11-01T12:19:44Z</time>
      </trkpt>
      <trkpt lat="45.77386" lon="6.22863">
        <ele>480</ele>
        <time>2011-11-01T12:19:54Z</time>
      </trkpt>
      <trkpt lat="45.77351" lon="6.22837">
        <ele>481</ele>
        <time>2011-11-01T12:20:03Z</time>
      </trkpt>
      <trkpt lat="45.77324" lon="6.228">
        <ele>482</ele>
        <time>2011-11-01T12:20:12Z</time>
      </trkpt>
      <trkpt lat="45.77295" lon="6.22766">
        <ele>482</ele>
        <time>2011-11-01T12:20:21Z</time>
      </trkpt>
      <trkpt lat="45.77262" lon="6.22739">
        <ele>483</ele>
        <time>2011-11-01T12:20:30Z</time>
      </trkpt>
      <trkpt lat="45.77229" lon="6.22713">
        <ele>484</ele>
        <time>2011-11-01T12:20:39Z</time>
      </trkpt>
      <trkpt lat="45.77226" lon="6.22709">
        <ele>484</ele>
        <time>2011-11-01T12:20:40Z</time>
      </trkpt>
      <trkpt lat="45.77204" lon="6.22693">
        <ele>485</ele>
        <time>2011-11-01T12:20:46Z</time>
      </trkpt>
      <trkpt lat="45.77165" lon="6.22672">
        <ele>486</ele>
        <time>2011-11-01T12:20:56Z</time>
      </trkpt>
      <trkpt lat="45.77133" lon="6.22661">
        <ele>487</ele>
        <time>2011-11-01T12:21:04Z</time>
      </trkpt>
      <trkpt lat="45.77121" lon="6.22657">
        <ele>487</ele>
        <time>2011-11-01T12:21:07Z</time>
      </trkpt>
      <trkpt lat="45.77106" lon="6.22648">
        <ele>488</ele>
        <time>2011-11-01T12:21:11Z</time>
      </trkpt>
      <trkpt lat="45.7708" lon="6.22617">
        <ele>489</ele>
        <time>2011-11-01T12:21:19Z</time>
      </trkpt>
      <trkpt lat="45.77063" lon="6.22581">
        <ele>489</ele>
        <time>2011-11-01T12:21:26Z</time>
      </trkpt>
      <trkpt lat="45.7704" lon="6.22519">
        <ele>490</ele>
        <time>2011-11-01T12:21:37Z</time>
      </trkpt>
      <trkpt lat="45.77021" lon="6.22465">
        <ele>491</ele>
        <time>2011-11-01T12:21:45Z</time>
      </trkpt>
      <trkpt lat="45.76995" lon="6.22422">
        <ele>491</ele>
        <time>2011-11-01T12:21:52Z</time>
      </trkpt>
      <trkpt lat="45.7696" lon="6.22398">
        <ele>493</ele>
        <time>2011-11-01T12:21:59Z</time>
      </trkpt>
      <trkpt lat="45.76946" lon="6.22388">
        <ele>493</ele>
        <time>2011-11-01T12:22:02Z</time>
      </trkpt>
      <trkpt lat="45.76921" lon="6.22355">
        <ele>493</ele>
        <time>2011-11-01T12:22:09Z</time>
      </trkpt>
      <trkpt lat="45.76909" lon="6.22344">
        <ele>495</ele>
        <time>2011-11-01T12:22:13Z</time>
      </trkpt>
      <trkpt lat="45.76905" lon="6.22341">
        <ele>495</ele>
        <time>2011-11-01T12:22:17Z</time>
      </trkpt>
      <trkpt lat="45.76905" lon="6.22335">
        <ele>495</ele>
        <time>2011-11-01T12:22:24Z</time>
      </trkpt>
      <trkpt lat="45.76906" lon="6.22336">
        <ele>495</ele>
        <time>2011-11-01T12:22:30Z</time>
      </trkpt>
      <trkpt lat="45.76909" lon="6.22336">
        <ele>495</ele>
        <time>2011-11-01T12:22:42Z</time>
      </trkpt>
      <trkpt lat="45.7691" lon="6.22336">
        <ele>495</ele>
        <time>2011-11-01T12:22:43Z</time>
      </trkpt>
      <trkpt lat="45.76917" lon="6.22339">
        <ele>494</ele>
        <time>2011-11-01T12:22:47Z</time>
      </trkpt>
      <trkpt lat="45.76915" lon="6.22341">
        <ele>495</ele>
        <time>2011-11-01T12:22:54Z</time>
      </trkpt>
      <trkpt lat="45.76915" lon="6.22345">
        <ele>495</ele>
        <time>2011-11-01T12:22:56Z</time>
      </trkpt>
      <trkpt lat="45.76917" lon="6.22348">
        <ele>494</ele>
        <time>2011-11-01T12:22:58Z</time>
      </trkpt>
      <trkpt lat="45.76914" lon="6.22353">
        <ele>495</ele>
        <time>2011-11-01T12:23:03Z</time>
      </trkpt>
      <trkpt lat="45.76907" lon="6.2235">
        <ele>495</ele>
        <time>2011-11-01T12:23:10Z</time>
      </trkpt>
      <trkpt lat="45.76904" lon="6.2235">
        <ele>495</ele>
        <time>2011-11-01T12:23:16Z</time>
      </trkpt>
      <trkpt lat="45.76902" lon="6.22357">
        <ele>495</ele>
        <time>2011-11-01T12:23:22Z</time>
      </trkpt>
      <trkpt lat="45.76892" lon="6.22333">
        <ele>496</ele>
        <time>2011-11-01T12:23:33Z</time>
      </trkpt>
    </trkseg>
  </trk>
</gpx>